Wetterdaten: Donnerstag, 02.02.2023
Datum Zeit Temp. 2m Temp +5 cm Feuchte A. Luftdruck Regen Wind Richtung Richtung Sonnenschein UV Solar Taupunkt Windchill Windben
02.02.2023 00:00 4,0 C 3,3 C 92 % 1024,5 hPa 0,0 l/m 16,1 km/h (3 Bft) W-SW 247 0 min 0,0 UV-I 0 W/m 2,8 C -2,7 C 25,7 km/h (4 Bft)
02.02.2023 00:01 4,0 C 3,3 C 92 % 1024,4 hPa 0,0 l/m 17,7 km/h (3 Bft) W 270 0 min 0,0 UV-I 0 W/m 2,8 C -3,5 C 25,7 km/h (4 Bft)
02.02.2023 00:02 4,0 C 3,3 C 92 % 1024,5 hPa 0,0 l/m 14,5 km/h (3 Bft) W-SW 247 0 min 0,0 UV-I 0 W/m 2,8 C -1,9 C 19,3 km/h (3 Bft)
02.02.2023 00:03 4,0 C 3,3 C 92 % 1024,5 hPa 0,0 l/m 17,7 km/h (3 Bft) W 270 0 min 0,0 UV-I 0 W/m 2,8 C -3,5 C 27,4 km/h (4 Bft)
02.02.2023 00:04 4,0 C 3,3 C 92 % 1024,4 hPa 0,0 l/m 12,9 km/h (3 Bft) SW 225 0 min 0,0 UV-I 0 W/m 2,8 C -1,0 C 22,5 km/h (4 Bft)
02.02.2023 00:05 4,1 C 3,3 C 92 % 1024,5 hPa 0,0 l/m 16,1 km/h (3 Bft) W-SW 247 0 min 0,0 UV-I 0 W/m 2,9 C -2,6 C 25,7 km/h (4 Bft)
02.02.2023 00:06 4,0 C 3,3 C 92 % 1024,5 hPa 0,0 l/m 12,9 km/h (3 Bft) W-SW 247 0 min 0,0 UV-I 0 W/m 2,8 C -1,0 C 20,9 km/h (4 Bft)
02.02.2023 00:07 4,0 C 3,3 C 92 % 1024,6 hPa 0,0 l/m 11,3 km/h (2 Bft) W-SW 247 0 min 0,0 UV-I 0 W/m 2,8 C 0,1 C 17,7 km/h (3 Bft)
02.02.2023 00:08 4,1 C 3,3 C 92 % 1024,5 hPa 0,0 l/m 16,1 km/h (3 Bft) W-SW 247 0 min 0,0 UV-I 0 W/m 2,9 C -2,6 C 22,5 km/h (4 Bft)
02.02.2023 00:09 4,0 C 3,3 C 92 % 1024,6 hPa 0,0 l/m 16,1 km/h (3 Bft) W-SW 247 0 min 0,0 UV-I 0 W/m 2,8 C -2,7 C 25,7 km/h (4 Bft)
02.02.2023 00:10 4,1 C 3,3 C 92 % 1024,5 hPa 0,0 l/m 16,1 km/h (3 Bft) W 270 0 min 0,0 UV-I 0 W/m 2,9 C -2,6 C 24,1 km/h (4 Bft)
02.02.2023 00:11 4,1 C 3,3 C 92 % 1024,6 hPa 0,0 l/m 19,3 km/h (3 Bft) W-SW 247 0 min 0,0 UV-I 0 W/m 2,9 C -4,0 C 29,0 km/h (5 Bft)
02.02.2023 00:12 4,1 C 3,3 C 92 % 1024,4 hPa 0,0 l/m 16,1 km/h (3 Bft) W-SW 247 0 min 0,0 UV-I 0 W/m 2,9 C -2,6 C 24,1 km/h (4 Bft)
02.02.2023 00:13 4,1 C 3,3 C 92 % 1024,6 hPa 0,0 l/m 17,7 km/h (3 Bft) W-SW 247 0 min 0,0 UV-I 0 W/m 2,9 C -3,3 C 30,6 km/h (5 Bft)
02.02.2023 00:14 4,1 C 3,3 C 92 % 1024,7 hPa 0,0 l/m 19,3 km/h (3 Bft) W 270 0 min 0,0 UV-I 0 W/m 2,9 C -4,0 C 27,4 km/h (4 Bft)
02.02.2023 00:15 4,1 C 3,3 C 92 % 1024,7 hPa 0,0 l/m 16,1 km/h (3 Bft) W-SW 247 0 min 0,0 UV-I 0 W/m 2,9 C -2,6 C 29,0 km/h (5 Bft)
02.02.2023 00:16 4,1 C 3,3 C 91 % 1024,6 hPa 0,0 l/m 16,1 km/h (3 Bft) W-SW 247 0 min 0,0 UV-I 0 W/m 2,8 C -2,6 C 24,1 km/h (4 Bft)
02.02.2023 00:17 4,1 C 3,3 C 92 % 1024,6 hPa 0,0 l/m 17,7 km/h (3 Bft) W-SW 247 0 min 0,0 UV-I 0 W/m 2,9 C -3,3 C 30,6 km/h (5 Bft)
02.02.2023 00:18 4,1 C 3,3 C 91 % 1024,7 hPa 0,0 l/m 14,5 km/h (3 Bft) W 270 0 min 0,0 UV-I 0 W/m 2,8 C -1,7 C 19,3 km/h (3 Bft)
02.02.2023 00:19 4,1 C 3,3 C 91 % 1024,8 hPa 0,0 l/m 19,3 km/h (3 Bft) W 270 0 min 0,0 UV-I 0 W/m 2,8 C -4,0 C 29,0 km/h (5 Bft)
02.02.2023 00:20 4,1 C 3,3 C 91 % 1024,7 hPa 0,0 l/m 16,1 km/h (3 Bft) W-SW 247 0 min 0,0 UV-I 0 W/m 2,8 C -2,6 C 27,4 km/h (4 Bft)
02.02.2023 00:21 4,1 C 3,3 C 91 % 1024,6 hPa 0,0 l/m 22,5 km/h (4 Bft) W 270 0 min 0,0 UV-I 0 W/m 2,8 C -5,3 C 38,6 km/h (5 Bft)
02.02.2023 00:22 4,1 C 3,3 C 91 % 1024,7 hPa 0,0 l/m 14,5 km/h (3 Bft) W-SW 247 0 min 0,0 UV-I 0 W/m 2,8 C -1,7 C 24,1 km/h (4 Bft)
02.02.2023 00:23 4,1 C 3,3 C 91 % 1024,8 hPa 0,0 l/m 17,7 km/h (3 Bft) W-SW 247 0 min 0,0 UV-I 0 W/m 2,8 C -3,3 C 38,6 km/h (5 Bft)
02.02.2023 00:24 4,1 C 3,3 C 91 % 1024,7 hPa 0,0 l/m 19,3 km/h (3 Bft) W 270 0 min 0,0 UV-I 0 W/m 2,8 C -4,0 C 32,2 km/h (5 Bft)
02.02.2023 00:25 4,1 C 3,3 C 91 % 1024,6 hPa 0,0 l/m 20,9 km/h (4 Bft) W-SW 247 0 min 0,0 UV-I 0 W/m 2,8 C -4,7 C 32,2 km/h (5 Bft)
02.02.2023 00:26 4,1 C 3,3 C 91 % 1024,7 hPa 0,0 l/m 11,3 km/h (2 Bft) W-SW 247 0 min 0,0 UV-I 0 W/m 2,8 C 0,2 C 17,7 km/h (3 Bft)
02.02.2023 00:27 4,1 C 3,3 C 91 % 1024,7 hPa 0,0 l/m 16,1 km/h (3 Bft) W 270 0 min 0,0 UV-I 0 W/m 2,8 C -2,6 C 22,5 km/h (4 Bft)
02.02.2023 00:28 4,1 C 3,3 C 91 % 1024,7 hPa 0,0 l/m 12,9 km/h (3 Bft) W-SW 247 0 min 0,0 UV-I 0 W/m 2,8 C -0,8 C 20,9 km/h (4 Bft)
02.02.2023 00:29 4,1 C 3,3 C 91 % 1024,7 hPa 0,0 l/m 16,1 km/h (3 Bft) W 270 0 min 0,0 UV-I 0 W/m 2,8 C -2,6 C 20,9 km/h (4 Bft)
02.02.2023 00:30 4,1 C 3,3 C 91 % 1024,6 hPa 0,0 l/m 19,3 km/h (3 Bft) W 270 0 min 0,0 UV-I 0 W/m 2,8 C -4,0 C 27,4 km/h (4 Bft)
02.02.2023 00:31 4,1 C 3,3 C 91 % 1024,6 hPa 0,0 l/m 14,5 km/h (3 Bft) W-SW 247 0 min 0,0 UV-I 0 W/m 2,8 C -1,7 C 22,5 km/h (4 Bft)
02.02.2023 00:32 4,1 C 3,3 C 91 % 1024,6 hPa 0,0 l/m 14,5 km/h (3 Bft) W-SW 247 0 min 0,0 UV-I 0 W/m 2,8 C -1,7 C 24,1 km/h (4 Bft)
02.02.2023 00:33 4,1 C 3,3 C 91 % 1024,6 hPa 0,0 l/m 14,5 km/h (3 Bft) W-SW 247 0 min 0,0 UV-I 0 W/m 2,8 C -1,7 C 22,5 km/h (4 Bft)
02.02.2023 00:34 4,1 C 3,3 C 91 % 1024,7 hPa 0,0 l/m 12,9 km/h (3 Bft) W-SW 247 0 min 0,0 UV-I 0 W/m 2,8 C -0,8 C 17,7 km/h (3 Bft)
02.02.2023 00:35 4,1 C 3,3 C 91 % 1024,7 hPa 0,0 l/m 17,7 km/h (3 Bft) W-SW 247 0 min 0,0 UV-I 0 W/m 2,8 C -3,3 C 22,5 km/h (4 Bft)
02.02.2023 00:36 4,1 C 3,3 C 91 % 1024,6 hPa 0,0 l/m 14,5 km/h (3 Bft) W-SW 247 0 min 0,0 UV-I 0 W/m 2,8 C -1,7 C 24,1 km/h (4 Bft)
02.02.2023 00:37 4,1 C 3,3 C 91 % 1024,6 hPa 0,2 l/m 20,9 km/h (4 Bft) W 270 0 min 0,0 UV-I 0 W/m 2,8 C -4,7 C 32,2 km/h (5 Bft)
02.02.2023 00:38 4,1 C 3,3 C 91 % 1024,7 hPa 0,0 l/m 14,5 km/h (3 Bft) W 270 0 min 0,0 UV-I 0 W/m 2,8 C -1,7 C 25,7 km/h (4 Bft)
02.02.2023 00:39 4,1 C 3,3 C 91 % 1024,6 hPa 0,0 l/m 11,3 km/h (2 Bft) W 270 0 min 0,0 UV-I 0 W/m 2,8 C 0,2 C 19,3 km/h (3 Bft)
02.02.2023 00:40 4,1 C 3,3 C 91 % 1024,6 hPa 0,0 l/m 11,3 km/h (2 Bft) W-SW 247 0 min 0,0 UV-I 0 W/m 2,8 C 0,2 C 17,7 km/h (3 Bft)
02.02.2023 00:41 4,1 C 3,3 C 91 % 1024,5 hPa 0,0 l/m 17,7 km/h (3 Bft) W-SW 247 0 min 0,0 UV-I 0 W/m 2,8 C -3,3 C 24,1 km/h (4 Bft)
02.02.2023 00:42 4,1 C 3,3 C 91 % 1024,6 hPa 0,0 l/m 12,9 km/h (3 Bft) W-SW 247 0 min 0,0 UV-I 0 W/m 2,8 C -0,8 C 17,7 km/h (3 Bft)
02.02.2023 00:43 4,1 C 3,3 C 91 % 1024,7 hPa 0,0 l/m 9,7 km/h (2 Bft) W-SW 247 0 min 0,0 UV-I 0 W/m 2,8 C 1,3 C 14,5 km/h (3 Bft)
02.02.2023 00:44 4,1 C 3,3 C 91 % 1024,6 hPa 0,0 l/m 14,5 km/h (3 Bft) W 270 0 min 0,0 UV-I 0 W/m 2,8 C -1,7 C 24,1 km/h (4 Bft)
02.02.2023 00:45 4,1 C 3,3 C 91 % 1024,6 hPa 0,0 l/m 12,9 km/h (3 Bft) W-SW 247 0 min 0,0 UV-I 0 W/m 2,8 C -0,8 C 20,9 km/h (4 Bft)
02.02.2023 00:46 4,1 C 3,3 C 91 % 1024,6 hPa 0,0 l/m 9,7 km/h (2 Bft) W-SW 247 0 min 0,0 UV-I 0 W/m 2,8 C 1,3 C 14,5 km/h (3 Bft)
02.02.2023 00:47 4,1 C 3,3 C 91 % 1024,6 hPa 0,0 l/m 14,5 km/h (3 Bft) W-SW 247 0 min 0,0 UV-I 0 W/m 2,8 C -1,7 C 29,0 km/h (5 Bft)
02.02.2023 00:48 4,1 C 3,3 C 91 % 1024,7 hPa 0,0 l/m 12,9 km/h (3 Bft) W 270 0 min 0,0 UV-I 0 W/m 2,8 C -0,8 C 22,5 km/h (4 Bft)
02.02.2023 00:49 4,1 C 3,3 C 91 % 1024,7 hPa 0,0 l/m 11,3 km/h (2 Bft) W-SW 247 0 min 0,0 UV-I 0 W/m 2,8 C 0,2 C 17,7 km/h (3 Bft)
02.02.2023 00:50 4,1 C 3,3 C 91 % 1024,6 hPa 0,0 l/m 16,1 km/h (3 Bft) W 270 0 min 0,0 UV-I 0 W/m 2,8 C -2,6 C 22,5 km/h (4 Bft)
02.02.2023 00:51 4,1 C 3,3 C 91 % 1024,6 hPa 0,0 l/m 11,3 km/h (2 Bft) W 270 0 min 0,0 UV-I 0 W/m 2,8 C 0,2 C 14,5 km/h (3 Bft)
02.02.2023 00:52 4,1 C 3,3 C 91 % 1024,6 hPa 0,0 l/m 17,7 km/h (3 Bft) SW 225 0 min 0,0 UV-I 0 W/m 2,8 C -3,3 C 25,7 km/h (4 Bft)
02.02.2023 00:53 4,1 C 3,3 C 91 % 1024,6 hPa 0,0 l/m 19,3 km/h (3 Bft) SW 225 0 min 0,0 UV-I 0 W/m 2,8 C -4,0 C 29,0 km/h (5 Bft)
02.02.2023 00:54 4,1 C 3,3 C 91 % 1024,7 hPa 0,0 l/m 12,9 km/h (3 Bft) SW 225 0 min 0,0 UV-I 0 W/m 2,8 C -0,8 C 20,9 km/h (4 Bft)
02.02.2023 00:55 4,1 C 3,3 C 91 % 1024,7 hPa 0,0 l/m 12,9 km/h (3 Bft) SW 225 0 min 0,0 UV-I 0 W/m 2,8 C -0,8 C 22,5 km/h (4 Bft)
02.02.2023 00:56 4,1 C 3,3 C 91 % 1024,6 hPa 0,0 l/m 9,7 km/h (2 Bft) W 270 0 min 0,0 UV-I 0 W/m 2,8 C 1,3 C 12,9 km/h (3 Bft)
02.02.2023 00:57 4,1 C 3,3 C 91 % 1024,7 hPa 0,2 l/m 19,3 km/h (3 Bft) W 270 0 min 0,0 UV-I 0 W/m 2,8 C -4,0 C 33,8 km/h (5 Bft)
02.02.2023 00:58 4,1 C 3,3 C 91 % 1024,7 hPa 0,0 l/m 14,5 km/h (3 Bft) W 270 0 min 0,0 UV-I 0 W/m 2,8 C -1,7 C 19,3 km/h (3 Bft)
02.02.2023 00:59 4,1 C 3,3 C 91 % 1024,7 hPa 0,0 l/m 8,0 km/h (2 Bft) W-SW 247 0 min 0,0 UV-I 0 W/m 2,8 C 2,7 C 12,9 km/h (3 Bft)
02.02.2023 01:00 4,1 C 3,3 C 91 % 1024,8 hPa 0,0 l/m 8,0 km/h (2 Bft) W 270 0 min 0,0 UV-I 0 W/m 2,8 C 2,7 C 12,9 km/h (3 Bft)
02.02.2023 01:01 4,1 C 3,3 C 91 % 1024,7 hPa 0,0 l/m 6,4 km/h (2 Bft) SW 225 0 min 0,0 UV-I 0 W/m 2,8 C 4,1 C 11,3 km/h (2 Bft)
02.02.2023 01:02 4,1 C 3,3 C 91 % 1024,7 hPa 0,0 l/m 12,9 km/h (3 Bft) W 270 0 min 0,0 UV-I 0 W/m 2,8 C -0,8 C 27,4 km/h (4 Bft)
02.02.2023 01:03 4,1 C 3,3 C 91 % 1024,7 hPa 0,0 l/m 19,3 km/h (3 Bft) W-SW 247 0 min 0,0 UV-I 0 W/m 2,8 C -4,0 C 30,6 km/h (5 Bft)
02.02.2023 01:04 4,1 C 3,3 C 91 % 1024,8 hPa 0,0 l/m 20,9 km/h (4 Bft) W-SW 247 0 min 0,0 UV-I 0 W/m 2,8 C -4,7 C 30,6 km/h (5 Bft)
02.02.2023 01:05 4,1 C 3,3 C 91 % 1024,8 hPa 0,0 l/m 14,5 km/h (3 Bft) W-SW 247 0 min 0,0 UV-I 0 W/m 2,8 C -1,7 C 22,5 km/h (4 Bft)
02.02.2023 01:06 4,1 C 3,3 C 91 % 1024,7 hPa 0,0 l/m 16,1 km/h (3 Bft) W-SW 247 0 min 0,0 UV-I 0 W/m 2,8 C -2,6 C 24,1 km/h (4 Bft)
02.02.2023 01:07 4,2 C 3,3 C 91 % 1024,8 hPa 0,0 l/m 17,7 km/h (3 Bft) W-SW 247 0 min 0,0 UV-I 0 W/m 2,9 C -3,2 C 27,4 km/h (4 Bft)
02.02.2023 01:08 4,1 C 3,3 C 91 % 1024,7 hPa 0,0 l/m 19,3 km/h (3 Bft) W-SW 247 0 min 0,0 UV-I 0 W/m 2,8 C -4,0 C 27,4 km/h (4 Bft)
02.02.2023 01:09 4,1 C 3,3 C 91 % 1024,7 hPa 0,0 l/m 17,7 km/h (3 Bft) W-SW 247 0 min 0,0 UV-I 0 W/m 2,8 C -3,3 C 27,4 km/h (4 Bft)
02.02.2023 01:10 4,2 C 3,3 C 91 % 1024,6 hPa 0,0 l/m 16,1 km/h (3 Bft) W 270 0 min 0,0 UV-I 0 W/m 2,9 C -2,5 C 30,6 km/h (5 Bft)
02.02.2023 01:11 4,2 C 3,3 C 91 % 1024,7 hPa 0,0 l/m 14,5 km/h (3 Bft) W 270 0 min 0,0 UV-I 0 W/m 2,9 C -1,6 C 17,7 km/h (3 Bft)
02.02.2023 01:12 4,2 C 3,3 C 91 % 1024,7 hPa 0,0 l/m 12,9 km/h (3 Bft) W 270 0 min 0,0 UV-I 0 W/m 2,9 C -0,7 C 16,1 km/h (3 Bft)
02.02.2023 01:13 4,2 C 3,3 C 91 % 1024,7 hPa 0,0 l/m 9,7 km/h (2 Bft) W-SW 247 0 min 0,0 UV-I 0 W/m 2,9 C 1,4 C 16,1 km/h (3 Bft)
02.02.2023 01:14 4,2 C 3,3 C 91 % 1024,7 hPa 0,0 l/m 9,7 km/h (2 Bft) W 270 0 min 0,0 UV-I 0 W/m 2,9 C 1,4 C 17,7 km/h (3 Bft)
02.02.2023 01:15 4,2 C 3,3 C 91 % 1024,8 hPa 0,0 l/m 14,5 km/h (3 Bft) W 270 0 min 0,0 UV-I 0 W/m 2,9 C -1,6 C 22,5 km/h (4 Bft)
02.02.2023 01:16 4,2 C 3,3 C 91 % 1024,7 hPa 0,0 l/m 12,9 km/h (3 Bft) W 270 0 min 0,0 UV-I 0 W/m 2,9 C -0,7 C 19,3 km/h (3 Bft)
02.02.2023 01:17 4,2 C 3,3 C 91 % 1024,7 hPa 0,0 l/m 12,9 km/h (3 Bft) W-SW 247 0 min 0,0 UV-I 0 W/m 2,9 C -0,7 C 17,7 km/h (3 Bft)
02.02.2023 01:18 4,2 C 3,3 C 91 % 1024,6 hPa 0,0 l/m 11,3 km/h (2 Bft) W 270 0 min 0,0 UV-I 0 W/m 2,9 C 0,3 C 17,7 km/h (3 Bft)
02.02.2023 01:19 4,2 C 3,3 C 91 % 1024,7 hPa 0,0 l/m 11,3 km/h (2 Bft) W-SW 247 0 min 0,0 UV-I 0 W/m 2,9 C 0,3 C 19,3 km/h (3 Bft)
02.02.2023 01:20 4,2 C 3,3 C 91 % 1024,7 hPa 0,0 l/m 16,1 km/h (3 Bft) W 270 0 min 0,0 UV-I 0 W/m 2,9 C -2,5 C 24,1 km/h (4 Bft)
02.02.2023 01:21 4,2 C 3,3 C 91 % 1024,7 hPa 0,0 l/m 20,9 km/h (4 Bft) W 270 0 min 0,0 UV-I 0 W/m 2,9 C -4,6 C 27,4 km/h (4 Bft)
02.02.2023 01:22 4,2 C 3,3 C 91 % 1024,7 hPa 0,0 l/m 11,3 km/h (2 Bft) W 270 0 min 0,0 UV-I 0 W/m 2,9 C 0,3 C 29,0 km/h (5 Bft)
02.02.2023 01:23 4,2 C 3,3 C 92 % 1024,7 hPa 0,0 l/m 22,5 km/h (4 Bft) W 270 0 min 0,0 UV-I 0 W/m 3,0 C -5,2 C 33,8 km/h (5 Bft)
02.02.2023 01:24 4,1 C 3,3 C 91 % 1024,8 hPa 0,0 l/m 19,3 km/h (3 Bft) W 270 0 min 0,0 UV-I 0 W/m 2,8 C -4,0 C 27,4 km/h (4 Bft)
02.02.2023 01:25 4,1 C 3,3 C 91 % 1024,7 hPa 0,0 l/m 14,5 km/h (3 Bft) W 270 0 min 0,0 UV-I 0 W/m 2,8 C -1,7 C 19,3 km/h (3 Bft)
02.02.2023 01:26 4,1 C 3,3 C 92 % 1024,8 hPa 0,0 l/m 11,3 km/h (2 Bft) W 270 0 min 0,0 UV-I 0 W/m 2,9 C 0,2 C 17,7 km/h (3 Bft)
02.02.2023 01:27 4,2 C 3,3 C 91 % 1024,7 hPa 0,0 l/m 12,9 km/h (3 Bft) W-SW 247 0 min 0,0 UV-I 0 W/m 2,9 C -0,7 C 20,9 km/h (4 Bft)
02.02.2023 01:28 4,2 C 3,3 C 91 % 1024,8 hPa 0,0 l/m 16,1 km/h (3 Bft) W-SW 247 0 min 0,0 UV-I 0 W/m 2,9 C -2,5 C 25,7 km/h (4 Bft)
02.02.2023 01:29 4,2 C 3,3 C 91 % 1024,7 hPa 0,0 l/m 14,5 km/h (3 Bft) W-SW 247 0 min 0,0 UV-I 0 W/m 2,9 C -1,6 C 19,3 km/h (3 Bft)
02.02.2023 01:30 4,2 C 3,3 C 91 % 1024,7 hPa 0,0 l/m 17,7 km/h (3 Bft) W 270 0 min 0,0 UV-I 0 W/m 2,9 C -3,2 C 25,7 km/h (4 Bft)
02.02.2023 01:31 4,1 C 3,3 C 91 % 1024,7 hPa 0,0 l/m 9,7 km/h (2 Bft) W-SW 247 0 min 0,0 UV-I 0 W/m 2,8 C 1,3 C 16,1 km/h (3 Bft)
02.02.2023 01:32 4,2 C 3,3 C 91 % 1024,7 hPa 0,0 l/m 8,0 km/h (2 Bft) W 270 0 min 0,0 UV-I 0 W/m 2,9 C 2,8 C 14,5 km/h (3 Bft)
02.02.2023 01:33 4,2 C 3,3 C 91 % 1024,7 hPa 0,0 l/m 19,3 km/h (3 Bft) W 270 0 min 0,0 UV-I 0 W/m 2,9 C -3,9 C 27,4 km/h (4 Bft)
02.02.2023 01:34 4,2 C 3,3 C 91 % 1024,7 hPa 0,0 l/m 22,5 km/h (4 Bft) W 270 0 min 0,0 UV-I 0 W/m 2,9 C -5,2 C 30,6 km/h (5 Bft)
02.02.2023 01:35 4,2 C 3,3 C 91 % 1024,8 hPa 0,0 l/m 14,5 km/h (3 Bft) W 270 0 min 0,0 UV-I 0 W/m 2,9 C -1,6 C 22,5 km/h (4 Bft)
02.02.2023 01:36 4,2 C 3,3 C 91 % 1024,9 hPa 0,0 l/m 20,9 km/h (4 Bft) W-SW 247 0 min 0,0 UV-I 0 W/m 2,9 C -4,6 C 30,6 km/h (5 Bft)
02.02.2023 01:37 4,2 C 3,3 C 91 % 1024,7 hPa 0,2 l/m 20,9 km/h (4 Bft) W-SW 247 0 min 0,0 UV-I 0 W/m 2,9 C -4,6 C 32,2 km/h (5 Bft)
02.02.2023 01:38 4,2 C 3,3 C 92 % 1024,8 hPa 0,0 l/m 20,9 km/h (4 Bft) W 270 0 min 0,0 UV-I 0 W/m 3,0 C -4,6 C 30,6 km/h (5 Bft)
02.02.2023 01:39 4,2 C 3,3 C 91 % 1024,7 hPa 0,0 l/m 14,5 km/h (3 Bft) W-SW 247 0 min 0,0 UV-I 0 W/m 2,9 C -1,6 C 25,7 km/h (4 Bft)
02.02.2023 01:40 4,2 C 3,3 C 92 % 1024,8 hPa 0,0 l/m 19,3 km/h (3 Bft) W 270 0 min 0,0 UV-I 0 W/m 3,0 C -3,9 C 29,0 km/h (5 Bft)
02.02.2023 01:41 4,2 C 3,3 C 91 % 1024,9 hPa 0,0 l/m 11,3 km/h (2 Bft) SW 225 0 min 0,0 UV-I 0 W/m 2,9 C 0,3 C 16,1 km/h (3 Bft)
02.02.2023 01:42 4,2 C 3,3 C 91 % 1024,9 hPa 0,0 l/m 11,3 km/h (2 Bft) W-SW 247 0 min 0,0 UV-I 0 W/m 2,9 C 0,3 C 16,1 km/h (3 Bft)
02.02.2023 01:43 4,2 C 3,3 C 91 % 1024,9 hPa 0,0 l/m 11,3 km/h (2 Bft) W-SW 247 0 min 0,0 UV-I 0 W/m 2,9 C 0,3 C 20,9 km/h (4 Bft)
02.02.2023 01:44 4,2 C 3,3 C 91 % 1024,9 hPa 0,0 l/m 8,0 km/h (2 Bft) W-SW 247 0 min 0,0 UV-I 0 W/m 2,9 C 2,8 C 11,3 km/h (2 Bft)
02.02.2023 01:45 4,2 C 3,3 C 91 % 1024,9 hPa 0,0 l/m 9,7 km/h (2 Bft) W 270 0 min 0,0 UV-I 0 W/m 2,9 C 1,4 C 14,5 km/h (3 Bft)
02.02.2023 01:46 4,2 C 3,3 C 91 % 1024,9 hPa 0,0 l/m 17,7 km/h (3 Bft) W-SW 247 0 min 0,0 UV-I 0 W/m 2,9 C -3,2 C 25,7 km/h (4 Bft)
02.02.2023 01:47 4,1 C 3,3 C 91 % 1024,8 hPa 0,0 l/m 20,9 km/h (4 Bft) W 270 0 min 0,0 UV-I 0 W/m 2,8 C -4,7 C 27,4 km/h (4 Bft)
02.02.2023 01:48 4,2 C 3,3 C 91 % 1024,7 hPa 0,0 l/m 12,9 km/h (3 Bft) W 270 0 min 0,0 UV-I 0 W/m 2,9 C -0,7 C 19,3 km/h (3 Bft)
02.02.2023 01:49 4,2 C 3,3 C 91 % 1024,7 hPa 0,0 l/m 16,1 km/h (3 Bft) W 270 0 min 0,0 UV-I 0 W/m 2,9 C -2,5 C 25,7 km/h (4 Bft)
02.02.2023 01:50 4,2 C 3,3 C 91 % 1024,9 hPa 0,0 l/m 17,7 km/h (3 Bft) W-SW 247 0 min 0,0 UV-I 0 W/m 2,9 C -3,2 C 29,0 km/h (5 Bft)
02.02.2023 01:51 4,2 C 3,3 C 91 % 1024,9 hPa 0,0 l/m 16,1 km/h (3 Bft) W-SW 247 0 min 0,0 UV-I 0 W/m 2,9 C -2,5 C 24,1 km/h (4 Bft)
02.02.2023 01:52 4,2 C 3,3 C 91 % 1024,8 hPa 0,0 l/m 17,7 km/h (3 Bft) W 270 0 min 0,0 UV-I 0 W/m 2,9 C -3,2 C 27,4 km/h (4 Bft)
02.02.2023 01:53 4,2 C 3,3 C 91 % 1024,9 hPa 0,0 l/m 9,7 km/h (2 Bft) W-SW 247 0 min 0,0 UV-I 0 W/m 2,9 C 1,4 C 14,5 km/h (3 Bft)
02.02.2023 01:54 4,2 C 3,3 C 91 % 1024,9 hPa 0,0 l/m 11,3 km/h (2 Bft) W-SW 247 0 min 0,0 UV-I 0 W/m 2,9 C 0,3 C 17,7 km/h (3 Bft)
02.02.2023 01:55 4,2 C 3,3 C 91 % 1024,9 hPa 0,0 l/m 16,1 km/h (3 Bft) W-SW 247 0 min 0,0 UV-I 0 W/m 2,9 C -2,5 C 24,1 km/h (4 Bft)
02.02.2023 01:56 4,2 C 3,3 C 91 % 1024,9 hPa 0,0 l/m 12,9 km/h (3 Bft) W-SW 247 0 min 0,0 UV-I 0 W/m 2,9 C -0,7 C 19,3 km/h (3 Bft)
02.02.2023 01:57 4,2 C 3,3 C 91 % 1024,8 hPa 0,0 l/m 12,9 km/h (3 Bft) W 270 0 min 0,0 UV-I 0 W/m 2,9 C -0,7 C 20,9 km/h (4 Bft)
02.02.2023 01:58 4,2 C 3,3 C 91 % 1024,8 hPa 0,0 l/m 17,7 km/h (3 Bft) W-SW 247 0 min 0,0 UV-I 0 W/m 2,9 C -3,2 C 27,4 km/h (4 Bft)
02.02.2023 01:59 4,2 C 3,3 C 91 % 1024,7 hPa 0,0 l/m 17,7 km/h (3 Bft) W-SW 247 0 min 0,0 UV-I 0 W/m 2,9 C -3,2 C 32,2 km/h (5 Bft)
02.02.2023 02:00 4,2 C 3,3 C 91 % 1024,7 hPa 0,0 l/m 14,5 km/h (3 Bft) W-SW 247 0 min 0,0 UV-I 0 W/m 2,9 C -1,6 C 22,5 km/h (4 Bft)
02.02.2023 02:01 4,2 C 3,3 C 91 % 1024,7 hPa 0,0 l/m 16,1 km/h (3 Bft) W-SW 247 0 min 0,0 UV-I 0 W/m 2,9 C -2,5 C 20,9 km/h (4 Bft)
02.02.2023 02:02 4,2 C 3,3 C 91 % 1024,7 hPa 0,0 l/m 17,7 km/h (3 Bft) W-SW 247 0 min 0,0 UV-I 0 W/m 2,9 C -3,2 C 24,1 km/h (4 Bft)
02.02.2023 02:03 4,2 C 3,3 C 91 % 1024,8 hPa 0,0 l/m 14,5 km/h (3 Bft) W 270 0 min 0,0 UV-I 0 W/m 2,9 C -1,6 C 27,4 km/h (4 Bft)
02.02.2023 02:04 4,2 C 3,3 C 91 % 1024,7 hPa 0,0 l/m 22,5 km/h (4 Bft) W-SW 247 0 min 0,0 UV-I 0 W/m 2,9 C -5,2 C 30,6 km/h (5 Bft)
02.02.2023 02:05 4,2 C 3,3 C 91 % 1024,7 hPa 0,0 l/m 19,3 km/h (3 Bft) W-SW 247 0 min 0,0 UV-I 0 W/m 2,9 C -3,9 C 24,1 km/h (4 Bft)
02.02.2023 02:06 4,2 C 3,3 C 91 % 1024,6 hPa 0,0 l/m 16,1 km/h (3 Bft) W-SW 247 0 min 0,0 UV-I 0 W/m 2,9 C -2,5 C 24,1 km/h (4 Bft)
02.02.2023 02:07 4,2 C 3,3 C 91 % 1024,7 hPa 0,0 l/m 20,9 km/h (4 Bft) W 270 0 min 0,0 UV-I 0 W/m 2,9 C -4,6 C 29,0 km/h (5 Bft)
02.02.2023 02:08 4,2 C 3,3 C 91 % 1024,8 hPa 0,0 l/m 12,9 km/h (3 Bft) W 270 0 min 0,0 UV-I 0 W/m 2,9 C -0,7 C 22,5 km/h (4 Bft)
02.02.2023 02:09 4,2 C 3,3 C 91 % 1024,7 hPa 0,0 l/m 19,3 km/h (3 Bft) W-SW 247 0 min 0,0 UV-I 0 W/m 2,9 C -3,9 C 30,6 km/h (5 Bft)
02.02.2023 02:10 4,2 C 3,3 C 91 % 1024,6 hPa 0,0 l/m 20,9 km/h (4 Bft) W-SW 247 0 min 0,0 UV-I 0 W/m 2,9 C -4,6 C 33,8 km/h (5 Bft)
02.02.2023 02:11 4,2 C 3,3 C 91 % 1024,7 hPa 0,0 l/m 14,5 km/h (3 Bft) W-SW 247 0 min 0,0 UV-I 0 W/m 2,9 C -1,6 C 29,0 km/h (5 Bft)
02.02.2023 02:12 4,2 C 3,3 C 91 % 1024,7 hPa 0,0 l/m 14,5 km/h (3 Bft) W-SW 247 0 min 0,0 UV-I 0 W/m 2,9 C -1,6 C 17,7 km/h (3 Bft)
02.02.2023 02:13 4,2 C 3,3 C 91 % 1024,6 hPa 0,0 l/m 16,1 km/h (3 Bft) W 270 0 min 0,0 UV-I 0 W/m 2,9 C -2,5 C 27,4 km/h (4 Bft)
02.02.2023 02:14 4,2 C 3,3 C 91 % 1024,7 hPa 0,0 l/m 16,1 km/h (3 Bft) W 270 0 min 0,0 UV-I 0 W/m 2,9 C -2,5 C 27,4 km/h (4 Bft)
02.02.2023 02:15 4,2 C 3,3 C 91 % 1024,7 hPa 0,0 l/m 19,3 km/h (3 Bft) W 270 0 min 0,0 UV-I 0 W/m 2,9 C -3,9 C 29,0 km/h (5 Bft)
02.02.2023 02:16 4,2 C 3,3 C 91 % 1024,7 hPa 0,0 l/m 17,7 km/h (3 Bft) SW 225 0 min 0,0 UV-I 0 W/m 2,9 C -3,2 C 22,5 km/h (4 Bft)
02.02.2023 02:17 4,2 C 3,3 C 91 % 1024,7 hPa 0,0 l/m 20,9 km/h (4 Bft) W-SW 247 0 min 0,0 UV-I 0 W/m 2,9 C -4,6 C 33,8 km/h (5 Bft)
02.02.2023 02:18 4,2 C 3,3 C 91 % 1024,7 hPa 0,0 l/m 14,5 km/h (3 Bft) SW 225 0 min 0,0 UV-I 0 W/m 2,9 C -1,6 C 20,9 km/h (4 Bft)
02.02.2023 02:19 4,2 C 3,3 C 91 % 1024,7 hPa 0,0 l/m 12,9 km/h (3 Bft) W 270 0 min 0,0 UV-I 0 W/m 2,9 C -0,7 C 19,3 km/h (3 Bft)
02.02.2023 02:20 4,2 C 3,3 C 91 % 1024,7 hPa 0,0 l/m 19,3 km/h (3 Bft) W-SW 247 0 min 0,0 UV-I 0 W/m 2,9 C -3,9 C 24,1 km/h (4 Bft)
02.02.2023 02:21 4,1 C 3,3 C 91 % 1024,7 hPa 0,0 l/m 16,1 km/h (3 Bft) W-SW 247 0 min 0,0 UV-I 0 W/m 2,8 C -2,6 C 24,1 km/h (4 Bft)
02.02.2023 02:22 4,2 C 3,3 C 91 % 1024,7 hPa 0,0 l/m 14,5 km/h (3 Bft) W-SW 247 0 min 0,0 UV-I 0 W/m 2,9 C -1,6 C 22,5 km/h (4 Bft)
02.02.2023 02:23 4,2 C 3,3 C 91 % 1024,7 hPa 0,0 l/m 16,1 km/h (3 Bft) W-SW 247 0 min 0,0 UV-I 0 W/m 2,9 C -2,5 C 24,1 km/h (4 Bft)
02.02.2023 02:24 4,2 C 3,3 C 91 % 1024,7 hPa 0,0 l/m 16,1 km/h (3 Bft) SW 225 0 min 0,0 UV-I 0 W/m 2,9 C -2,5 C 27,4 km/h (4 Bft)
02.02.2023 02:25 4,1 C 3,3 C 91 % 1024,7 hPa 0,0 l/m 14,5 km/h (3 Bft) SW 225 0 min 0,0 UV-I 0 W/m 2,8 C -1,7 C 19,3 km/h (3 Bft)
02.02.2023 02:26 4,1 C 3,3 C 91 % 1024,7 hPa 0,0 l/m 11,3 km/h (2 Bft) W 270 0 min 0,0 UV-I 0 W/m 2,8 C 0,2 C 16,1 km/h (3 Bft)
02.02.2023 02:27 4,1 C 3,3 C 91 % 1024,7 hPa 0,0 l/m 16,1 km/h (3 Bft) W-SW 247 0 min 0,0 UV-I 0 W/m 2,8 C -2,6 C 22,5 km/h (4 Bft)
02.02.2023 02:28 4,1 C 3,3 C 91 % 1024,7 hPa 0,0 l/m 14,5 km/h (3 Bft) W-SW 247 0 min 0,0 UV-I 0 W/m 2,8 C -1,7 C 20,9 km/h (4 Bft)
02.02.2023 02:29 4,1 C 3,3 C 91 % 1024,9 hPa 0,0 l/m 12,9 km/h (3 Bft) W-SW 247 0 min 0,0 UV-I 0 W/m 2,8 C -0,8 C 17,7 km/h (3 Bft)
02.02.2023 02:30 4,1 C 3,3 C 91 % 1024,8 hPa 0,0 l/m 11,3 km/h (2 Bft) W 270 0 min 0,0 UV-I 0 W/m 2,8 C 0,2 C 17,7 km/h (3 Bft)
02.02.2023 02:31 4,1 C 3,3 C 91 % 1024,7 hPa 0,0 l/m 12,9 km/h (3 Bft) W 270 0 min 0,0 UV-I 0 W/m 2,8 C -0,8 C 19,3 km/h (3 Bft)
02.02.2023 02:32 4,1 C 3,3 C 91 % 1024,7 hPa 0,0 l/m 11,3 km/h (2 Bft) W-SW 247 0 min 0,0 UV-I 0 W/m 2,8 C 0,2 C 16,1 km/h (3 Bft)
02.02.2023 02:33 4,1 C 3,3 C 91 % 1024,8 hPa 0,0 l/m 12,9 km/h (3 Bft) W 270 0 min 0,0 UV-I 0 W/m 2,8 C -0,8 C 20,9 km/h (4 Bft)
02.02.2023 02:34 4,1 C 3,3 C 91 % 1024,9 hPa 0,0 l/m 12,9 km/h (3 Bft) W-SW 247 0 min 0,0 UV-I 0 W/m 2,8 C -0,8 C 20,9 km/h (4 Bft)
02.02.2023 02:35 4,1 C 3,3 C 91 % 1024,7 hPa 0,0 l/m 12,9 km/h (3 Bft) SW 225 0 min 0,0 UV-I 0 W/m 2,8 C -0,8 C 19,3 km/h (3 Bft)
02.02.2023 02:36 4,1 C 3,3 C 91 % 1024,8 hPa 0,0 l/m 12,9 km/h (3 Bft) W-SW 247 0 min 0,0 UV-I 0 W/m 2,8 C -0,8 C 19,3 km/h (3 Bft)
02.02.2023 02:37 4,1 C 3,3 C 91 % 1024,8 hPa 0,0 l/m 11,3 km/h (2 Bft) W-SW 247 0 min 0,0 UV-I 0 W/m 2,8 C 0,2 C 17,7 km/h (3 Bft)
02.02.2023 02:38 4,1 C 3,3 C 91 % 1024,8 hPa 0,0 l/m 14,5 km/h (3 Bft) W-SW 247 0 min 0,0 UV-I 0 W/m 2,8 C -1,7 C 25,7 km/h (4 Bft)
02.02.2023 02:39 4,1 C 3,3 C 91 % 1024,7 hPa 0,0 l/m 14,5 km/h (3 Bft) W-SW 247 0 min 0,0 UV-I 0 W/m 2,8 C -1,7 C 17,7 km/h (3 Bft)
02.02.2023 02:40 4,1 C 3,3 C 91 % 1024,8 hPa 0,0 l/m 16,1 km/h (3 Bft) W 270 0 min 0,0 UV-I 0 W/m 2,8 C -2,6 C 20,9 km/h (4 Bft)
02.02.2023 02:41 4,1 C 3,3 C 91 % 1024,8 hPa 0,0 l/m 9,7 km/h (2 Bft) W 270 0 min 0,0 UV-I 0 W/m 2,8 C 1,3 C 24,1 km/h (4 Bft)
02.02.2023 02:42 4,1 C 3,3 C 91 % 1024,9 hPa 0,0 l/m 14,5 km/h (3 Bft) W-SW 247 0 min 0,0 UV-I 0 W/m 2,8 C -1,7 C 20,9 km/h (4 Bft)
02.02.2023 02:43 4,1 C 3,3 C 91 % 1024,9 hPa 0,0 l/m 9,7 km/h (2 Bft) W 270 0 min 0,0 UV-I 0 W/m 2,8 C 1,3 C 17,7 km/h (3 Bft)
02.02.2023 02:44 4,1 C 3,3 C 91 % 1024,8 hPa 0,0 l/m 11,3 km/h (2 Bft) W-SW 247 0 min 0,0 UV-I 0 W/m 2,8 C 0,2 C 19,3 km/h (3 Bft)
02.02.2023 02:45 4,1 C 3,3 C 91 % 1024,8 hPa 0,0 l/m 11,3 km/h (2 Bft) W-SW 247 0 min 0,0 UV-I 0 W/m 2,8 C 0,2 C 20,9 km/h (4 Bft)
02.02.2023 02:46 4,1 C 3,3 C 91 % 1024,9 hPa 0,0 l/m 19,3 km/h (3 Bft) W-SW 247 0 min 0,0 UV-I 0 W/m 2,8 C -4,0 C 29,0 km/h (5 Bft)
02.02.2023 02:47 4,1 C 3,3 C 91 % 1024,9 hPa 0,0 l/m 17,7 km/h (3 Bft) W-SW 247 0 min 0,0 UV-I 0 W/m 2,8 C -3,3 C 25,7 km/h (4 Bft)
02.02.2023 02:48 4,1 C 3,3 C 91 % 1024,9 hPa 0,0 l/m 11,3 km/h (2 Bft) W-SW 247 0 min 0,0 UV-I 0 W/m 2,8 C 0,2 C 16,1 km/h (3 Bft)
02.02.2023 02:49 4,1 C 3,3 C 91 % 1024,9 hPa 0,0 l/m 17,7 km/h (3 Bft) SW 225 0 min 0,0 UV-I 0 W/m 2,8 C -3,3 C 24,1 km/h (4 Bft)
02.02.2023 02:50 4,1 C 3,3 C 91 % 1024,9 hPa 0,0 l/m 12,9 km/h (3 Bft) W-SW 247 0 min 0,0 UV-I 0 W/m 2,8 C -0,8 C 19,3 km/h (3 Bft)
02.02.2023 02:51 4,1 C 3,3 C 91 % 1024,9 hPa 0,0 l/m 19,3 km/h (3 Bft) W-SW 247 0 min 0,0 UV-I 0 W/m 2,8 C -4,0 C 33,8 km/h (5 Bft)
02.02.2023 02:52 4,1 C 3,3 C 91 % 1024,9 hPa 0,0 l/m 16,1 km/h (3 Bft) W-SW 247 0 min 0,0 UV-I 0 W/m 2,8 C -2,6 C 22,5 km/h (4 Bft)
02.02.2023 02:53 4,1 C 3,3 C 91 % 1024,9 hPa 0,0 l/m 16,1 km/h (3 Bft) W 270 0 min 0,0 UV-I 0 W/m 2,8 C -2,6 C 22,5 km/h (4 Bft)
02.02.2023 02:54 4,1 C 3,3 C 91 % 1024,9 hPa 0,0 l/m 17,7 km/h (3 Bft) W-SW 247 0 min 0,0 UV-I 0 W/m 2,8 C -3,3 C 27,4 km/h (4 Bft)
02.02.2023 02:55 4,1 C 3,3 C 91 % 1024,9 hPa 0,0 l/m 11,3 km/h (2 Bft) W-SW 247 0 min 0,0 UV-I 0 W/m 2,8 C 0,2 C 20,9 km/h (4 Bft)
02.02.2023 02:56 4,1 C 3,3 C 91 % 1025,0 hPa 0,0 l/m 11,3 km/h (2 Bft) W 270 0 min 0,0 UV-I 0 W/m 2,8 C 0,2 C 14,5 km/h (3 Bft)
02.02.2023 02:57 4,1 C 3,3 C 91 % 1024,9 hPa 0,0 l/m 17,7 km/h (3 Bft) W-SW 247 0 min 0,0 UV-I 0 W/m 2,8 C -3,3 C 25,7 km/h (4 Bft)
02.02.2023 02:58 4,1 C 3,3 C 91 % 1025,0 hPa 0,0 l/m 16,1 km/h (3 Bft) W-SW 247 0 min 0,0 UV-I 0 W/m 2,8 C -2,6 C 25,7 km/h (4 Bft)
02.02.2023 02:59 4,1 C 3,3 C 91 % 1024,9 hPa 0,0 l/m 16,1 km/h (3 Bft) W-SW 247 0 min 0,0 UV-I 0 W/m 2,8 C -2,6 C 25,7 km/h (4 Bft)
02.02.2023 03:00 4,0 C 3,3 C 91 % 1024,9 hPa 0,0 l/m 17,7 km/h (3 Bft) W 270 0 min 0,0 UV-I 0 W/m 2,7 C -3,5 C 27,4 km/h (4 Bft)
02.02.2023 03:01 4,0 C 3,3 C 91 % 1024,9 hPa 0,0 l/m 19,3 km/h (3 Bft) W-SW 247 0 min 0,0 UV-I 0 W/m 2,7 C -4,2 C 29,0 km/h (5 Bft)
02.02.2023 03:02 4,0 C 3,3 C 91 % 1024,9 hPa 0,0 l/m 14,5 km/h (3 Bft) W-SW 247 0 min 0,0 UV-I 0 W/m 2,7 C -1,9 C 20,9 km/h (4 Bft)
02.02.2023 03:03 4,0 C 3,3 C 91 % 1024,8 hPa 0,0 l/m 11,3 km/h (2 Bft) W 270 0 min 0,0 UV-I 0 W/m 2,7 C 0,1 C 17,7 km/h (3 Bft)
02.02.2023 03:04 4,0 C 3,3 C 91 % 1024,9 hPa 0,0 l/m 12,9 km/h (3 Bft) W-SW 247 0 min 0,0 UV-I 0 W/m 2,7 C -1,0 C 19,3 km/h (3 Bft)
02.02.2023 03:05 4,0 C 3,3 C 91 % 1024,8 hPa 0,0 l/m 9,7 km/h (2 Bft) W-SW 247 0 min 0,0 UV-I 0 W/m 2,7 C 1,2 C 16,1 km/h (3 Bft)
02.02.2023 03:06 4,0 C 3,3 C 91 % 1025,0 hPa 0,0 l/m 16,1 km/h (3 Bft) W-SW 247 0 min 0,0 UV-I 0 W/m 2,7 C -2,7 C 27,4 km/h (4 Bft)
02.02.2023 03:07 4,1 C 3,3 C 91 % 1024,9 hPa 0,0 l/m 17,7 km/h (3 Bft) W 270 0 min 0,0 UV-I 0 W/m 2,8 C -3,3 C 25,7 km/h (4 Bft)
02.02.2023 03:08 4,0 C 3,3 C 91 % 1024,9 hPa 0,0 l/m 16,1 km/h (3 Bft) W-SW 247 0 min 0,0 UV-I 0 W/m 2,7 C -2,7 C 24,1 km/h (4 Bft)
02.02.2023 03:09 4,0 C 3,3 C 91 % 1024,9 hPa 0,0 l/m 14,5 km/h (3 Bft) W-SW 247 0 min 0,0 UV-I 0 W/m 2,7 C -1,9 C 19,3 km/h (3 Bft)
02.02.2023 03:10 4,1 C 3,3 C 91 % 1024,9 hPa 0,0 l/m 12,9 km/h (3 Bft) W 270 0 min 0,0 UV-I 0 W/m 2,8 C -0,8 C 17,7 km/h (3 Bft)
02.02.2023 03:11 4,0 C 3,3 C 91 % 1024,9 hPa 0,0 l/m 11,3 km/h (2 Bft) W 270 0 min 0,0 UV-I 0 W/m 2,7 C 0,1 C 19,3 km/h (3 Bft)
02.02.2023 03:12 4,0 C 3,3 C 91 % 1025,0 hPa 0,0 l/m 17,7 km/h (3 Bft) W 270 0 min 0,0 UV-I 0 W/m 2,7 C -3,5 C 25,7 km/h (4 Bft)
02.02.2023 03:13 4,0 C 3,3 C 91 % 1024,9 hPa 0,0 l/m 16,1 km/h (3 Bft) W-SW 247 0 min 0,0 UV-I 0 W/m 2,7 C -2,7 C 24,1 km/h (4 Bft)
02.02.2023 03:14 4,0 C 3,3 C 91 % 1024,9 hPa 0,0 l/m 9,7 km/h (2 Bft) SW 225 0 min 0,0 UV-I 0 W/m 2,7 C 1,2 C 14,5 km/h (3 Bft)
02.02.2023 03:15 4,0 C 3,3 C 91 % 1024,9 hPa 0,0 l/m 12,9 km/h (3 Bft) W-SW 247 0 min 0,0 UV-I 0 W/m 2,7 C -1,0 C 22,5 km/h (4 Bft)
02.02.2023 03:16 4,0 C 3,3 C 91 % 1024,9 hPa 0,0 l/m 17,7 km/h (3 Bft) SW 225 0 min 0,0 UV-I 0 W/m 2,7 C -3,5 C 27,4 km/h (4 Bft)
02.02.2023 03:17 4,0 C 3,3 C 91 % 1024,9 hPa 0,0 l/m 14,5 km/h (3 Bft) W 270 0 min 0,0 UV-I 0 W/m 2,7 C -1,9 C 22,5 km/h (4 Bft)
02.02.2023 03:18 4,0 C 3,3 C 91 % 1024,8 hPa 0,0 l/m 16,1 km/h (3 Bft) W-SW 247 0 min 0,0 UV-I 0 W/m 2,7 C -2,7 C 25,7 km/h (4 Bft)
02.02.2023 03:19 4,0 C 3,3 C 91 % 1024,9 hPa 0,0 l/m 14,5 km/h (3 Bft) SW 225 0 min 0,0 UV-I 0 W/m 2,7 C -1,9 C 24,1 km/h (4 Bft)
02.02.2023 03:20 4,1 C 3,3 C 91 % 1024,9 hPa 0,0 l/m 19,3 km/h (3 Bft) W 270 0 min 0,0 UV-I 0 W/m 2,8 C -4,0 C 32,2 km/h (5 Bft)
02.02.2023 03:21 4,0 C 3,3 C 91 % 1024,9 hPa 0,0 l/m 20,9 km/h (4 Bft) W-SW 247 0 min 0,0 UV-I 0 W/m 2,7 C -4,8 C 25,7 km/h (4 Bft)
02.02.2023 03:22 4,1 C 3,3 C 91 % 1024,9 hPa 0,0 l/m 19,3 km/h (3 Bft) W-SW 247 0 min 0,0 UV-I 0 W/m 2,8 C -4,0 C 30,6 km/h (5 Bft)
02.02.2023 03:23 4,0 C 3,3 C 91 % 1024,9 hPa 0,0 l/m 19,3 km/h (3 Bft) W-SW 247 0 min 0,0 UV-I 0 W/m 2,7 C -4,2 C 30,6 km/h (5 Bft)
02.02.2023 03:24 4,1 C 3,3 C 91 % 1024,9 hPa 0,0 l/m 14,5 km/h (3 Bft) W-SW 247 0 min 0,0 UV-I 0 W/m 2,8 C -1,7 C 19,3 km/h (3 Bft)
02.02.2023 03:25 4,1 C 3,3 C 91 % 1025,0 hPa 0,0 l/m 16,1 km/h (3 Bft) W 270 0 min 0,0 UV-I 0 W/m 2,8 C -2,6 C 24,1 km/h (4 Bft)
02.02.2023 03:26 4,1 C 3,3 C 91 % 1025,0 hPa 0,0 l/m 11,3 km/h (2 Bft) SW 225 0 min 0,0 UV-I 0 W/m 2,8 C 0,2 C 16,1 km/h (3 Bft)
02.02.2023 03:27 4,1 C 3,3 C 91 % 1024,9 hPa 0,0 l/m 16,1 km/h (3 Bft) W 270 0 min 0,0 UV-I 0 W/m 2,8 C -2,6 C 20,9 km/h (4 Bft)
02.02.2023 03:28 4,0 C 3,3 C 91 % 1025,0 hPa 0,0 l/m 11,3 km/h (2 Bft) W-SW 247 0 min 0,0 UV-I 0 W/m 2,7 C 0,1 C 16,1 km/h (3 Bft)
02.02.2023 03:29 4,1 C 3,3 C 91 % 1024,9 hPa 0,0 l/m 16,1 km/h (3 Bft) W 270 0 min 0,0 UV-I 0 W/m 2,8 C -2,6 C 27,4 km/h (4 Bft)
02.02.2023 03:30 4,0 C 3,3 C 91 % 1024,9 hPa 0,0 l/m 12,9 km/h (3 Bft) SW 225 0 min 0,0 UV-I 0 W/m 2,7 C -1,0 C 22,5 km/h (4 Bft)
02.02.2023 03:31 4,0 C 3,3 C 91 % 1024,9 hPa 0,0 l/m 16,1 km/h (3 Bft) SW 225 0 min 0,0 UV-I 0 W/m 2,7 C -2,7 C 25,7 km/h (4 Bft)
02.02.2023 03:32 4,1 C 3,3 C 91 % 1024,8 hPa 0,0 l/m 12,9 km/h (3 Bft) W-SW 247 0 min 0,0 UV-I 0 W/m 2,8 C -0,8 C 19,3 km/h (3 Bft)
02.02.2023 03:33 4,0 C 3,3 C 91 % 1024,9 hPa 0,0 l/m 11,3 km/h (2 Bft) W-SW 247 0 min 0,0 UV-I 0 W/m 2,7 C 0,1 C 17,7 km/h (3 Bft)
02.02.2023 03:34 4,1 C 3,3 C 91 % 1024,9 hPa 0,0 l/m 11,3 km/h (2 Bft) W-SW 247 0 min 0,0 UV-I 0 W/m 2,8 C 0,2 C 16,1 km/h (3 Bft)
02.02.2023 03:35 4,0 C 3,3 C 91 % 1024,9 hPa 0,0 l/m 16,1 km/h (3 Bft) W-SW 247 0 min 0,0 UV-I 0 W/m 2,7 C -2,7 C 25,7 km/h (4 Bft)
02.02.2023 03:36 4,1 C 3,3 C 91 % 1024,9 hPa 0,0 l/m 14,5 km/h (3 Bft) W-SW 247 0 min 0,0 UV-I 0 W/m 2,8 C -1,7 C 24,1 km/h (4 Bft)
02.02.2023 03:37 4,1 C 3,3 C 91 % 1025,0 hPa 0,0 l/m 22,5 km/h (4 Bft) W 270 0 min 0,0 UV-I 0 W/m 2,8 C -5,3 C 30,6 km/h (5 Bft)
02.02.2023 03:38 4,1 C 3,3 C 91 % 1024,9 hPa 0,0 l/m 17,7 km/h (3 Bft) W-SW 247 0 min 0,0 UV-I 0 W/m 2,8 C -3,3 C 27,4 km/h (4 Bft)
02.02.2023 03:39 4,1 C 3,3 C 91 % 1024,9 hPa 0,0 l/m 11,3 km/h (2 Bft) W-SW 247 0 min 0,0 UV-I 0 W/m 2,8 C 0,2 C 19,3 km/h (3 Bft)
02.02.2023 03:40 4,1 C 3,3 C 91 % 1025,0 hPa 0,0 l/m 20,9 km/h (4 Bft) W 270 0 min 0,0 UV-I 0 W/m 2,8 C -4,7 C 29,0 km/h (5 Bft)
02.02.2023 03:41 4,1 C 3,3 C 91 % 1024,9 hPa 0,0 l/m 17,7 km/h (3 Bft) W 270 0 min 0,0 UV-I 0 W/m 2,8 C -3,3 C 20,9 km/h (4 Bft)
02.02.2023 03:42 4,1 C 3,3 C 91 % 1024,9 hPa 0,0 l/m 17,7 km/h (3 Bft) W 270 0 min 0,0 UV-I 0 W/m 2,8 C -3,3 C 25,7 km/h (4 Bft)
02.02.2023 03:43 4,1 C 3,3 C 91 % 1025,0 hPa 0,0 l/m 17,7 km/h (3 Bft) W-SW 247 0 min 0,0 UV-I 0 W/m 2,8 C -3,3 C 25,7 km/h (4 Bft)
02.02.2023 03:44 4,1 C 3,3 C 91 % 1024,8 hPa 0,0 l/m 16,1 km/h (3 Bft) W 270 0 min 0,0 UV-I 0 W/m 2,8 C -2,6 C 22,5 km/h (4 Bft)
02.02.2023 03:45 4,1 C 3,3 C 91 % 1024,9 hPa 0,0 l/m 14,5 km/h (3 Bft) W-SW 247 0 min 0,0 UV-I 0 W/m 2,8 C -1,7 C 22,5 km/h (4 Bft)
02.02.2023 03:46 4,1 C 3,3 C 91 % 1025,0 hPa 0,0 l/m 11,3 km/h (2 Bft) SW 225 0 min 0,0 UV-I 0 W/m 2,8 C 0,2 C 17,7 km/h (3 Bft)
02.02.2023 03:47 4,1 C 3,3 C 91 % 1024,9 hPa 0,0 l/m 19,3 km/h (3 Bft) W-SW 247 0 min 0,0 UV-I 0 W/m 2,8 C -4,0 C 27,4 km/h (4 Bft)
02.02.2023 03:48 4,1 C 3,3 C 91 % 1024,9 hPa 0,0 l/m 19,3 km/h (3 Bft) W 270 0 min 0,0 UV-I 0 W/m 2,8 C -4,0 C 25,7 km/h (4 Bft)
02.02.2023 03:49 4,1 C 3,3 C 91 % 1024,8 hPa 0,0 l/m 17,7 km/h (3 Bft) W-SW 247 0 min 0,0 UV-I 0 W/m 2,8 C -3,3 C 25,7 km/h (4 Bft)
02.02.2023 03:50 4,1 C 3,3 C 91 % 1024,8 hPa 0,0 l/m 19,3 km/h (3 Bft) W-SW 247 0 min 0,0 UV-I 0 W/m 2,8 C -4,0 C 25,7 km/h (4 Bft)
02.02.2023 03:51 4,1 C 3,3 C 91 % 1024,8 hPa 0,0 l/m 11,3 km/h (2 Bft) W-SW 247 0 min 0,0 UV-I 0 W/m 2,8 C 0,2 C 17,7 km/h (3 Bft)
02.02.2023 03:52 4,1 C 3,3 C 91 % 1024,8 hPa 0,0 l/m 16,1 km/h (3 Bft) W 270 0 min 0,0 UV-I 0 W/m 2,8 C -2,6 C 22,5 km/h (4 Bft)
02.02.2023 03:53 4,1 C 3,3 C 91 % 1024,7 hPa 0,0 l/m 12,9 km/h (3 Bft) SW 225 0 min 0,0 UV-I 0 W/m 2,8 C -0,8 C 22,5 km/h (4 Bft)
02.02.2023 03:54 4,1 C 3,3 C 91 % 1024,8 hPa 0,0 l/m 12,9 km/h (3 Bft) W-SW 247 0 min 0,0 UV-I 0 W/m 2,8 C -0,8 C 20,9 km/h (4 Bft)
02.02.2023 03:55 4,1 C 3,3 C 91 % 1024,7 hPa 0,0 l/m 14,5 km/h (3 Bft) W 270 0 min 0,0 UV-I 0 W/m 2,8 C -1,7 C 20,9 km/h (4 Bft)
02.02.2023 03:56 4,1 C 3,3 C 91 % 1024,7 hPa 0,0 l/m 20,9 km/h (4 Bft) W-SW 247 0 min 0,0 UV-I 0 W/m 2,8 C -4,7 C 30,6 km/h (5 Bft)
02.02.2023 03:57 4,1 C 3,3 C 91 % 1024,7 hPa 0,0 l/m 17,7 km/h (3 Bft) W-SW 247 0 min 0,0 UV-I 0 W/m 2,8 C -3,3 C 27,4 km/h (4 Bft)
02.02.2023 03:58 4,1 C 3,3 C 91 % 1024,6 hPa 0,0 l/m 16,1 km/h (3 Bft) W-SW 247 0 min 0,0 UV-I 0 W/m 2,8 C -2,6 C 25,7 km/h (4 Bft)
02.02.2023 03:59 4,1 C 3,3 C 91 % 1024,6 hPa 0,0 l/m 17,7 km/h (3 Bft) W-SW 247 0 min 0,0 UV-I 0 W/m 2,8 C -3,3 C 27,4 km/h (4 Bft)
02.02.2023 04:00 4,1 C 3,3 C 91 % 1024,8 hPa 0,0 l/m 16,1 km/h (3 Bft) W-SW 247 0 min 0,0 UV-I 0 W/m 2,8 C -2,6 C 29,0 km/h (5 Bft)
02.02.2023 04:01 4,1 C 3,3 C 91 % 1024,7 hPa 0,0 l/m 12,9 km/h (3 Bft) SW 225 0 min 0,0 UV-I 0 W/m 2,8 C -0,8 C 17,7 km/h (3 Bft)
02.02.2023 04:02 4,1 C 3,3 C 91 % 1024,9 hPa 0,0 l/m 12,9 km/h (3 Bft) W-SW 247 0 min 0,0 UV-I 0 W/m 2,8 C -0,8 C 24,1 km/h (4 Bft)
02.02.2023 04:03 4,1 C 3,3 C 91 % 1024,8 hPa 0,0 l/m 11,3 km/h (2 Bft) W-SW 247 0 min 0,0 UV-I 0 W/m 2,8 C 0,2 C 16,1 km/h (3 Bft)
02.02.2023 04:04 4,1 C 3,3 C 91 % 1024,9 hPa 0,0 l/m 9,7 km/h (2 Bft) W-SW 247 0 min 0,0 UV-I 0 W/m 2,8 C 1,3 C 16,1 km/h (3 Bft)
02.02.2023 04:05 4,1 C 3,3 C 91 % 1024,9 hPa 0,0 l/m 12,9 km/h (3 Bft) W-SW 247 0 min 0,0 UV-I 0 W/m 2,8 C -0,8 C 19,3 km/h (3 Bft)
02.02.2023 04:06 4,1 C 3,3 C 91 % 1024,9 hPa 0,0 l/m 12,9 km/h (3 Bft) W-SW 247 0 min 0,0 UV-I 0 W/m 2,8 C -0,8 C 19,3 km/h (3 Bft)
02.02.2023 04:07 4,1 C 3,3 C 91 % 1024,8 hPa 0,0 l/m 12,9 km/h (3 Bft) W-SW 247 0 min 0,0 UV-I 0 W/m 2,8 C -0,8 C 20,9 km/h (4 Bft)
02.02.2023 04:08 4,1 C 3,3 C 91 % 1024,9 hPa 0,0 l/m 12,9 km/h (3 Bft) SW 225 0 min 0,0 UV-I 0 W/m 2,8 C -0,8 C 24,1 km/h (4 Bft)
02.02.2023 04:09 4,1 C 3,3 C 91 % 1024,8 hPa 0,0 l/m 14,5 km/h (3 Bft) W 270 0 min 0,0 UV-I 0 W/m 2,8 C -1,7 C 27,4 km/h (4 Bft)
02.02.2023 04:10 4,1 C 3,3 C 91 % 1024,9 hPa 0,0 l/m 16,1 km/h (3 Bft) W-SW 247 0 min 0,0 UV-I 0 W/m 2,8 C -2,6 C 27,4 km/h (4 Bft)
02.02.2023 04:11 4,1 C 3,3 C 91 % 1024,8 hPa 0,0 l/m 14,5 km/h (3 Bft) W-SW 247 0 min 0,0 UV-I 0 W/m 2,8 C -1,7 C 25,7 km/h (4 Bft)
02.02.2023 04:12 4,1 C 3,3 C 91 % 1024,9 hPa 0,0 l/m 8,0 km/h (2 Bft) W-SW 247 0 min 0,0 UV-I 0 W/m 2,8 C 2,7 C 12,9 km/h (3 Bft)
02.02.2023 04:13 4,1 C 3,3 C 91 % 1024,9 hPa 0,0 l/m 9,7 km/h (2 Bft) W-SW 247 0 min 0,0 UV-I 0 W/m 2,8 C 1,3 C 17,7 km/h (3 Bft)
02.02.2023 04:14 4,1 C 3,3 C 91 % 1024,9 hPa 0,0 l/m 12,9 km/h (3 Bft) W-SW 247 0 min 0,0 UV-I 0 W/m 2,8 C -0,8 C 25,7 km/h (4 Bft)
02.02.2023 04:15 4,1 C 3,3 C 91 % 1024,8 hPa 0,0 l/m 12,9 km/h (3 Bft) SW 225 0 min 0,0 UV-I 0 W/m 2,8 C -0,8 C 20,9 km/h (4 Bft)
02.02.2023 04:16 4,1 C 3,3 C 91 % 1024,8 hPa 0,0 l/m 16,1 km/h (3 Bft) W 270 0 min 0,0 UV-I 0 W/m 2,8 C -2,6 C 22,5 km/h (4 Bft)
02.02.2023 04:17 4,1 C 3,3 C 91 % 1024,7 hPa 0,0 l/m 12,9 km/h (3 Bft) SW 225 0 min 0,0 UV-I 0 W/m 2,8 C -0,8 C 22,5 km/h (4 Bft)
02.02.2023 04:18 4,1 C 3,3 C 91 % 1024,9 hPa 0,0 l/m 11,3 km/h (2 Bft) W-SW 247 0 min 0,0 UV-I 0 W/m 2,8 C 0,2 C 19,3 km/h (3 Bft)
02.02.2023 04:19 4,1 C 3,3 C 91 % 1024,9 hPa 0,0 l/m 9,7 km/h (2 Bft) SW 225 0 min 0,0 UV-I 0 W/m 2,8 C 1,3 C 16,1 km/h (3 Bft)
02.02.2023 04:20 4,1 C 3,3 C 91 % 1024,9 hPa 0,0 l/m 12,9 km/h (3 Bft) W 270 0 min 0,0 UV-I 0 W/m 2,8 C -0,8 C 16,1 km/h (3 Bft)
02.02.2023 04:21 4,1 C 3,3 C 91 % 1024,8 hPa 0,0 l/m 11,3 km/h (2 Bft) W-SW 247 0 min 0,0 UV-I 0 W/m 2,8 C 0,2 C 17,7 km/h (3 Bft)
02.02.2023 04:22 4,1 C 3,3 C 91 % 1024,9 hPa 0,0 l/m 9,7 km/h (2 Bft) SW 225 0 min 0,0 UV-I 0 W/m 2,8 C 1,3 C 16,1 km/h (3 Bft)
02.02.2023 04:23 4,1 C 3,3 C 91 % 1024,7 hPa 0,0 l/m 16,1 km/h (3 Bft) SW 225 0 min 0,0 UV-I 0 W/m 2,8 C -2,6 C 27,4 km/h (4 Bft)
02.02.2023 04:24 4,0 C 3,3 C 91 % 1024,6 hPa 0,0 l/m 17,7 km/h (3 Bft) W-SW 247 0 min 0,0 UV-I 0 W/m 2,7 C -3,5 C 25,7 km/h (4 Bft)
02.02.2023 04:25 4,1 C 3,3 C 91 % 1024,8 hPa 0,0 l/m 14,5 km/h (3 Bft) W-SW 247 0 min 0,0 UV-I 0 W/m 2,8 C -1,7 C 22,5 km/h (4 Bft)
02.02.2023 04:26 4,1 C 3,3 C 91 % 1024,7 hPa 0,0 l/m 14,5 km/h (3 Bft) W-SW 247 0 min 0,0 UV-I 0 W/m 2,8 C -1,7 C 24,1 km/h (4 Bft)
02.02.2023 04:27 4,1 C 3,3 C 91 % 1024,8 hPa 0,0 l/m 17,7 km/h (3 Bft) W 270 0 min 0,0 UV-I 0 W/m 2,8 C -3,3 C 29,0 km/h (5 Bft)
02.02.2023 04:28 4,0 C 3,3 C 91 % 1024,7 hPa 0,0 l/m 14,5 km/h (3 Bft) SW 225 0 min 0,0 UV-I 0 W/m 2,7 C -1,9 C 24,1 km/h (4 Bft)
02.02.2023 04:29 4,0 C 3,3 C 91 % 1024,7 hPa 0,0 l/m 14,5 km/h (3 Bft) W-SW 247 0 min 0,0 UV-I 0 W/m 2,7 C -1,9 C 22,5 km/h (4 Bft)
02.02.2023 04:30 4,0 C 3,3 C 91 % 1024,7 hPa 0,0 l/m 11,3 km/h (2 Bft) W-SW 247 0 min 0,0 UV-I 0 W/m 2,7 C 0,1 C 19,3 km/h (3 Bft)
02.02.2023 04:31 4,0 C 3,3 C 91 % 1024,7 hPa 0,0 l/m 12,9 km/h (3 Bft) SW 225 0 min 0,0 UV-I 0 W/m 2,7 C -1,0 C 20,9 km/h (4 Bft)
02.02.2023 04:32 4,0 C 3,3 C 91 % 1024,8 hPa 0,0 l/m 14,5 km/h (3 Bft) W-SW 247 0 min 0,0 UV-I 0 W/m 2,7 C -1,9 C 22,5 km/h (4 Bft)
02.02.2023 04:33 4,0 C 3,3 C 91 % 1024,7 hPa 0,0 l/m 12,9 km/h (3 Bft) W-SW 247 0 min 0,0 UV-I 0 W/m 2,7 C -1,0 C 19,3 km/h (3 Bft)
02.02.2023 04:34 4,0 C 3,3 C 91 % 1024,7 hPa 0,0 l/m 19,3 km/h (3 Bft) W-SW 247 0 min 0,0 UV-I 0 W/m 2,7 C -4,2 C 27,4 km/h (4 Bft)
02.02.2023 04:35 4,0 C 3,3 C 91 % 1024,7 hPa 0,0 l/m 12,9 km/h (3 Bft) W-SW 247 0 min 0,0 UV-I 0 W/m 2,7 C -1,0 C 17,7 km/h (3 Bft)
02.02.2023 04:36 4,0 C 3,3 C 91 % 1024,6 hPa 0,0 l/m 9,7 km/h (2 Bft) SW 225 0 min 0,0 UV-I 0 W/m 2,7 C 1,2 C 14,5 km/h (3 Bft)
02.02.2023 04:37 4,0 C 3,3 C 91 % 1024,7 hPa 0,0 l/m 12,9 km/h (3 Bft) SW 225 0 min 0,0 UV-I 0 W/m 2,7 C -1,0 C 25,7 km/h (4 Bft)
02.02.2023 04:38 4,0 C 3,3 C 91 % 1024,7 hPa 0,0 l/m 8,0 km/h (2 Bft) W-SW 247 0 min 0,0 UV-I 0 W/m 2,7 C 2,6 C 19,3 km/h (3 Bft)
02.02.2023 04:39 4,0 C 3,3 C 91 % 1024,6 hPa 0,0 l/m 14,5 km/h (3 Bft) W-SW 247 0 min 0,0 UV-I 0 W/m 2,7 C -1,9 C 22,5 km/h (4 Bft)
02.02.2023 04:40 4,0 C 3,3 C 91 % 1024,7 hPa 0,0 l/m 11,3 km/h (2 Bft) W 270 0 min 0,0 UV-I 0 W/m 2,7 C 0,1 C 20,9 km/h (4 Bft)
02.02.2023 04:41 4,0 C 3,3 C 91 % 1024,6 hPa 0,0 l/m 17,7 km/h (3 Bft) SW 225 0 min 0,0 UV-I 0 W/m 2,7 C -3,5 C 32,2 km/h (5 Bft)
02.02.2023 04:42 4,0 C 3,3 C 91 % 1024,6 hPa 0,0 l/m 16,1 km/h (3 Bft) W-SW 247 0 min 0,0 UV-I 0 W/m 2,7 C -2,7 C 22,5 km/h (4 Bft)
02.02.2023 04:43 4,0 C 3,3 C 91 % 1024,6 hPa 0,0 l/m 17,7 km/h (3 Bft) W-SW 247 0 min 0,0 UV-I 0 W/m 2,7 C -3,5 C 29,0 km/h (5 Bft)
02.02.2023 04:44 4,0 C 3,3 C 91 % 1024,8 hPa 0,0 l/m 9,7 km/h (2 Bft) W-SW 247 0 min 0,0 UV-I 0 W/m 2,7 C 1,2 C 16,1 km/h (3 Bft)
02.02.2023 04:45 4,0 C 3,3 C 91 % 1024,8 hPa 0,0 l/m 9,7 km/h (2 Bft) W 270 0 min 0,0 UV-I 0 W/m 2,7 C 1,2 C 17,7 km/h (3 Bft)
02.02.2023 04:46 3,9 C 3,3 C 91 % 1024,9 hPa 0,0 l/m 11,3 km/h (2 Bft) W-SW 247 0 min 0,0 UV-I 0 W/m 2,6 C -0,1 C 22,5 km/h (4 Bft)
02.02.2023 04:47 4,0 C 3,3 C 91 % 1024,7 hPa 0,0 l/m 16,1 km/h (3 Bft) W-SW 247 0 min 0,0 UV-I 0 W/m 2,7 C -2,7 C 24,1 km/h (4 Bft)
02.02.2023 04:48 4,0 C 3,3 C 91 % 1024,8 hPa 0,0 l/m 17,7 km/h (3 Bft) W-SW 247 0 min 0,0 UV-I 0 W/m 2,7 C -3,5 C 29,0 km/h (5 Bft)
02.02.2023 04:49 3,9 C 3,3 C 92 % 1024,9 hPa 0,0 l/m 16,1 km/h (3 Bft) W-SW 247 0 min 0,0 UV-I 0 W/m 2,7 C -2,8 C 25,7 km/h (4 Bft)
02.02.2023 04:50 4,0 C 3,3 C 91 % 1024,9 hPa 0,0 l/m 16,1 km/h (3 Bft) W 270 0 min 0,0 UV-I 0 W/m 2,7 C -2,7 C 22,5 km/h (4 Bft)
02.02.2023 04:51 4,0 C 3,3 C 92 % 1025,0 hPa 0,0 l/m 14,5 km/h (3 Bft) W-SW 247 0 min 0,0 UV-I 0 W/m 2,8 C -1,9 C 22,5 km/h (4 Bft)
02.02.2023 04:52 4,0 C 3,3 C 91 % 1025,0 hPa 0,0 l/m 12,9 km/h (3 Bft) SW 225 0 min 0,0 UV-I 0 W/m 2,7 C -1,0 C 22,5 km/h (4 Bft)
02.02.2023 04:53 4,0 C 3,3 C 91 % 1024,9 hPa 0,0 l/m 11,3 km/h (2 Bft) SW 225 0 min 0,0 UV-I 0 W/m 2,7 C 0,1 C 17,7 km/h (3 Bft)
02.02.2023 04:54 4,0 C 3,3 C 91 % 1025,0 hPa 0,0 l/m 11,3 km/h (2 Bft) W 270 0 min 0,0 UV-I 0 W/m 2,7 C 0,1 C 14,5 km/h (3 Bft)
02.02.2023 04:55 4,0 C 3,3 C 92 % 1024,8 hPa 0,0 l/m 14,5 km/h (3 Bft) W-SW 247 0 min 0,0 UV-I 0 W/m 2,8 C -1,9 C 24,1 km/h (4 Bft)
02.02.2023 04:56 4,0 C 3,3 C 91 % 1024,9 hPa 0,0 l/m 17,7 km/h (3 Bft) W-SW 247 0 min 0,0 UV-I 0 W/m 2,7 C -3,5 C 29,0 km/h (5 Bft)
02.02.2023 04:57 3,9 C 3,3 C 91 % 1025,1 hPa 0,0 l/m 12,9 km/h (3 Bft) W-SW 247 0 min 0,0 UV-I 0 W/m 2,6 C -1,1 C 19,3 km/h (3 Bft)
02.02.2023 04:58 4,0 C 3,3 C 91 % 1024,9 hPa 0,0 l/m 11,3 km/h (2 Bft) SW 225 0 min 0,0 UV-I 0 W/m 2,7 C 0,1 C 17,7 km/h (3 Bft)
02.02.2023 04:59 4,0 C 3,3 C 92 % 1025,0 hPa 0,0 l/m 16,1 km/h (3 Bft) W-SW 247 0 min 0,0 UV-I 0 W/m 2,8 C -2,7 C 27,4 km/h (4 Bft)
02.02.2023 05:00 4,0 C 3,3 C 91 % 1025,0 hPa 0,0 l/m 14,5 km/h (3 Bft) W 270 0 min 0,0 UV-I 0 W/m 2,7 C -1,9 C 20,9 km/h (4 Bft)
02.02.2023 05:01 4,0 C 3,3 C 92 % 1025,1 hPa 0,0 l/m 19,3 km/h (3 Bft) W-SW 247 0 min 0,0 UV-I 0 W/m 2,8 C -4,2 C 27,4 km/h (4 Bft)
02.02.2023 05:02 4,0 C 3,3 C 92 % 1025,0 hPa 0,0 l/m 12,9 km/h (3 Bft) W-SW 247 0 min 0,0 UV-I 0 W/m 2,8 C -1,0 C 17,7 km/h (3 Bft)
02.02.2023 05:03 4,0 C 3,3 C 92 % 1025,1 hPa 0,0 l/m 9,7 km/h (2 Bft) SW 225 0 min 0,0 UV-I 0 W/m 2,8 C 1,2 C 16,1 km/h (3 Bft)
02.02.2023 05:04 3,9 C 3,3 C 91 % 1025,1 hPa 0,0 l/m 9,7 km/h (2 Bft) SW 225 0 min 0,0 UV-I 0 W/m 2,6 C 1,1 C 25,7 km/h (4 Bft)
02.02.2023 05:05 4,0 C 3,3 C 92 % 1025,1 hPa 0,0 l/m 14,5 km/h (3 Bft) W-SW 247 0 min 0,0 UV-I 0 W/m 2,8 C -1,9 C 20,9 km/h (4 Bft)
02.02.2023 05:06 3,9 C 3,3 C 92 % 1025,0 hPa 0,0 l/m 12,9 km/h (3 Bft) W-SW 247 0 min 0,0 UV-I 0 W/m 2,7 C -1,1 C 17,7 km/h (3 Bft)
02.02.2023 05:07 4,0 C 3,3 C 91 % 1025,0 hPa 0,0 l/m 14,5 km/h (3 Bft) W-SW 247 0 min 0,0 UV-I 0 W/m 2,7 C -1,9 C 22,5 km/h (4 Bft)
02.02.2023 05:08 4,0 C 3,3 C 92 % 1025,0 hPa 0,0 l/m 9,7 km/h (2 Bft) W-SW 247 0 min 0,0 UV-I 0 W/m 2,8 C 1,2 C 12,9 km/h (3 Bft)
02.02.2023 05:09 4,0 C 3,3 C 92 % 1025,0 hPa 0,0 l/m 14,5 km/h (3 Bft) W-SW 247 0 min 0,0 UV-I 0 W/m 2,8 C -1,9 C 20,9 km/h (4 Bft)
02.02.2023 05:10 3,9 C 3,3 C 92 % 1024,9 hPa 0,0 l/m 17,7 km/h (3 Bft) W-SW 247 0 min 0,0 UV-I 0 W/m 2,7 C -3,6 C 22,5 km/h (4 Bft)
02.02.2023 05:11 3,9 C 3,3 C 91 % 1024,9 hPa 0,0 l/m 14,5 km/h (3 Bft) W-SW 247 0 min 0,0 UV-I 0 W/m 2,6 C -2,0 C 25,7 km/h (4 Bft)
02.02.2023 05:12 3,9 C 3,3 C 92 % 1024,9 hPa 0,0 l/m 11,3 km/h (2 Bft) W-SW 247 0 min 0,0 UV-I 0 W/m 2,7 C -0,1 C 16,1 km/h (3 Bft)
02.02.2023 05:13 3,9 C 3,3 C 91 % 1024,9 hPa 0,0 l/m 14,5 km/h (3 Bft) W-SW 247 0 min 0,0 UV-I 0 W/m 2,6 C -2,0 C 24,1 km/h (4 Bft)
02.02.2023 05:14 3,9 C 3,3 C 91 % 1024,8 hPa 0,0 l/m 17,7 km/h (3 Bft) W-SW 247 0 min 0,0 UV-I 0 W/m 2,6 C -3,6 C 29,0 km/h (5 Bft)
02.02.2023 05:15 4,0 C 3,3 C 91 % 1024,8 hPa 0,0 l/m 12,9 km/h (3 Bft) SW 225 0 min 0,0 UV-I 0 W/m 2,7 C -1,0 C 20,9 km/h (4 Bft)
02.02.2023 05:16 3,9 C 3,3 C 91 % 1024,8 hPa 0,0 l/m 11,3 km/h (2 Bft) SW 225 0 min 0,0 UV-I 0 W/m 2,6 C -0,1 C 16,1 km/h (3 Bft)
02.02.2023 05:17 3,9 C 3,3 C 91 % 1024,9 hPa 0,0 l/m 11,3 km/h (2 Bft) SW 225 0 min 0,0 UV-I 0 W/m 2,6 C -0,1 C 16,1 km/h (3 Bft)
02.02.2023 05:18 4,0 C 3,3 C 92 % 1024,9 hPa 0,0 l/m 14,5 km/h (3 Bft) W-SW 247 0 min 0,0 UV-I 0 W/m 2,8 C -1,9 C 22,5 km/h (4 Bft)
02.02.2023 05:19 4,0 C 3,3 C 91 % 1024,9 hPa 0,0 l/m 9,7 km/h (2 Bft) W-SW 247 0 min 0,0 UV-I 0 W/m 2,7 C 1,2 C 14,5 km/h (3 Bft)
02.02.2023 05:20 3,9 C 3,3 C 92 % 1024,9 hPa 0,0 l/m 14,5 km/h (3 Bft) W-SW 247 0 min 0,0 UV-I 0 W/m 2,7 C -2,0 C 29,0 km/h (5 Bft)
02.02.2023 05:21 4,0 C 3,3 C 91 % 1024,9 hPa 0,0 l/m 12,9 km/h (3 Bft) S-SW 202 0 min 0,0 UV-I 0 W/m 2,7 C -1,0 C 16,1 km/h (3 Bft)
02.02.2023 05:22 4,0 C 3,3 C 92 % 1024,8 hPa 0,0 l/m 14,5 km/h (3 Bft) W 270 0 min 0,0 UV-I 0 W/m 2,8 C -1,9 C 20,9 km/h (4 Bft)
02.02.2023 05:23 4,0 C 3,3 C 92 % 1024,8 hPa 0,0 l/m 19,3 km/h (3 Bft) W 270 0 min 0,0 UV-I 0 W/m 2,8 C -4,2 C 29,0 km/h (5 Bft)
02.02.2023 05:24 4,0 C 3,3 C 92 % 1024,9 hPa 0,0 l/m 22,5 km/h (4 Bft) SW 225 0 min 0,0 UV-I 0 W/m 2,8 C -5,4 C 30,6 km/h (5 Bft)
02.02.2023 05:25 4,0 C 3,3 C 91 % 1024,8 hPa 0,0 l/m 12,9 km/h (3 Bft) W-SW 247 0 min 0,0 UV-I 0 W/m 2,7 C -1,0 C 25,7 km/h (4 Bft)
02.02.2023 05:26 4,0 C 3,3 C 92 % 1024,8 hPa 0,0 l/m 17,7 km/h (3 Bft) W-SW 247 0 min 0,0 UV-I 0 W/m 2,8 C -3,5 C 25,7 km/h (4 Bft)
02.02.2023 05:27 4,0 C 3,3 C 91 % 1025,0 hPa 0,0 l/m 12,9 km/h (3 Bft) SW 225 0 min 0,0 UV-I 0 W/m 2,7 C -1,0 C 19,3 km/h (3 Bft)
02.02.2023 05:28 4,0 C 3,3 C 92 % 1024,9 hPa 0,0 l/m 17,7 km/h (3 Bft) W 270 0 min 0,0 UV-I 0 W/m 2,8 C -3,5 C 25,7 km/h (4 Bft)
02.02.2023 05:29 4,0 C 3,3 C 92 % 1024,9 hPa 0,0 l/m 16,1 km/h (3 Bft) SW 225 0 min 0,0 UV-I 0 W/m 2,8 C -2,7 C 25,7 km/h (4 Bft)
02.02.2023 05:30 4,0 C 3,3 C 92 % 1024,9 hPa 0,0 l/m 16,1 km/h (3 Bft) W-SW 247 0 min 0,0 UV-I 0 W/m 2,8 C -2,7 C 33,8 km/h (5 Bft)
02.02.2023 05:31 4,0 C 3,3 C 92 % 1025,0 hPa 0,0 l/m 14,5 km/h (3 Bft) W-SW 247 0 min 0,0 UV-I 0 W/m 2,8 C -1,9 C 25,7 km/h (4 Bft)
02.02.2023 05:32 4,0 C 3,3 C 92 % 1025,0 hPa 0,0 l/m 17,7 km/h (3 Bft) W-SW 247 0 min 0,0 UV-I 0 W/m 2,8 C -3,5 C 27,4 km/h (4 Bft)
02.02.2023 05:33 4,0 C 3,3 C 91 % 1025,0 hPa 0,0 l/m 20,9 km/h (4 Bft) W-SW 247 0 min 0,0 UV-I 0 W/m 2,7 C -4,8 C 29,0 km/h (5 Bft)
02.02.2023 05:34 4,0 C 3,3 C 91 % 1025,0 hPa 0,0 l/m 19,3 km/h (3 Bft) SW 225 0 min 0,0 UV-I 0 W/m 2,7 C -4,2 C 29,0 km/h (5 Bft)
02.02.2023 05:35 4,0 C 3,3 C 92 % 1025,1 hPa 0,0 l/m 12,9 km/h (3 Bft) SW 225 0 min 0,0 UV-I 0 W/m 2,8 C -1,0 C 20,9 km/h (4 Bft)
02.02.2023 05:36 4,0 C 3,3 C 92 % 1025,1 hPa 0,0 l/m 20,9 km/h (4 Bft) W-SW 247 0 min 0,0 UV-I 0 W/m 2,8 C -4,8 C 32,2 km/h (5 Bft)
02.02.2023 05:37 4,0 C 3,3 C 92 % 1025,0 hPa 0,0 l/m 24,1 km/h (4 Bft) W 270 0 min 0,0 UV-I 0 W/m 2,8 C -6,0 C 33,8 km/h (5 Bft)
02.02.2023 05:38 4,0 C 3,3 C 92 % 1025,0 hPa 0,0 l/m 20,9 km/h (4 Bft) W-SW 247 0 min 0,0 UV-I 0 W/m 2,8 C -4,8 C 32,2 km/h (5 Bft)
02.02.2023 05:39 4,0 C 3,3 C 92 % 1025,0 hPa 0,0 l/m 19,3 km/h (3 Bft) W-SW 247 0 min 0,0 UV-I 0 W/m 2,8 C -4,2 C 29,0 km/h (5 Bft)
02.02.2023 05:40 4,0 C 3,3 C 92 % 1025,0 hPa 0,0 l/m 16,1 km/h (3 Bft) W-SW 247 0 min 0,0 UV-I 0 W/m 2,8 C -2,7 C 24,1 km/h (4 Bft)
02.02.2023 05:41 4,0 C 3,3 C 92 % 1025,0 hPa 0,0 l/m 17,7 km/h (3 Bft) W-SW 247 0 min 0,0 UV-I 0 W/m 2,8 C -3,5 C 29,0 km/h (5 Bft)
02.02.2023 05:42 4,0 C 3,3 C 92 % 1025,0 hPa 0,0 l/m 16,1 km/h (3 Bft) W-SW 247 0 min 0,0 UV-I 0 W/m 2,8 C -2,7 C 22,5 km/h (4 Bft)
02.02.2023 05:43 4,0 C 3,3 C 92 % 1025,0 hPa 0,0 l/m 20,9 km/h (4 Bft) W-SW 247 0 min 0,0 UV-I 0 W/m 2,8 C -4,8 C 29,0 km/h (5 Bft)
02.02.2023 05:44 4,0 C 3,3 C 92 % 1025,1 hPa 0,0 l/m 16,1 km/h (3 Bft) W 270 0 min 0,0 UV-I 0 W/m 2,8 C -2,7 C 25,7 km/h (4 Bft)
02.02.2023 05:45 4,1 C 3,3 C 92 % 1025,1 hPa 0,0 l/m 16,1 km/h (3 Bft) SW 225 0 min 0,0 UV-I 0 W/m 2,9 C -2,6 C 30,6 km/h (5 Bft)
02.02.2023 05:46 4,0 C 3,3 C 92 % 1025,1 hPa 0,0 l/m 11,3 km/h (2 Bft) S-SW 202 0 min 0,0 UV-I 0 W/m 2,8 C 0,1 C 16,1 km/h (3 Bft)
02.02.2023 05:47 4,0 C 3,3 C 91 % 1025,2 hPa 0,0 l/m 14,5 km/h (3 Bft) SW 225 0 min 0,0 UV-I 0 W/m 2,7 C -1,9 C 22,5 km/h (4 Bft)
02.02.2023 05:48 4,0 C 3,3 C 92 % 1025,1 hPa 0,0 l/m 16,1 km/h (3 Bft) W-SW 247 0 min 0,0 UV-I 0 W/m 2,8 C -2,7 C 25,7 km/h (4 Bft)
02.02.2023 05:49 4,0 C 3,3 C 92 % 1025,1 hPa 0,0 l/m 17,7 km/h (3 Bft) W-SW 247 0 min 0,0 UV-I 0 W/m 2,8 C -3,5 C 27,4 km/h (4 Bft)
02.02.2023 05:50 4,0 C 3,3 C 92 % 1025,2 hPa 0,0 l/m 17,7 km/h (3 Bft) W 270 0 min 0,0 UV-I 0 W/m 2,8 C -3,5 C 22,5 km/h (4 Bft)
02.02.2023 05:51 4,0 C 3,3 C 92 % 1025,1 hPa 0,0 l/m 17,7 km/h (3 Bft) SW 225 0 min 0,0 UV-I 0 W/m 2,8 C -3,5 C 22,5 km/h (4 Bft)
02.02.2023 05:52 4,0 C 3,3 C 91 % 1025,2 hPa 0,0 l/m 19,3 km/h (3 Bft) W 270 0 min 0,0 UV-I 0 W/m 2,7 C -4,2 C 27,4 km/h (4 Bft)
02.02.2023 05:53 4,0 C 3,3 C 92 % 1025,3 hPa 0,0 l/m 22,5 km/h (4 Bft) W-SW 247 0 min 0,0 UV-I 0 W/m 2,8 C -5,4 C 30,6 km/h (5 Bft)
02.02.2023 05:54 4,0 C 3,3 C 92 % 1025,2 hPa 0,0 l/m 16,1 km/h (3 Bft) W 270 0 min 0,0 UV-I 0 W/m 2,8 C -2,7 C 27,4 km/h (4 Bft)
02.02.2023 05:55 4,0 C 3,3 C 92 % 1025,1 hPa 0,0 l/m 14,5 km/h (3 Bft) W-SW 247 0 min 0,0 UV-I 0 W/m 2,8 C -1,9 C 20,9 km/h (4 Bft)
02.02.2023 05:56 4,0 C 3,3 C 92 % 1025,3 hPa 0,0 l/m 14,5 km/h (3 Bft) W-SW 247 0 min 0,0 UV-I 0 W/m 2,8 C -1,9 C 22,5 km/h (4 Bft)
02.02.2023 05:57 4,0 C 3,3 C 91 % 1025,2 hPa 0,0 l/m 19,3 km/h (3 Bft) W-SW 247 0 min 0,0 UV-I 0 W/m 2,7 C -4,2 C 27,4 km/h (4 Bft)
02.02.2023 05:58 4,0 C 3,3 C 92 % 1025,1 hPa 0,0 l/m 14,5 km/h (3 Bft) W-SW 247 0 min 0,0 UV-I 0 W/m 2,8 C -1,9 C 20,9 km/h (4 Bft)
02.02.2023 05:59 4,0 C 3,3 C 91 % 1025,1 hPa 0,0 l/m 12,9 km/h (3 Bft) W-SW 247 0 min 0,0 UV-I 0 W/m 2,7 C -1,0 C 22,5 km/h (4 Bft)
02.02.2023 06:00 4,0 C 3,3 C 92 % 1025,2 hPa 0,0 l/m 11,3 km/h (2 Bft) W-SW 247 0 min 0,0 UV-I 0 W/m 2,8 C 0,1 C 17,7 km/h (3 Bft)
02.02.2023 06:01 4,0 C 3,3 C 91 % 1025,2 hPa 0,0 l/m 11,3 km/h (2 Bft) W-SW 247 0 min 0,0 UV-I 0 W/m 2,7 C 0,1 C 17,7 km/h (3 Bft)
02.02.2023 06:02 4,0 C 3,3 C 92 % 1025,2 hPa 0,0 l/m 11,3 km/h (2 Bft) SW 225 0 min 0,0 UV-I 0 W/m 2,8 C 0,1 C 16,1 km/h (3 Bft)
02.02.2023 06:03 4,0 C 3,3 C 91 % 1025,2 hPa 0,0 l/m 12,9 km/h (3 Bft) W 270 0 min 0,0 UV-I 0 W/m 2,7 C -1,0 C 22,5 km/h (4 Bft)
02.02.2023 06:04 4,0 C 3,3 C 92 % 1025,2 hPa 0,0 l/m 19,3 km/h (3 Bft) W 270 0 min 0,0 UV-I 0 W/m 2,8 C -4,2 C 29,0 km/h (5 Bft)
02.02.2023 06:05 4,0 C 3,3 C 91 % 1025,2 hPa 0,0 l/m 12,9 km/h (3 Bft) W-SW 247 0 min 0,0 UV-I 0 W/m 2,7 C -1,0 C 17,7 km/h (3 Bft)
02.02.2023 06:06 4,0 C 3,3 C 92 % 1025,2 hPa 0,0 l/m 19,3 km/h (3 Bft) W-SW 247 0 min 0,0 UV-I 0 W/m 2,8 C -4,2 C 30,6 km/h (5 Bft)
02.02.2023 06:07 4,0 C 3,3 C 92 % 1025,1 hPa 0,0 l/m 16,1 km/h (3 Bft) SW 225 0 min 0,0 UV-I 0 W/m 2,8 C -2,7 C 22,5 km/h (4 Bft)
02.02.2023 06:08 4,0 C 3,3 C 92 % 1025,2 hPa 0,2 l/m 14,5 km/h (3 Bft) W 270 0 min 0,0 UV-I 0 W/m 2,8 C -1,9 C 22,5 km/h (4 Bft)
02.02.2023 06:09 4,0 C 3,3 C 92 % 1025,1 hPa 0,0 l/m 19,3 km/h (3 Bft) W-SW 247 0 min 0,0 UV-I 0 W/m 2,8 C -4,2 C 30,6 km/h (5 Bft)
02.02.2023 06:10 4,0 C 3,3 C 91 % 1025,0 hPa 0,0 l/m 12,9 km/h (3 Bft) SW 225 0 min 0,0 UV-I 0 W/m 2,7 C -1,0 C 24,1 km/h (4 Bft)
02.02.2023 06:11 3,9 C 3,3 C 91 % 1025,1 hPa 0,0 l/m 8,0 km/h (2 Bft) W-SW 247 0 min 0,0 UV-I 0 W/m 2,6 C 2,4 C 12,9 km/h (3 Bft)
02.02.2023 06:12 4,0 C 3,3 C 91 % 1025,1 hPa 0,0 l/m 16,1 km/h (3 Bft) SW 225 0 min 0,0 UV-I 0 W/m 2,7 C -2,7 C 24,1 km/h (4 Bft)
02.02.2023 06:13 4,0 C 3,3 C 91 % 1025,1 hPa 0,0 l/m 17,7 km/h (3 Bft) W-SW 247 0 min 0,0 UV-I 0 W/m 2,7 C -3,5 C 27,4 km/h (4 Bft)
02.02.2023 06:14 3,9 C 3,3 C 92 % 1025,2 hPa 0,0 l/m 14,5 km/h (3 Bft) SW 225 0 min 0,0 UV-I 0 W/m 2,7 C -2,0 C 20,9 km/h (4 Bft)
02.02.2023 06:15 3,9 C 3,3 C 92 % 1025,1 hPa 0,0 l/m 22,5 km/h (4 Bft) W 270 0 min 0,0 UV-I 0 W/m 2,7 C -5,6 C 35,4 km/h (5 Bft)
02.02.2023 06:16 3,9 C 3,3 C 92 % 1025,2 hPa 0,0 l/m 20,9 km/h (4 Bft) W-SW 247 0 min 0,0 UV-I 0 W/m 2,7 C -5,0 C 33,8 km/h (5 Bft)
02.02.2023 06:17 3,9 C 3,3 C 91 % 1025,1 hPa 0,0 l/m 16,1 km/h (3 Bft) W 270 0 min 0,0 UV-I 0 W/m 2,6 C -2,8 C 24,1 km/h (4 Bft)
02.02.2023 06:18 3,9 C 3,3 C 91 % 1025,1 hPa 0,0 l/m 17,7 km/h (3 Bft) W-SW 247 0 min 0,0 UV-I 0 W/m 2,6 C -3,6 C 25,7 km/h (4 Bft)
02.02.2023 06:19 3,9 C 3,3 C 91 % 1025,1 hPa 0,0 l/m 19,3 km/h (3 Bft) W-SW 247 0 min 0,0 UV-I 0 W/m 2,6 C -4,3 C 27,4 km/h (4 Bft)
02.02.2023 06:20 3,9 C 3,3 C 92 % 1025,3 hPa 0,0 l/m 16,1 km/h (3 Bft) W-SW 247 0 min 0,0 UV-I 0 W/m 2,7 C -2,8 C 25,7 km/h (4 Bft)
02.02.2023 06:21 3,9 C 3,3 C 91 % 1025,1 hPa 0,0 l/m 16,1 km/h (3 Bft) W-SW 247 0 min 0,0 UV-I 0 W/m 2,6 C -2,8 C 27,4 km/h (4 Bft)
02.02.2023 06:22 3,9 C 3,3 C 91 % 1025,1 hPa 0,0 l/m 16,1 km/h (3 Bft) W-SW 247 0 min 0,0 UV-I 0 W/m 2,6 C -2,8 C 25,7 km/h (4 Bft)
02.02.2023 06:23 3,9 C 3,3 C 91 % 1025,1 hPa 0,0 l/m 19,3 km/h (3 Bft) W-SW 247 0 min 0,0 UV-I 0 W/m 2,6 C -4,3 C 30,6 km/h (5 Bft)
02.02.2023 06:24 3,9 C 3,3 C 91 % 1025,1 hPa 0,0 l/m 17,7 km/h (3 Bft) W-SW 247 0 min 0,0 UV-I 0 W/m 2,6 C -3,6 C 29,0 km/h (5 Bft)
02.02.2023 06:25 3,9 C 3,3 C 91 % 1025,1 hPa 0,0 l/m 19,3 km/h (3 Bft) W-SW 247 0 min 0,0 UV-I 0 W/m 2,6 C -4,3 C 25,7 km/h (4 Bft)
02.02.2023 06:26 3,9 C 3,3 C 91 % 1025,2 hPa 0,0 l/m 19,3 km/h (3 Bft) SW 225 0 min 0,0 UV-I 0 W/m 2,6 C -4,3 C 30,6 km/h (5 Bft)
02.02.2023 06:27 3,9 C 3,3 C 91 % 1025,1 hPa 0,0 l/m 12,9 km/h (3 Bft) SW 225 0 min 0,0 UV-I 0 W/m 2,6 C -1,1 C 19,3 km/h (3 Bft)
02.02.2023 06:28 3,9 C 3,3 C 91 % 1025,1 hPa 0,0 l/m 12,9 km/h (3 Bft) W-SW 247 0 min 0,0 UV-I 0 W/m 2,6 C -1,1 C 25,7 km/h (4 Bft)
02.02.2023 06:29 3,9 C 3,3 C 91 % 1025,1 hPa 0,0 l/m 19,3 km/h (3 Bft) W-SW 247 0 min 0,0 UV-I 0 W/m 2,6 C -4,3 C 27,4 km/h (4 Bft)
02.02.2023 06:30 3,9 C 3,3 C 91 % 1025,2 hPa 0,0 l/m 16,1 km/h (3 Bft) W-SW 247 0 min 0,0 UV-I 0 W/m 2,6 C -2,8 C 24,1 km/h (4 Bft)
02.02.2023 06:31 3,9 C 3,3 C 91 % 1025,1 hPa 0,0 l/m 14,5 km/h (3 Bft) SW 225 0 min 0,0 UV-I 0 W/m 2,6 C -2,0 C 22,5 km/h (4 Bft)
02.02.2023 06:32 3,9 C 3,3 C 91 % 1025,2 hPa 0,0 l/m 17,7 km/h (3 Bft) W-SW 247 0 min 0,0 UV-I 0 W/m 2,6 C -3,6 C 24,1 km/h (4 Bft)
02.02.2023 06:33 3,9 C 3,3 C 91 % 1025,2 hPa 0,0 l/m 12,9 km/h (3 Bft) W-SW 247 0 min 0,0 UV-I 0 W/m 2,6 C -1,1 C 22,5 km/h (4 Bft)
02.02.2023 06:34 3,9 C 3,3 C 91 % 1025,2 hPa 0,0 l/m 12,9 km/h (3 Bft) W-SW 247 0 min 0,0 UV-I 0 W/m 2,6 C -1,1 C 19,3 km/h (3 Bft)
02.02.2023 06:35 3,9 C 3,3 C 91 % 1025,3 hPa 0,0 l/m 19,3 km/h (3 Bft) W-SW 247 0 min 0,0 UV-I 0 W/m 2,6 C -4,3 C 27,4 km/h (4 Bft)
02.02.2023 06:36 3,9 C 3,3 C 91 % 1025,2 hPa 0,0 l/m 24,1 km/h (4 Bft) W 270 0 min 0,0 UV-I 0 W/m 2,6 C -6,1 C 29,0 km/h (5 Bft)
02.02.2023 06:37 3,9 C 3,3 C 91 % 1025,2 hPa 0,0 l/m 19,3 km/h (3 Bft) SW 225 0 min 0,0 UV-I 0 W/m 2,6 C -4,3 C 37,0 km/h (5 Bft)
02.02.2023 06:38 3,9 C 3,3 C 91 % 1025,3 hPa 0,0 l/m 20,9 km/h (4 Bft) W-SW 247 0 min 0,0 UV-I 0 W/m 2,6 C -5,0 C 30,6 km/h (5 Bft)
02.02.2023 06:39 3,9 C 3,3 C 91 % 1025,3 hPa 0,0 l/m 14,5 km/h (3 Bft) W-SW 247 0 min 0,0 UV-I 0 W/m 2,6 C -2,0 C 24,1 km/h (4 Bft)
02.02.2023 06:40 3,9 C 3,3 C 91 % 1025,3 hPa 0,0 l/m 22,5 km/h (4 Bft) W-SW 247 0 min 0,0 UV-I 0 W/m 2,6 C -5,6 C 32,2 km/h (5 Bft)
02.02.2023 06:41 3,9 C 3,3 C 91 % 1025,4 hPa 0,0 l/m 19,3 km/h (3 Bft) W-SW 247 0 min 0,0 UV-I 0 W/m 2,6 C -4,3 C 29,0 km/h (5 Bft)
02.02.2023 06:42 3,9 C 3,3 C 91 % 1025,3 hPa 0,0 l/m 16,1 km/h (3 Bft) SW 225 0 min 0,0 UV-I 0 W/m 2,6 C -2,8 C 27,4 km/h (4 Bft)
02.02.2023 06:43 3,9 C 3,3 C 91 % 1025,4 hPa 0,0 l/m 19,3 km/h (3 Bft) W 270 0 min 0,0 UV-I 0 W/m 2,6 C -4,3 C 24,1 km/h (4 Bft)
02.02.2023 06:44 3,9 C 3,3 C 91 % 1025,2 hPa 0,0 l/m 19,3 km/h (3 Bft) W 270 0 min 0,0 UV-I 0 W/m 2,6 C -4,3 C 27,4 km/h (4 Bft)
02.02.2023 06:45 3,9 C 3,3 C 91 % 1025,4 hPa 0,0 l/m 19,3 km/h (3 Bft) W-SW 247 0 min 0,0 UV-I 0 W/m 2,6 C -4,3 C 41,8 km/h (6 Bft)
02.02.2023 06:46 3,9 C 3,3 C 91 % 1025,3 hPa 0,0 l/m 19,3 km/h (3 Bft) W-SW 247 0 min 0,0 UV-I 0 W/m 2,6 C -4,3 C 27,4 km/h (4 Bft)
02.02.2023 06:47 3,9 C 3,3 C 91 % 1025,4 hPa 0,0 l/m 16,1 km/h (3 Bft) W 270 0 min 0,0 UV-I 0 W/m 2,6 C -2,8 C 41,8 km/h (6 Bft)
02.02.2023 06:48 3,9 C 3,3 C 91 % 1025,4 hPa 0,0 l/m 20,9 km/h (4 Bft) W-SW 247 0 min 0,0 UV-I 0 W/m 2,6 C -5,0 C 30,6 km/h (5 Bft)
02.02.2023 06:49 3,9 C 3,3 C 91 % 1025,4 hPa 0,0 l/m 22,5 km/h (4 Bft) W 270 0 min 0,0 UV-I 0 W/m 2,6 C -5,6 C 37,0 km/h (5 Bft)
02.02.2023 06:50 3,9 C 3,3 C 91 % 1025,4 hPa 0,0 l/m 14,5 km/h (3 Bft) SW 225 0 min 0,0 UV-I 0 W/m 2,6 C -2,0 C 22,5 km/h (4 Bft)
02.02.2023 06:51 3,9 C 3,3 C 91 % 1025,4 hPa 0,0 l/m 16,1 km/h (3 Bft) SW 225 0 min 0,0 UV-I 0 W/m 2,6 C -2,8 C 27,4 km/h (4 Bft)
02.02.2023 06:52 3,9 C 3,3 C 91 % 1025,4 hPa 0,0 l/m 17,7 km/h (3 Bft) W-SW 247 0 min 0,0 UV-I 0 W/m 2,6 C -3,6 C 30,6 km/h (5 Bft)
02.02.2023 06:53 3,9 C 3,3 C 91 % 1025,4 hPa 0,0 l/m 20,9 km/h (4 Bft) W-SW 247 0 min 0,0 UV-I 0 W/m 2,6 C -5,0 C 38,6 km/h (5 Bft)
02.02.2023 06:54 3,9 C 3,3 C 91 % 1025,4 hPa 0,0 l/m 22,5 km/h (4 Bft) SW 225 0 min 0,0 UV-I 0 W/m 2,6 C -5,6 C 30,6 km/h (5 Bft)
02.02.2023 06:55 3,9 C 3,3 C 91 % 1025,4 hPa 0,0 l/m 16,1 km/h (3 Bft) W 270 0 min 0,0 UV-I 0 W/m 2,6 C -2,8 C 29,0 km/h (5 Bft)
02.02.2023 06:56 3,9 C 3,3 C 91 % 1025,4 hPa 0,0 l/m 16,1 km/h (3 Bft) SW 225 0 min 0,0 UV-I 0 W/m 2,6 C -2,8 C 22,5 km/h (4 Bft)
02.02.2023 06:57 3,9 C 3,3 C 91 % 1025,3 hPa 0,0 l/m 19,3 km/h (3 Bft) W-SW 247 0 min 0,0 UV-I 0 W/m 2,6 C -4,3 C 29,0 km/h (5 Bft)
02.02.2023 06:58 3,9 C 3,3 C 91 % 1025,4 hPa 0,0 l/m 12,9 km/h (3 Bft) W-SW 247 0 min 0,0 UV-I 0 W/m 2,6 C -1,1 C 19,3 km/h (3 Bft)
02.02.2023 06:59 3,9 C 3,3 C 91 % 1025,3 hPa 0,0 l/m 19,3 km/h (3 Bft) W 270 0 min 0,0 UV-I 0 W/m 2,6 C -4,3 C 30,6 km/h (5 Bft)
02.02.2023 07:00 3,9 C 3,3 C 91 % 1025,3 hPa 0,0 l/m 25,7 km/h (4 Bft) W 270 0 min 0,0 UV-I 0 W/m 2,6 C -6,7 C 38,6 km/h (5 Bft)
02.02.2023 07:01 3,9 C 3,3 C 91 % 1025,1 hPa 0,0 l/m 14,5 km/h (3 Bft) W 270 0 min 0,0 UV-I 0 W/m 2,6 C -2,0 C 25,7 km/h (4 Bft)
02.02.2023 07:02 3,9 C 3,3 C 91 % 1025,2 hPa 0,0 l/m 14,5 km/h (3 Bft) W-SW 247 0 min 0,0 UV-I 0 W/m 2,6 C -2,0 C 19,3 km/h (3 Bft)
02.02.2023 07:03 3,9 C 3,3 C 91 % 1025,3 hPa 0,0 l/m 17,7 km/h (3 Bft) W-SW 247 0 min 0,0 UV-I 0 W/m 2,6 C -3,6 C 29,0 km/h (5 Bft)
02.02.2023 07:04 3,9 C 3,3 C 91 % 1025,2 hPa 0,0 l/m 19,3 km/h (3 Bft) W-SW 247 0 min 0,0 UV-I 0 W/m 2,6 C -4,3 C 30,6 km/h (5 Bft)
02.02.2023 07:05 3,9 C 3,3 C 91 % 1025,3 hPa 0,0 l/m 14,5 km/h (3 Bft) SW 225 0 min 0,0 UV-I 0 W/m 2,6 C -2,0 C 25,7 km/h (4 Bft)
02.02.2023 07:06 3,9 C 3,3 C 91 % 1025,3 hPa 0,0 l/m 20,9 km/h (4 Bft) W 270 0 min 0,0 UV-I 0 W/m 2,6 C -5,0 C 33,8 km/h (5 Bft)
02.02.2023 07:07 3,9 C 3,3 C 91 % 1025,3 hPa 0,0 l/m 16,1 km/h (3 Bft) SW 225 0 min 0,0 UV-I 0 W/m 2,6 C -2,8 C 27,4 km/h (4 Bft)
02.02.2023 07:08 3,9 C 3,3 C 91 % 1025,2 hPa 0,0 l/m 20,9 km/h (4 Bft) SW 225 0 min 0,0 UV-I 0 W/m 2,6 C -5,0 C 33,8 km/h (5 Bft)
02.02.2023 07:09 3,8 C 3,3 C 91 % 1025,1 hPa 0,0 l/m 17,7 km/h (3 Bft) W 270 0 min 0,0 UV-I 0 W/m 2,5 C -3,7 C 25,7 km/h (4 Bft)
02.02.2023 07:10 3,8 C 3,3 C 91 % 1025,2 hPa 0,0 l/m 16,1 km/h (3 Bft) SW 225 0 min 0,0 UV-I 0 W/m 2,5 C -2,9 C 24,1 km/h (4 Bft)
02.02.2023 07:11 3,9 C 3,3 C 91 % 1025,0 hPa 0,0 l/m 17,7 km/h (3 Bft) SW 225 0 min 0,0 UV-I 0 W/m 2,6 C -3,6 C 29,0 km/h (5 Bft)
02.02.2023 07:12 3,9 C 3,3 C 91 % 1025,1 hPa 0,0 l/m 14,5 km/h (3 Bft) W-SW 247 0 min 0,0 UV-I 0 W/m 2,6 C -2,0 C 24,1 km/h (4 Bft)
02.02.2023 07:13 3,9 C 3,3 C 91 % 1025,0 hPa 0,0 l/m 20,9 km/h (4 Bft) W-SW 247 0 min 0,0 UV-I 0 W/m 2,6 C -5,0 C 30,6 km/h (5 Bft)
02.02.2023 07:14 3,9 C 3,3 C 91 % 1025,1 hPa 0,2 l/m 17,7 km/h (3 Bft) SW 225 0 min 0,0 UV-I 0 W/m 2,6 C -3,6 C 29,0 km/h (5 Bft)
02.02.2023 07:15 3,9 C 3,3 C 91 % 1025,1 hPa 0,0 l/m 19,3 km/h (3 Bft) W-SW 247 0 min 0,0 UV-I 0 W/m 2,6 C -4,3 C 27,4 km/h (4 Bft)
02.02.2023 07:16 3,9 C 3,3 C 91 % 1025,2 hPa 0,0 l/m 11,3 km/h (2 Bft) SW 225 0 min 0,0 UV-I 0 W/m 2,6 C -0,1 C 20,9 km/h (4 Bft)
02.02.2023 07:17 3,8 C 3,3 C 91 % 1025,1 hPa 0,0 l/m 16,1 km/h (3 Bft) SW 225 0 min 0,0 UV-I 0 W/m 2,5 C -2,9 C 22,5 km/h (4 Bft)
02.02.2023 07:18 3,9 C 3,3 C 91 % 1025,1 hPa 0,0 l/m 16,1 km/h (3 Bft) W-SW 247 0 min 0,0 UV-I 0 W/m 2,6 C -2,8 C 24,1 km/h (4 Bft)
02.02.2023 07:19 3,9 C 3,3 C 91 % 1025,1 hPa 0,0 l/m 14,5 km/h (3 Bft) W-SW 247 0 min 0,0 UV-I 0 W/m 2,6 C -2,0 C 20,9 km/h (4 Bft)
02.02.2023 07:20 3,9 C 3,3 C 91 % 1025,1 hPa 0,0 l/m 20,9 km/h (4 Bft) W 270 0 min 0,0 UV-I 0 W/m 2,6 C -5,0 C 30,6 km/h (5 Bft)
02.02.2023 07:21 3,8 C 3,3 C 91 % 1025,2 hPa 0,0 l/m 20,9 km/h (4 Bft) SW 225 0 min 0,0 UV-I 0 W/m 2,5 C -5,1 C 29,0 km/h (5 Bft)
02.02.2023 07:22 3,9 C 3,3 C 91 % 1025,2 hPa 0,0 l/m 19,3 km/h (3 Bft) SW 225 0 min 0,0 UV-I 0 W/m 2,6 C -4,3 C 30,6 km/h (5 Bft)
02.02.2023 07:23 3,9 C 3,3 C 91 % 1025,1 hPa 0,0 l/m 16,1 km/h (3 Bft) SW 225 0 min 0,0 UV-I 0 W/m 2,6 C -2,8 C 22,5 km/h (4 Bft)
02.02.2023 07:24 3,9 C 3,3 C 91 % 1025,1 hPa 0,0 l/m 16,1 km/h (3 Bft) SW 225 0 min 0,0 UV-I 0 W/m 2,6 C -2,8 C 24,1 km/h (4 Bft)
02.02.2023 07:25 3,9 C 3,3 C 91 % 1025,1 hPa 0,0 l/m 16,1 km/h (3 Bft) SW 225 0 min 0,0 UV-I 0 W/m 2,6 C -2,8 C 25,7 km/h (4 Bft)
02.02.2023 07:26 3,9 C 3,3 C 91 % 1025,0 hPa 0,0 l/m 17,7 km/h (3 Bft) W-SW 247 0 min 0,0 UV-I 0 W/m 2,6 C -3,6 C 22,5 km/h (4 Bft)
02.02.2023 07:27 3,9 C 3,3 C 91 % 1025,1 hPa 0,0 l/m 20,9 km/h (4 Bft) W-SW 247 0 min 0,0 UV-I 0 W/m 2,6 C -5,0 C 35,4 km/h (5 Bft)
02.02.2023 07:28 3,9 C 3,3 C 91 % 1025,2 hPa 0,0 l/m 22,5 km/h (4 Bft) SW 225 0 min 0,0 UV-I 0 W/m 2,6 C -5,6 C 33,8 km/h (5 Bft)
02.02.2023 07:29 3,9 C 3,3 C 91 % 1025,1 hPa 0,0 l/m 14,5 km/h (3 Bft) W-SW 247 0 min 0,0 UV-I 0 W/m 2,6 C -2,0 C 27,4 km/h (4 Bft)
02.02.2023 07:30 3,9 C 3,3 C 91 % 1025,3 hPa 0,0 l/m 19,3 km/h (3 Bft) W-SW 247 0 min 0,0 UV-I 0 W/m 2,6 C -4,3 C 24,1 km/h (4 Bft)
02.02.2023 07:31 3,9 C 3,3 C 91 % 1025,1 hPa 0,0 l/m 19,3 km/h (3 Bft) W 270 0 min 0,0 UV-I 0 W/m 2,6 C -4,3 C 27,4 km/h (4 Bft)
02.02.2023 07:32 3,9 C 3,3 C 91 % 1025,3 hPa 0,0 l/m 16,1 km/h (3 Bft) SW 225 0 min 0,0 UV-I 0 W/m 2,6 C -2,8 C 32,2 km/h (5 Bft)
02.02.2023 07:33 3,9 C 3,3 C 91 % 1025,1 hPa 0,0 l/m 19,3 km/h (3 Bft) SW 225 0 min 0,0 UV-I 0 W/m 2,6 C -4,3 C 29,0 km/h (5 Bft)
02.02.2023 07:34 3,8 C 3,3 C 91 % 1025,2 hPa 0,0 l/m 14,5 km/h (3 Bft) W-SW 247 0 min 0,0 UV-I 0 W/m 2,5 C -2,1 C 25,7 km/h (4 Bft)
02.02.2023 07:35 3,9 C 3,3 C 91 % 1025,2 hPa 0,0 l/m 12,9 km/h (3 Bft) W 270 0 min 0,0 UV-I 0 W/m 2,6 C -1,1 C 17,7 km/h (3 Bft)
02.02.2023 07:36 3,9 C 3,3 C 91 % 1025,2 hPa 0,0 l/m 12,9 km/h (3 Bft) SW 225 0 min 0,0 UV-I 0 W/m 2,6 C -1,1 C 17,7 km/h (3 Bft)
02.02.2023 07:37 3,9 C 3,3 C 91 % 1025,2 hPa 0,0 l/m 9,7 km/h (2 Bft) SW 225 0 min 0,0 UV-I 0 W/m 2,6 C 1,1 C 16,1 km/h (3 Bft)
02.02.2023 07:38 3,9 C 3,3 C 91 % 1025,3 hPa 0,0 l/m 11,3 km/h (2 Bft) W-SW 247 0 min 0,0 UV-I 0 W/m 2,6 C -0,1 C 16,1 km/h (3 Bft)
02.02.2023 07:39 3,9 C 3,3 C 91 % 1025,4 hPa 0,0 l/m 16,1 km/h (3 Bft) SW 225 0 min 0,0 UV-I 0 W/m 2,6 C -2,8 C 24,1 km/h (4 Bft)
02.02.2023 07:40 3,9 C 3,3 C 91 % 1025,4 hPa 0,0 l/m 16,1 km/h (3 Bft) SW 225 0 min 0,0 UV-I 0 W/m 2,6 C -2,8 C 29,0 km/h (5 Bft)
02.02.2023 07:41 3,9 C 3,3 C 91 % 1025,3 hPa 0,0 l/m 16,1 km/h (3 Bft) SW 225 0 min 0,0 UV-I 0 W/m 2,6 C -2,8 C 30,6 km/h (5 Bft)
02.02.2023 07:42 3,9 C 3,3 C 91 % 1025,4 hPa 0,0 l/m 14,5 km/h (3 Bft) W-SW 247 0 min 0,0 UV-I 0 W/m 2,6 C -2,0 C 22,5 km/h (4 Bft)
02.02.2023 07:43 3,9 C 3,3 C 91 % 1025,2 hPa 0,0 l/m 12,9 km/h (3 Bft) W-SW 247 0 min 0,0 UV-I 0 W/m 2,6 C -1,1 C 22,5 km/h (4 Bft)
02.02.2023 07:51 3,9 C 3,3 C 91 % 1025,4 hPa 0,0 l/m 15,5 km/h (3 Bft) SW 234 0 min 0,0 UV-I 0 W/m 2,6 C -2,5 C 27,4 km/h (4 Bft)
02.02.2023 07:54 3,9 C 3,3 C 91 % 1025,4 hPa 0,0 l/m 14,5 km/h (3 Bft) SW 219 0 min 0,0 UV-I 0 W/m 2,6 C -2,0 C 25,7 km/h (4 Bft)
02.02.2023 07:57 3,9 C 3,3 C 91 % 1025,4 hPa 0,0 l/m 17,7 km/h (3 Bft) W 262 0 min 0,0 UV-I 0 W/m 2,6 C -3,6 C 35,4 km/h (5 Bft)
02.02.2023 08:00 3,9 C 3,3 C 91 % 1025,6 hPa 0,0 l/m 13,1 km/h (3 Bft) SW 215 0 min 0,0 UV-I 0 W/m 2,6 C -1,2 C 24,1 km/h (4 Bft)
02.02.2023 08:03 3,9 C 3,3 C 91 % 1025,6 hPa 0,0 l/m 16,4 km/h (3 Bft) W-SW 250 0 min 0,0 UV-I 0 W/m 2,6 C -3,0 C 33,8 km/h (5 Bft)
02.02.2023 08:06 3,9 C 3,3 C 91 % 1025,7 hPa 0,0 l/m 15,3 km/h (3 Bft) S 180 0 min 0,0 UV-I 0 W/m 2,6 C -2,4 C 25,7 km/h (4 Bft)
02.02.2023 08:09 3,9 C 3,3 C 91 % 1025,8 hPa 0,0 l/m 10,5 km/h (2 Bft) SW 215 0 min 0,0 UV-I 0 W/m 2,6 C 0,5 C 19,3 km/h (3 Bft)
02.02.2023 08:12 3,9 C 3,3 C 91 % 1025,8 hPa 0,0 l/m 16,3 km/h (3 Bft) W 261 0 min 0,0 UV-I 0 W/m 2,6 C -2,9 C 25,7 km/h (4 Bft)
02.02.2023 08:15 3,9 C 3,3 C 91 % 1025,7 hPa 0,0 l/m 11,1 km/h (2 Bft) SW 217 0 min 0,0 UV-I 0 W/m 2,6 C 0,1 C 20,9 km/h (4 Bft)
02.02.2023 08:18 3,8 C 3,3 C 91 % 1025,9 hPa 0,0 l/m 7,2 km/h (2 Bft) W 266 0 min 0,0 UV-I 0 W/m 2,5 C 3,1 C 12,9 km/h (3 Bft)
02.02.2023 08:21 3,9 C 3,3 C 91 % 1025,9 hPa 0,0 l/m 14,3 km/h (3 Bft) W-SW 256 0 min 0,0 UV-I 0 W/m 2,6 C -1,9 C 25,7 km/h (4 Bft)
02.02.2023 08:24 3,9 C 3,3 C 91 % 1025,9 hPa 0,0 l/m 8,2 km/h (2 Bft) W-SW 240 0 min 0,0 UV-I 0 W/m 2,6 C 2,3 C 17,7 km/h (3 Bft)
02.02.2023 08:27 3,9 C 3,3 C 91 % 1025,8 hPa 0,0 l/m 13,8 km/h (3 Bft) S-SW 196 0 min 0,0 UV-I 0 W/m 2,6 C -1,6 C 27,4 km/h (4 Bft)
02.02.2023 08:30 3,9 C 3,3 C 91 % 1025,9 hPa 0,0 l/m 11,7 km/h (2 Bft) S-SW 205 0 min 0,0 UV-I 0 W/m 2,6 C -0,3 C 22,5 km/h (4 Bft)
02.02.2023 08:33 3,9 C 3,3 C 91 % 1025,8 hPa 0,0 l/m 8,8 km/h (2 Bft) W-SW 243 0 min 0,0 UV-I 3 W/m 2,6 C 1,8 C 20,9 km/h (4 Bft)
02.02.2023 08:36 3,9 C 3,3 C 91 % 1025,8 hPa 0,0 l/m 10,2 km/h (2 Bft) SW 221 0 min 0,0 UV-I 7 W/m 2,6 C 0,7 C 24,1 km/h (4 Bft)
02.02.2023 08:39 3,9 C 3,3 C 91 % 1025,9 hPa 0,0 l/m 10,5 km/h (2 Bft) W-SW 255 0 min 0,0 UV-I 6 W/m 2,6 C 0,5 C 17,7 km/h (3 Bft)
02.02.2023 08:42 3,9 C 3,3 C 91 % 1026,0 hPa 0,0 l/m 12,5 km/h (3 Bft) W-SW 247 0 min 0,0 UV-I 6 W/m 2,6 C -0,8 C 20,9 km/h (4 Bft)
02.02.2023 08:45 3,8 C 3,3 C 91 % 1026,0 hPa 0,0 l/m 14,1 km/h (3 Bft) W-SW 242 0 min 0,0 UV-I 8 W/m 2,5 C -1,9 C 25,7 km/h (4 Bft)
02.02.2023 08:48 3,9 C 3,3 C 91 % 1025,7 hPa 0,0 l/m 11,8 km/h (2 Bft) SW 223 0 min 0,0 UV-I 10 W/m 2,6 C -0,4 C 30,6 km/h (5 Bft)
02.02.2023 08:51 3,8 C 3,3 C 91 % 1025,9 hPa 0,0 l/m 12,9 km/h (3 Bft) W-SW 246 0 min 0,0 UV-I 13 W/m 2,5 C -1,2 C 24,1 km/h (4 Bft)
02.02.2023 08:54 3,8 C 3,3 C 91 % 1026,1 hPa 0,0 l/m 13,0 km/h (3 Bft) W-SW 249 0 min 0,0 UV-I 13 W/m 2,5 C -1,2 C 25,7 km/h (4 Bft)
02.02.2023 08:57 3,9 C 3,3 C 91 % 1026,1 hPa 0,0 l/m 9,2 km/h (2 Bft) W-SW 246 0 min 0,0 UV-I 15 W/m 2,6 C 1,5 C 17,7 km/h (3 Bft)
02.02.2023 09:00 3,9 C 3,3 C 91 % 1026,2 hPa 0,0 l/m 13,2 km/h (3 Bft) SW 232 0 min 0,0 UV-I 11 W/m 2,6 C -1,2 C 25,7 km/h (4 Bft)
02.02.2023 09:03 3,9 C 3,3 C 91 % 1026,3 hPa 0,0 l/m 15,6 km/h (3 Bft) S-SW 207 0 min 0,0 UV-I 7 W/m 2,6 C -2,6 C 30,6 km/h (5 Bft)
02.02.2023 09:06 3,9 C 3,3 C 91 % 1026,4 hPa 0,0 l/m 14,1 km/h (3 Bft) W 277 0 min 0,0 UV-I 7 W/m 2,6 C -1,8 C 24,1 km/h (4 Bft)
02.02.2023 09:09 3,9 C 3,3 C 91 % 1026,3 hPa 0,0 l/m 10,4 km/h (2 Bft) SW 219 0 min 0,0 UV-I 9 W/m 2,6 C 0,6 C 22,5 km/h (4 Bft)
02.02.2023 09:12 3,9 C 3,3 C 91 % 1026,3 hPa 0,0 l/m 13,2 km/h (3 Bft) W-SW 240 0 min 0,0 UV-I 10 W/m 2,6 C -1,2 C 25,7 km/h (4 Bft)
02.02.2023 09:15 3,9 C 3,3 C 91 % 1026,4 hPa 0,0 l/m 15,5 km/h (3 Bft) SW 236 0 min 0,0 UV-I 7 W/m 2,6 C -2,5 C 30,6 km/h (5 Bft)
02.02.2023 09:18 3,9 C 3,3 C 91 % 1026,2 hPa 0,0 l/m 13,7 km/h (3 Bft) S 190 0 min 0,0 UV-I 7 W/m 2,6 C -1,5 C 29,0 km/h (5 Bft)
02.02.2023 09:21 3,9 C 3,3 C 91 % 1026,3 hPa 0,0 l/m 12,3 km/h (3 Bft) W-SW 242 0 min 0,0 UV-I 7 W/m 2,6 C -0,7 C 22,5 km/h (4 Bft)
02.02.2023 09:24 3,9 C 3,3 C 91 % 1026,1 hPa 0,0 l/m 9,0 km/h (2 Bft) SW 229 0 min 0,0 UV-I 6 W/m 2,6 C 1,6 C 19,3 km/h (3 Bft)
02.02.2023 09:27 3,9 C 3,3 C 91 % 1026,1 hPa 0,0 l/m 7,4 km/h (2 Bft) W-SW 242 0 min 0,0 UV-I 6 W/m 2,6 C 3,0 C 17,7 km/h (3 Bft)
02.02.2023 09:30 3,9 C 3,3 C 91 % 1026,1 hPa 0,0 l/m 14,1 km/h (3 Bft) W-SW 250 0 min 0,0 UV-I 8 W/m 2,6 C -1,8 C 27,4 km/h (4 Bft)
02.02.2023 09:33 3,9 C 3,3 C 92 % 1026,1 hPa 0,0 l/m 14,6 km/h (3 Bft) SW 219 0 min 0,0 UV-I 6 W/m 2,7 C -2,0 C 27,4 km/h (4 Bft)
02.02.2023 09:36 3,9 C 3,3 C 92 % 1026,2 hPa 0,0 l/m 11,3 km/h (2 Bft) W-SW 245 0 min 0,0 UV-I 8 W/m 2,7 C -0,1 C 17,7 km/h (3 Bft)
02.02.2023 09:39 3,9 C 3,3 C 92 % 1026,2 hPa 0,0 l/m 9,6 km/h (2 Bft) SW 222 0 min 0,0 UV-I 18 W/m 2,7 C 1,2 C 19,3 km/h (3 Bft)
02.02.2023 09:42 3,9 C 3,3 C 92 % 1026,3 hPa 0,0 l/m 9,9 km/h (2 Bft) S-SW 199 0 min 0,0 UV-I 27 W/m 2,7 C 0,9 C 17,7 km/h (3 Bft)
02.02.2023 09:45 4,0 C 3,3 C 92 % 1026,4 hPa 0,0 l/m 11,5 km/h (2 Bft) SW 214 0 min 0,0 UV-I 17 W/m 2,8 C -0,1 C 20,9 km/h (4 Bft)
02.02.2023 09:48 4,0 C 3,3 C 92 % 1026,4 hPa 0,0 l/m 12,7 km/h (3 Bft) W-SW 243 0 min 0,0 UV-I 22 W/m 2,8 C -0,8 C 22,5 km/h (4 Bft)
02.02.2023 09:51 4,0 C 3,3 C 92 % 1026,5 hPa 0,0 l/m 16,4 km/h (3 Bft) W 274 0 min 0,0 UV-I 22 W/m 2,8 C -2,8 C 37,0 km/h (5 Bft)
02.02.2023 09:54 4,0 C 3,3 C 92 % 1026,5 hPa 0,0 l/m 10,6 km/h (2 Bft) S-SW 209 0 min 0,0 UV-I 22 W/m 2,8 C 0,5 C 20,9 km/h (4 Bft)
02.02.2023 09:57 4,0 C 3,3 C 92 % 1026,6 hPa 0,0 l/m 11,7 km/h (2 Bft) W-SW 247 0 min 0,0 UV-I 23 W/m 2,8 C -0,2 C 29,0 km/h (5 Bft)
02.02.2023 10:00 4,0 C 3,3 C 92 % 1026,8 hPa 0,2 l/m 13,2 km/h (3 Bft) S-SW 212 0 min 0,0 UV-I 18 W/m 2,8 C -1,1 C 24,1 km/h (4 Bft)
02.02.2023 10:03 4,1 C 3,3 C 92 % 1026,7 hPa 0,0 l/m 14,6 km/h (3 Bft) W-SW 237 0 min 0,0 UV-I 35 W/m 2,9 C -1,8 C 25,7 km/h (4 Bft)
02.02.2023 10:06 4,1 C 3,3 C 92 % 1026,6 hPa 0,0 l/m 12,2 km/h (2 Bft) SW 214 0 min 0,0 UV-I 25 W/m 2,9 C -0,4 C 22,5 km/h (4 Bft)
02.02.2023 10:09 4,1 C 3,9 C 92 % 1026,7 hPa 0,0 l/m 8,8 km/h (2 Bft) W 261 0 min 0,0 UV-I 33 W/m 2,9 C 2,0 C 17,7 km/h (3 Bft)
02.02.2023 10:12 4,1 C 3,9 C 92 % 1026,7 hPa 0,0 l/m 12,7 km/h (3 Bft) W 259 0 min 0,0 UV-I 28 W/m 2,9 C -0,7 C 24,1 km/h (4 Bft)
02.02.2023 10:15 4,1 C 3,9 C 92 % 1026,8 hPa 0,0 l/m 9,7 km/h (2 Bft) SW 229 0 min 0,0 UV-I 22 W/m 2,9 C 1,3 C 19,3 km/h (3 Bft)
02.02.2023 10:18 4,1 C 3,9 C 92 % 1026,8 hPa 0,0 l/m 7,0 km/h (2 Bft) SW 234 0 min 0,0 UV-I 30 W/m 2,9 C 3,6 C 16,1 km/h (3 Bft)
02.02.2023 10:21 4,2 C 3,9 C 92 % 1026,8 hPa 0,0 l/m 13,7 km/h (3 Bft) SW 224 0 min 0,0 UV-I 31 W/m 3,0 C -1,2 C 20,9 km/h (4 Bft)
02.02.2023 10:24 4,1 C 3,9 C 92 % 1026,8 hPa 0,0 l/m 10,4 km/h (2 Bft) SW 231 0 min 0,0 UV-I 32 W/m 2,9 C 0,8 C 20,9 km/h (4 Bft)
02.02.2023 10:27 4,2 C 3,9 C 92 % 1026,9 hPa 0,0 l/m 10,5 km/h (2 Bft) SW 234 0 min 0,0 UV-I 49 W/m 3,0 C 0,8 C 22,5 km/h (4 Bft)
02.02.2023 10:30 4,2 C 3,9 C 92 % 1026,9 hPa 0,0 l/m 10,6 km/h (2 Bft) W-SW 238 0 min 0,0 UV-I 40 W/m 3,0 C 0,8 C 20,9 km/h (4 Bft)
02.02.2023 10:33 4,2 C 3,9 C 92 % 1027,0 hPa 0,0 l/m 12,8 km/h (3 Bft) SW 232 0 min 0,0 UV-I 39 W/m 3,0 C -0,7 C 30,6 km/h (5 Bft)
02.02.2023 10:36 4,2 C 3,9 C 92 % 1026,9 hPa 0,0 l/m 9,8 km/h (2 Bft) S-SW 193 0 min 0,0 UV-I 53 W/m 3,0 C 1,3 C 30,6 km/h (5 Bft)
02.02.2023 10:39 4,2 C 3,9 C 92 % 1027,1 hPa 0,0 l/m 10,1 km/h (2 Bft) SW 227 0 min 0,0 UV-I 46 W/m 3,0 C 1,1 C 20,9 km/h (4 Bft)
02.02.2023 10:42 4,2 C 3,9 C 92 % 1027,1 hPa 0,0 l/m 12,3 km/h (3 Bft) W 270 0 min 0,0 UV-I 60 W/m 3,0 C -0,4 C 22,5 km/h (4 Bft)
02.02.2023 10:45 4,3 C 3,9 C 92 % 1027,0 hPa 0,0 l/m 10,1 km/h (2 Bft) W-SW 248 0 min 0,0 UV-I 54 W/m 3,1 C 1,2 C 20,9 km/h (4 Bft)
02.02.2023 10:48 4,3 C 3,9 C 92 % 1027,2 hPa 0,0 l/m 9,8 km/h (2 Bft) SW 230 0 min 0,0 UV-I 40 W/m 3,1 C 1,4 C 16,1 km/h (3 Bft)
02.02.2023 10:51 4,3 C 3,9 C 92 % 1027,2 hPa 0,0 l/m 6,9 km/h (2 Bft) W 261 0 min 0,0 UV-I 54 W/m 3,1 C 3,9 C 17,7 km/h (3 Bft)
02.02.2023 10:54 4,3 C 3,9 C 92 % 1027,3 hPa 0,0 l/m 11,2 km/h (2 Bft) SW 225 0 min 0,0 UV-I 72 W/m 3,1 C 0,5 C 22,5 km/h (4 Bft)
02.02.2023 10:57 4,4 C 3,9 C 92 % 1027,5 hPa 0,0 l/m 12,7 km/h (3 Bft) W-SW 239 0 min 0,0 UV-I 57 W/m 3,2 C -0,4 C 27,4 km/h (4 Bft)
02.02.2023 11:00 4,4 C 3,9 C 92 % 1027,4 hPa 0,0 l/m 13,0 km/h (3 Bft) W-SW 257 0 min 0,0 UV-I 41 W/m 3,2 C -0,5 C 20,9 km/h (4 Bft)
02.02.2023 11:03 4,4 C 3,9 C 92 % 1027,5 hPa 0,0 l/m 14,2 km/h (3 Bft) SW 236 0 min 0,0 UV-I 40 W/m 3,2 C -1,2 C 27,4 km/h (4 Bft)
02.02.2023 11:06 4,4 C 3,9 C 92 % 1027,5 hPa 0,0 l/m 10,2 km/h (2 Bft) W-NW 301 0 min 0,0 UV-I 60 W/m 3,2 C 1,3 C 19,3 km/h (3 Bft)
02.02.2023 11:09 4,4 C 4,4 C 92 % 1027,6 hPa 0,0 l/m 12,7 km/h (3 Bft) W-SW 239 0 min 0,0 UV-I 75 W/m 3,2 C -0,4 C 24,1 km/h (4 Bft)
02.02.2023 11:12 4,4 C 4,4 C 92 % 1027,6 hPa 0,0 l/m 13,9 km/h (3 Bft) W 266 0 min 0,0 UV-I 61 W/m 3,2 C -1,1 C 27,4 km/h (4 Bft)
02.02.2023 11:15 4,4 C 3,9 C 92 % 1027,5 hPa 0,0 l/m 11,5 km/h (2 Bft) SW 236 0 min 0,0 UV-I 50 W/m 3,2 C 0,4 C 20,9 km/h (4 Bft)
02.02.2023 11:18 4,5 C 3,9 C 92 % 1027,6 hPa 0,0 l/m 15,2 km/h (3 Bft) W 266 0 min 0,0 UV-I 61 W/m 3,3 C -1,6 C 20,9 km/h (4 Bft)
02.02.2023 11:21 4,5 C 4,4 C 92 % 1027,6 hPa 0,0 l/m 11,5 km/h (2 Bft) W-SW 244 0 min 0,1 UV-I 74 W/m 3,3 C 0,5 C 25,7 km/h (4 Bft)
02.02.2023 11:24 4,5 C 4,4 C 92 % 1027,7 hPa 0,0 l/m 17,1 km/h (3 Bft) W-SW 254 0 min 0,0 UV-I 58 W/m 3,3 C -2,6 C 30,6 km/h (5 Bft)
02.02.2023 11:27 4,5 C 4,4 C 92 % 1027,8 hPa 0,0 l/m 13,9 km/h (3 Bft) S-SW 207 0 min 0,1 UV-I 68 W/m 3,3 C -0,9 C 29,0 km/h (5 Bft)
02.02.2023 11:30 4,6 C 4,4 C 92 % 1027,9 hPa 0,0 l/m 12,1 km/h (2 Bft) W-SW 244 0 min 0,5 UV-I 97 W/m 3,4 C 0,2 C 27,4 km/h (4 Bft)
02.02.2023 11:33 4,6 C 4,4 C 92 % 1027,9 hPa 0,0 l/m 17,1 km/h (3 Bft) W-SW 246 0 min 0,2 UV-I 55 W/m 3,4 C -2,4 C 27,4 km/h (4 Bft)
02.02.2023 11:36 4,6 C 4,4 C 92 % 1028,0 hPa 0,0 l/m 12,3 km/h (3 Bft) W-SW 244 0 min 0,0 UV-I 54 W/m 3,4 C 0,1 C 22,5 km/h (4 Bft)
02.02.2023 11:39 4,6 C 4,4 C 92 % 1027,9 hPa 0,0 l/m 10,3 km/h (2 Bft) SW 232 0 min 0,0 UV-I 51 W/m 3,4 C 1,4 C 17,7 km/h (3 Bft)
02.02.2023 11:42 4,6 C 4,4 C 92 % 1028,0 hPa 0,0 l/m 9,7 km/h (2 Bft) W-SW 254 0 min 0,0 UV-I 39 W/m 3,4 C 1,8 C 19,3 km/h (3 Bft)
02.02.2023 11:45 4,6 C 4,4 C 92 % 1028,0 hPa 0,0 l/m 9,3 km/h (2 Bft) W-SW 255 0 min 0,0 UV-I 41 W/m 3,4 C 2,1 C 19,3 km/h (3 Bft)
02.02.2023 11:48 4,6 C 4,4 C 92 % 1028,1 hPa 0,0 l/m 11,0 km/h (2 Bft) SW 236 0 min 0,0 UV-I 56 W/m 3,4 C 0,9 C 20,9 km/h (4 Bft)
02.02.2023 11:51 4,6 C 4,4 C 92 % 1028,0 hPa 0,0 l/m 11,0 km/h (2 Bft) W 271 0 min 0,0 UV-I 70 W/m 3,4 C 0,9 C 24,1 km/h (4 Bft)
02.02.2023 11:54 4,7 C 4,4 C 92 % 1028,0 hPa 0,0 l/m 11,6 km/h (2 Bft) W-SW 251 0 min 0,5 UV-I 87 W/m 3,5 C 0,7 C 24,1 km/h (4 Bft)
02.02.2023 11:57 4,7 C 4,4 C 92 % 1027,9 hPa 0,0 l/m 7,5 km/h (2 Bft) W-SW 250 0 min 0,2 UV-I 74 W/m 3,5 C 3,7 C 12,9 km/h (3 Bft)
02.02.2023 12:00 4,7 C 4,4 C 92 % 1028,0 hPa 0,0 l/m 9,4 km/h (2 Bft) W 277 0 min 0,4 UV-I 77 W/m 3,5 C 2,2 C 16,1 km/h (3 Bft)
02.02.2023 12:03 4,7 C 4,4 C 92 % 1028,0 hPa 0,0 l/m 12,8 km/h (3 Bft) W 263 0 min 0,2 UV-I 71 W/m 3,5 C -0,1 C 24,1 km/h (4 Bft)
02.02.2023 12:06 4,7 C 4,4 C 92 % 1028,0 hPa 0,0 l/m 11,9 km/h (2 Bft) W-SW 252 0 min 0,0 UV-I 57 W/m 3,5 C 0,5 C 19,3 km/h (3 Bft)
02.02.2023 12:09 4,7 C 4,4 C 92 % 1027,9 hPa 0,0 l/m 11,1 km/h (2 Bft) SW 223 0 min 0,0 UV-I 56 W/m 3,5 C 1,0 C 17,7 km/h (3 Bft)
02.02.2023 12:12 4,7 C 4,4 C 92 % 1028,0 hPa 0,0 l/m 14,0 km/h (3 Bft) W-SW 255 0 min 0,0 UV-I 50 W/m 3,5 C -0,8 C 29,0 km/h (5 Bft)
02.02.2023 12:15 4,7 C 4,4 C 92 % 1027,9 hPa 0,0 l/m 12,3 km/h (3 Bft) W-SW 250 0 min 0,4 UV-I 77 W/m 3,5 C 0,2 C 24,1 km/h (4 Bft)
02.02.2023 12:18 4,7 C 4,4 C 92 % 1027,9 hPa 0,0 l/m 10,5 km/h (2 Bft) SW 236 0 min 0,1 UV-I 79 W/m 3,5 C 1,4 C 17,7 km/h (3 Bft)
02.02.2023 12:21 4,7 C 4,4 C 92 % 1028,0 hPa 0,0 l/m 13,2 km/h (3 Bft) W-SW 256 0 min 0,0 UV-I 48 W/m 3,5 C -0,3 C 22,5 km/h (4 Bft)
02.02.2023 12:24 4,7 C 4,4 C 92 % 1028,0 hPa 0,0 l/m 11,5 km/h (2 Bft) W-SW 246 0 min 0,0 UV-I 42 W/m 3,5 C 0,7 C 20,9 km/h (4 Bft)
02.02.2023 12:27 4,7 C 4,4 C 92 % 1027,9 hPa 0,0 l/m 8,6 km/h (2 Bft) W-SW 252 0 min 0,0 UV-I 47 W/m 3,5 C 2,8 C 19,3 km/h (3 Bft)
02.02.2023 12:30 4,7 C 4,4 C 92 % 1028,0 hPa 0,2 l/m 12,7 km/h (3 Bft) W-SW 246 0 min 0,0 UV-I 39 W/m 3,5 C -0,0 C 22,5 km/h (4 Bft)
02.02.2023 12:33 4,7 C 4,4 C 92 % 1028,0 hPa 0,0 l/m 11,9 km/h (2 Bft) W-SW 250 0 min 0,0 UV-I 36 W/m 3,5 C 0,5 C 22,5 km/h (4 Bft)
02.02.2023 12:36 4,7 C 3,9 C 92 % 1028,0 hPa 0,0 l/m 12,0 km/h (2 Bft) W-SW 257 0 min 0,0 UV-I 39 W/m 3,5 C 0,4 C 17,7 km/h (3 Bft)
02.02.2023 12:39 4,7 C 4,4 C 92 % 1027,9 hPa 0,0 l/m 5,9 km/h (2 Bft) W 260 0 min 0,0 UV-I 40 W/m 3,5 C 4,7 C 9,7 km/h (2 Bft)
02.02.2023 12:42 4,7 C 4,4 C 92 % 1027,9 hPa 0,0 l/m 12,3 km/h (3 Bft) SW 236 0 min 0,1 UV-I 62 W/m 3,5 C 0,2 C 20,9 km/h (4 Bft)
02.02.2023 12:45 4,7 C 4,4 C 92 % 1027,9 hPa 0,0 l/m 13,9 km/h (3 Bft) W 266 0 min 0,2 UV-I 74 W/m 3,5 C -0,7 C 22,5 km/h (4 Bft)
02.02.2023 12:48 4,7 C 4,4 C 92 % 1028,0 hPa 0,0 l/m 10,3 km/h (2 Bft) SW 227 0 min 0,0 UV-I 53 W/m 3,5 C 1,5 C 17,7 km/h (3 Bft)
02.02.2023 12:51 4,7 C 4,4 C 92 % 1027,9 hPa 0,0 l/m 8,8 km/h (2 Bft) SW 215 0 min 0,0 UV-I 46 W/m 3,5 C 2,6 C 14,5 km/h (3 Bft)
02.02.2023 12:54 4,7 C 4,4 C 92 % 1027,9 hPa 0,0 l/m 5,9 km/h (2 Bft) W-SW 251 0 min 0,0 UV-I 47 W/m 3,5 C 4,7 C 12,9 km/h (3 Bft)
02.02.2023 12:57 4,7 C 4,4 C 92 % 1028,0 hPa 0,0 l/m 9,6 km/h (2 Bft) S-SW 211 0 min 0,3 UV-I 76 W/m 3,5 C 2,0 C 19,3 km/h (3 Bft)
02.02.2023 13:00 4,7 C 4,4 C 92 % 1027,9 hPa 0,0 l/m 7,9 km/h (2 Bft) W-SW 253 0 min 0,0 UV-I 63 W/m 3,5 C 3,4 C 17,7 km/h (3 Bft)
02.02.2023 13:03 4,8 C 4,4 C 92 % 1027,8 hPa 0,0 l/m 10,8 km/h (2 Bft) W-SW 243 0 min 0,0 UV-I 56 W/m 3,6 C 1,3 C 25,7 km/h (4 Bft)
02.02.2023 13:06 4,7 C 4,4 C 92 % 1027,9 hPa 0,0 l/m 11,9 km/h (2 Bft) W-SW 252 0 min 0,0 UV-I 51 W/m 3,5 C 0,5 C 25,7 km/h (4 Bft)
02.02.2023 13:09 4,7 C 4,4 C 92 % 1027,8 hPa 0,0 l/m 12,5 km/h (3 Bft) W 259 0 min 0,0 UV-I 53 W/m 3,5 C 0,1 C 20,9 km/h (4 Bft)
02.02.2023 13:12 4,7 C 4,4 C 92 % 1028,0 hPa 0,0 l/m 12,6 km/h (3 Bft) W-SW 252 0 min 0,0 UV-I 73 W/m 3,5 C 0,0 C 27,4 km/h (4 Bft)
02.02.2023 13:15 4,7 C 4,4 C 92 % 1027,9 hPa 0,0 l/m 14,5 km/h (3 Bft) SW 225 0 min 0,1 UV-I 73 W/m 3,5 C -1,0 C 29,0 km/h (5 Bft)
02.02.2023 13:18 4,7 C 4,4 C 92 % 1027,8 hPa 0,0 l/m 10,8 km/h (2 Bft) S-SW 203 0 min 0,0 UV-I 62 W/m 3,5 C 1,2 C 20,9 km/h (4 Bft)
02.02.2023 13:21 4,7 C 4,4 C 92 % 1027,8 hPa 0,0 l/m 11,4 km/h (2 Bft) SW 229 0 min 0,0 UV-I 67 W/m 3,5 C 0,8 C 19,3 km/h (3 Bft)
02.02.2023 13:24 4,7 C 4,4 C 92 % 1027,8 hPa 0,0 l/m 10,1 km/h (2 Bft) S-SW 196 0 min 0,3 UV-I 75 W/m 3,5 C 1,7 C 20,9 km/h (4 Bft)
02.02.2023 13:27 4,8 C 4,4 C 92 % 1027,8 hPa 0,0 l/m 11,0 km/h (2 Bft) W-SW 244 0 min 0,4 UV-I 88 W/m 3,6 C 1,2 C 19,3 km/h (3 Bft)
02.02.2023 13:30 4,8 C 4,4 C 92 % 1027,6 hPa 0,0 l/m 12,3 km/h (3 Bft) SW 234 0 min 0,6 UV-I 109 W/m 3,6 C 0,3 C 22,5 km/h (4 Bft)
02.02.2023 13:33 4,8 C 5,0 C 92 % 1027,7 hPa 0,0 l/m 9,2 km/h (2 Bft) SW 216 0 min 0,6 UV-I 113 W/m 3,6 C 2,4 C 17,7 km/h (3 Bft)
02.02.2023 13:36 4,8 C 4,4 C 92 % 1027,7 hPa 0,0 l/m 15,3 km/h (3 Bft) W 261 0 min 0,2 UV-I 77 W/m 3,6 C -1,3 C 29,0 km/h (5 Bft)
02.02.2023 13:39 4,8 C 4,4 C 92 % 1027,7 hPa 0,0 l/m 14,3 km/h (3 Bft) W 276 0 min 0,0 UV-I 47 W/m 3,6 C -0,8 C 24,1 km/h (4 Bft)
02.02.2023 13:42 4,8 C 4,4 C 92 % 1027,7 hPa 0,0 l/m 11,0 km/h (2 Bft) W-SW 242 0 min 0,0 UV-I 58 W/m 3,6 C 1,2 C 22,5 km/h (4 Bft)
02.02.2023 13:45 4,8 C 4,4 C 92 % 1027,6 hPa 0,0 l/m 12,9 km/h (3 Bft) SW 234 0 min 0,1 UV-I 76 W/m 3,6 C -0,0 C 25,7 km/h (4 Bft)
02.02.2023 13:48 4,8 C 4,4 C 92 % 1027,6 hPa 0,0 l/m 11,4 km/h (2 Bft) SW 236 0 min 0,0 UV-I 67 W/m 3,6 C 0,9 C 20,9 km/h (4 Bft)
02.02.2023 13:51 4,8 C 4,4 C 92 % 1027,6 hPa 0,0 l/m 12,3 km/h (3 Bft) SW 224 0 min 0,0 UV-I 68 W/m 3,6 C 0,3 C 20,9 km/h (4 Bft)
02.02.2023 13:54 4,8 C 4,4 C 92 % 1027,6 hPa 0,0 l/m 10,1 km/h (2 Bft) W 271 0 min 0,0 UV-I 62 W/m 3,6 C 1,8 C 19,3 km/h (3 Bft)
02.02.2023 13:57 4,8 C 4,4 C 92 % 1027,6 hPa 0,0 l/m 12,7 km/h (3 Bft) W-SW 245 0 min 0,0 UV-I 60 W/m 3,6 C 0,1 C 20,9 km/h (4 Bft)
02.02.2023 14:00 4,8 C 4,4 C 92 % 1027,5 hPa 0,0 l/m 13,6 km/h (3 Bft) S-SW 200 0 min 0,4 UV-I 108 W/m 3,6 C -0,4 C 27,4 km/h (4 Bft)
02.02.2023 14:03 4,9 C 5,0 C 92 % 1027,5 hPa 0,0 l/m 11,2 km/h (2 Bft) W 274 0 min 0,6 UV-I 133 W/m 3,7 C 1,1 C 22,5 km/h (4 Bft)
02.02.2023 14:06 5,0 C 5,0 C 92 % 1027,4 hPa 0,0 l/m 8,0 km/h (2 Bft) W-SW 252 0 min 0,6 UV-I 117 W/m 3,8 C 3,6 C 16,1 km/h (3 Bft)
02.02.2023 14:09 5,1 C 5,6 C 92 % 1027,3 hPa 0,0 l/m 10,6 km/h (2 Bft) SW 223 0 min 0,8 UV-I 173 W/m 3,9 C 1,8 C 20,9 km/h (4 Bft)
02.02.2023 14:12 5,1 C 5,0 C 92 % 1027,3 hPa 0,0 l/m 13,8 km/h (3 Bft) S-SW 209 0 min 0,8 UV-I 137 W/m 3,9 C -0,2 C 22,5 km/h (4 Bft)
02.02.2023 14:15 5,1 C 5,6 C 92 % 1027,3 hPa 0,0 l/m 9,9 km/h (2 Bft) W-SW 252 0 min 0,6 UV-I 128 W/m 3,9 C 2,3 C 24,1 km/h (4 Bft)
02.02.2023 14:18 5,2 C 5,0 C 92 % 1027,2 hPa 0,0 l/m 16,3 km/h (3 Bft) SW 219 0 min 0,5 UV-I 112 W/m 4,0 C -1,3 C 29,0 km/h (5 Bft)
02.02.2023 14:21 5,2 C 5,6 C 91 % 1027,2 hPa 0,0 l/m 16,7 km/h (3 Bft) W 266 0 min 0,6 UV-I 122 W/m 3,9 C -1,5 C 33,8 km/h (5 Bft)
02.02.2023 14:24 5,2 C 5,6 C 91 % 1027,2 hPa 0,0 l/m 13,2 km/h (3 Bft) W-SW 244 0 min 0,7 UV-I 135 W/m 3,9 C 0,3 C 25,7 km/h (4 Bft)
02.02.2023 14:27 5,2 C 5,6 C 91 % 1027,2 hPa 0,0 l/m 10,6 km/h (2 Bft) W-SW 246 0 min 0,7 UV-I 139 W/m 3,9 C 1,9 C 20,9 km/h (4 Bft)
02.02.2023 14:30 5,3 C 5,6 C 91 % 1027,2 hPa 0,0 l/m 13,3 km/h (3 Bft) W-SW 254 0 min 0,7 UV-I 154 W/m 4,0 C 0,3 C 27,4 km/h (4 Bft)
02.02.2023 14:33 5,4 C 5,6 C 91 % 1027,3 hPa 0,0 l/m 11,4 km/h (2 Bft) W-SW 245 0 min 0,6 UV-I 122 W/m 4,1 C 1,6 C 20,9 km/h (4 Bft)
02.02.2023 14:36 5,4 C 5,6 C 91 % 1027,4 hPa 0,0 l/m 14,1 km/h (3 Bft) W-SW 238 0 min 0,2 UV-I 94 W/m 4,1 C 0,0 C 22,5 km/h (4 Bft)
02.02.2023 14:39 5,3 C 5,0 C 91 % 1027,4 hPa 0,0 l/m 15,7 km/h (3 Bft) W-SW 246 0 min 0,0 UV-I 72 W/m 4,0 C -0,9 C 27,4 km/h (4 Bft)
02.02.2023 14:42 5,3 C 5,0 C 90 % 1027,4 hPa 0,0 l/m 12,7 km/h (3 Bft) S-SW 213 0 min 0,0 UV-I 70 W/m 3,8 C 0,7 C 29,0 km/h (5 Bft)
02.02.2023 14:45 5,3 C 5,0 C 90 % 1027,4 hPa 0,0 l/m 17,0 km/h (3 Bft) W-SW 250 0 min 0,0 UV-I 72 W/m 3,8 C -1,5 C 29,0 km/h (5 Bft)
02.02.2023 14:48 5,3 C 5,0 C 90 % 1027,4 hPa 0,0 l/m 15,6 km/h (3 Bft) W-SW 250 0 min 0,3 UV-I 88 W/m 3,8 C -0,9 C 30,6 km/h (5 Bft)
02.02.2023 14:51 5,3 C 5,0 C 90 % 1027,4 hPa 0,0 l/m 14,7 km/h (3 Bft) W 260 0 min 0,1 UV-I 80 W/m 3,8 C -0,4 C 30,6 km/h (5 Bft)
02.02.2023 14:54 5,3 C 5,0 C 90 % 1027,5 hPa 0,0 l/m 14,2 km/h (3 Bft) SW 230 0 min 0,0 UV-I 65 W/m 3,8 C -0,1 C 27,4 km/h (4 Bft)
02.02.2023 14:57 5,3 C 5,0 C 90 % 1027,6 hPa 0,0 l/m 15,9 km/h (3 Bft) W-SW 244 0 min 0,0 UV-I 65 W/m 3,8 C -1,0 C 27,4 km/h (4 Bft)
02.02.2023 15:00 5,3 C 5,0 C 90 % 1027,6 hPa 0,0 l/m 18,5 km/h (3 Bft) W 260 0 min 0,0 UV-I 71 W/m 3,8 C -2,2 C 33,8 km/h (5 Bft)
02.02.2023 15:03 5,3 C 5,0 C 90 % 1027,6 hPa 0,0 l/m 14,5 km/h (3 Bft) SW 217 0 min 0,0 UV-I 61 W/m 3,8 C -0,3 C 30,6 km/h (5 Bft)
02.02.2023 15:06 5,3 C 5,0 C 90 % 1027,7 hPa 0,0 l/m 15,9 km/h (3 Bft) SW 228 0 min 0,0 UV-I 66 W/m 3,8 C -1,0 C 25,7 km/h (4 Bft)
02.02.2023 15:09 5,3 C 5,0 C 90 % 1027,8 hPa 0,0 l/m 16,6 km/h (3 Bft) W 263 0 min 0,0 UV-I 63 W/m 3,8 C -1,3 C 32,2 km/h (5 Bft)
02.02.2023 15:12 5,2 C 5,0 C 90 % 1027,8 hPa 0,0 l/m 16,1 km/h (3 Bft) SW 224 0 min 0,0 UV-I 61 W/m 3,7 C -1,2 C 33,8 km/h (5 Bft)
02.02.2023 15:15 5,2 C 5,0 C 90 % 1028,0 hPa 0,0 l/m 15,6 km/h (3 Bft) SW 236 0 min 0,0 UV-I 72 W/m 3,7 C -1,0 C 25,7 km/h (4 Bft)
02.02.2023 15:18 5,3 C 5,0 C 89 % 1027,8 hPa 0,0 l/m 15,3 km/h (3 Bft) S-SW 209 0 min 0,0 UV-I 58 W/m 3,6 C -0,7 C 25,7 km/h (4 Bft)
02.02.2023 15:21 5,2 C 5,0 C 89 % 1027,7 hPa 0,0 l/m 13,2 km/h (3 Bft) S-SW 212 0 min 0,0 UV-I 61 W/m 3,5 C 0,3 C 27,4 km/h (4 Bft)
02.02.2023 15:24 5,3 C 5,0 C 89 % 1027,9 hPa 0,0 l/m 10,5 km/h (2 Bft) SW 217 0 min 0,0 UV-I 49 W/m 3,6 C 2,1 C 17,7 km/h (3 Bft)
02.02.2023 15:27 5,2 C 5,0 C 89 % 1028,0 hPa 0,0 l/m 11,2 km/h (2 Bft) W-SW 244 0 min 0,0 UV-I 56 W/m 3,5 C 1,5 C 20,9 km/h (4 Bft)
02.02.2023 15:30 5,2 C 5,0 C 90 % 1027,9 hPa 0,0 l/m 11,6 km/h (2 Bft) W-SW 238 0 min 0,0 UV-I 62 W/m 3,7 C 1,2 C 25,7 km/h (4 Bft)
02.02.2023 15:33 5,2 C 5,0 C 89 % 1027,9 hPa 0,0 l/m 14,8 km/h (3 Bft) S-SW 204 0 min 0,0 UV-I 50 W/m 3,5 C -0,6 C 24,1 km/h (4 Bft)
02.02.2023 15:36 5,2 C 5,0 C 89 % 1028,0 hPa 0,0 l/m 13,0 km/h (3 Bft) W-SW 242 0 min 0,0 UV-I 55 W/m 3,5 C 0,4 C 24,1 km/h (4 Bft)
02.02.2023 15:39 5,2 C 5,0 C 89 % 1027,9 hPa 0,0 l/m 9,9 km/h (2 Bft) SW 227 0 min 0,0 UV-I 41 W/m 3,5 C 2,4 C 30,6 km/h (5 Bft)
02.02.2023 15:42 5,2 C 5,0 C 89 % 1028,0 hPa 0,0 l/m 5,8 km/h (2 Bft) S-SW 200 0 min 0,0 UV-I 54 W/m 3,5 C 5,2 C 14,5 km/h (3 Bft)
02.02.2023 15:45 5,2 C 5,0 C 89 % 1028,0 hPa 0,0 l/m 9,7 km/h (2 Bft) W-SW 258 0 min 0,0 UV-I 63 W/m 3,5 C 2,5 C 19,3 km/h (3 Bft)
02.02.2023 15:48 5,2 C 5,0 C 89 % 1028,0 hPa 0,0 l/m 10,4 km/h (2 Bft) S-SO 168 0 min 0,0 UV-I 88 W/m 3,5 C 2,0 C 27,4 km/h (4 Bft)
02.02.2023 15:51 5,2 C 5,0 C 89 % 1028,0 hPa 0,0 l/m 10,7 km/h (2 Bft) SW 223 0 min 0,0 UV-I 40 W/m 3,5 C 1,8 C 20,9 km/h (4 Bft)
02.02.2023 15:54 5,2 C 5,0 C 89 % 1028,0 hPa 0,0 l/m 10,8 km/h (2 Bft) W-SW 241 0 min 0,0 UV-I 32 W/m 3,5 C 1,7 C 19,3 km/h (3 Bft)
02.02.2023 15:57 5,2 C 4,4 C 89 % 1027,9 hPa 0,0 l/m 10,9 km/h (2 Bft) SW 230 0 min 0,0 UV-I 33 W/m 3,5 C 1,7 C 19,3 km/h (3 Bft)
02.02.2023 16:00 5,2 C 4,4 C 89 % 1028,0 hPa 0,0 l/m 9,2 km/h (2 Bft) SW 221 0 min 0,0 UV-I 45 W/m 3,5 C 2,9 C 17,7 km/h (3 Bft)
02.02.2023 16:03 5,2 C 5,0 C 89 % 1028,1 hPa 0,0 l/m 10,6 km/h (2 Bft) W-SW 244 0 min 0,0 UV-I 65 W/m 3,5 C 1,9 C 19,3 km/h (3 Bft)
02.02.2023 16:06 5,2 C 5,0 C 89 % 1028,1 hPa 0,0 l/m 8,5 km/h (2 Bft) SW 222 0 min 0,0 UV-I 75 W/m 3,5 C 3,4 C 16,1 km/h (3 Bft)
02.02.2023 16:09 5,2 C 5,0 C 90 % 1028,1 hPa 0,0 l/m 9,1 km/h (2 Bft) W-NW 283 0 min 0,0 UV-I 98 W/m 3,7 C 2,9 C 17,7 km/h (3 Bft)
02.02.2023 16:12 5,3 C 5,6 C 90 % 1028,1 hPa 0,0 l/m 9,3 km/h (2 Bft) S 191 0 min 0,0 UV-I 97 W/m 3,8 C 2,9 C 20,9 km/h (4 Bft)
02.02.2023 16:15 5,3 C 5,0 C 89 % 1028,1 hPa 0,0 l/m 13,0 km/h (3 Bft) SW 223 0 min 0,0 UV-I 83 W/m 3,6 C 0,5 C 27,4 km/h (4 Bft)
02.02.2023 16:18 5,3 C 5,0 C 89 % 1028,1 hPa 0,0 l/m 13,9 km/h (3 Bft) S-SW 197 0 min 0,0 UV-I 75 W/m 3,6 C 0,0 C 24,1 km/h (4 Bft)
02.02.2023 16:21 5,3 C 5,0 C 89 % 1028,2 hPa 0,0 l/m 14,3 km/h (3 Bft) W-SW 250 0 min 0,0 UV-I 70 W/m 3,6 C -0,2 C 25,7 km/h (4 Bft)
02.02.2023 16:24 5,2 C 5,0 C 89 % 1028,2 hPa 0,0 l/m 11,4 km/h (2 Bft) S-SW 208 0 min 0,0 UV-I 44 W/m 3,5 C 1,4 C 20,9 km/h (4 Bft)
02.02.2023 16:27 5,2 C 5,0 C 89 % 1028,3 hPa 0,0 l/m 10,7 km/h (2 Bft) SW 215 0 min 0,0 UV-I 38 W/m 3,5 C 1,8 C 20,9 km/h (4 Bft)
02.02.2023 16:30 5,2 C 5,0 C 89 % 1028,3 hPa 0,0 l/m 9,1 km/h (2 Bft) SW 233 0 min 0,0 UV-I 29 W/m 3,5 C 2,9 C 17,7 km/h (3 Bft)
02.02.2023 16:33 5,2 C 5,0 C 89 % 1028,3 hPa 0,0 l/m 7,7 km/h (2 Bft) W 265 0 min 0,0 UV-I 22 W/m 3,5 C 4,1 C 19,3 km/h (3 Bft)
02.02.2023 16:36 5,2 C 5,0 C 89 % 1028,4 hPa 0,0 l/m 9,8 km/h (2 Bft) SW 215 0 min 0,0 UV-I 21 W/m 3,5 C 2,4 C 24,1 km/h (4 Bft)
02.02.2023 16:39 5,2 C 5,0 C 89 % 1028,4 hPa 0,0 l/m 9,1 km/h (2 Bft) SW 216 0 min 0,0 UV-I 21 W/m 3,5 C 2,9 C 19,3 km/h (3 Bft)
02.02.2023 16:42 5,1 C 5,0 C 89 % 1028,4 hPa 0,0 l/m 11,8 km/h (2 Bft) S-SW 203 0 min 0,0 UV-I 21 W/m 3,4 C 1,0 C 17,7 km/h (3 Bft)
02.02.2023 16:45 5,1 C 5,0 C 89 % 1028,5 hPa 0,0 l/m 12,0 km/h (2 Bft) SW 227 0 min 0,0 UV-I 22 W/m 3,4 C 0,9 C 22,5 km/h (4 Bft)
02.02.2023 16:48 5,1 C 4,4 C 89 % 1028,5 hPa 0,0 l/m 8,0 km/h (2 Bft) SW 226 0 min 0,0 UV-I 17 W/m 3,4 C 3,7 C 25,7 km/h (4 Bft)
02.02.2023 16:51 5,1 C 4,4 C 89 % 1028,5 hPa 0,0 l/m 12,7 km/h (3 Bft) W-SW 250 0 min 0,0 UV-I 12 W/m 3,4 C 0,5 C 22,5 km/h (4 Bft)
02.02.2023 16:54 5,1 C 4,4 C 89 % 1028,5 hPa 0,0 l/m 11,5 km/h (2 Bft) SW 217 0 min 0,0 UV-I 7 W/m 3,4 C 1,2 C 17,7 km/h (3 Bft)
02.02.2023 16:57 5,0 C 4,4 C 89 % 1028,5 hPa 0,0 l/m 9,6 km/h (2 Bft) S-SW 204 0 min 0,0 UV-I 6 W/m 3,3 C 2,4 C 17,7 km/h (3 Bft)
02.02.2023 17:00 5,0 C 4,4 C 89 % 1028,6 hPa 0,0 l/m 11,0 km/h (2 Bft) SW 220 0 min 0,0 UV-I 1 W/m 3,3 C 1,4 C 19,3 km/h (3 Bft)
02.02.2023 17:03 4,9 C 4,4 C 89 % 1028,6 hPa 0,0 l/m 10,5 km/h (2 Bft) SW 223 0 min 0,0 UV-I 0 W/m 3,2 C 1,6 C 20,9 km/h (4 Bft)
02.02.2023 17:06 4,9 C 4,4 C 89 % 1028,6 hPa 0,0 l/m 9,1 km/h (2 Bft) S-SW 210 0 min 0,0 UV-I 3 W/m 3,2 C 2,6 C 19,3 km/h (3 Bft)
02.02.2023 17:09 4,9 C 4,4 C 89 % 1028,5 hPa 0,0 l/m 9,9 km/h (2 Bft) S-SW 205 0 min 0,0 UV-I 7 W/m 3,2 C 2,0 C 17,7 km/h (3 Bft)
02.02.2023 17:12 4,9 C 4,4 C 89 % 1028,6 hPa 0,0 l/m 11,2 km/h (2 Bft) S-SW 193 0 min 0,0 UV-I 2 W/m 3,2 C 1,1 C 20,9 km/h (4 Bft)
02.02.2023 17:15 4,9 C 4,4 C 89 % 1028,5 hPa 0,0 l/m 10,5 km/h (2 Bft) S-SW 203 0 min 0,0 UV-I 0 W/m 3,2 C 1,6 C 16,1 km/h (3 Bft)
02.02.2023 17:18 4,9 C 4,4 C 89 % 1028,7 hPa 0,0 l/m 10,6 km/h (2 Bft) S-SW 205 0 min 0,0 UV-I 0 W/m 3,2 C 1,5 C 24,1 km/h (4 Bft)
02.02.2023 17:21 4,8 C 4,4 C 89 % 1028,6 hPa 0,0 l/m 12,3 km/h (3 Bft) SW 227 0 min 0,0 UV-I 0 W/m 3,1 C 0,3 C 25,7 km/h (4 Bft)
02.02.2023 17:24 4,8 C 4,4 C 89 % 1028,5 hPa 0,0 l/m 12,2 km/h (2 Bft) SW 231 0 min 0,0 UV-I 0 W/m 3,1 C 0,4 C 25,7 km/h (4 Bft)
02.02.2023 17:27 4,8 C 4,4 C 89 % 1028,8 hPa 0,0 l/m 9,7 km/h (2 Bft) S 185 0 min 0,0 UV-I 0 W/m 3,1 C 2,1 C 24,1 km/h (4 Bft)
02.02.2023 17:30 4,8 C 4,4 C 89 % 1028,8 hPa 0,0 l/m 7,9 km/h (2 Bft) S-SW 195 0 min 0,0 UV-I 0 W/m 3,1 C 3,5 C 16,1 km/h (3 Bft)
02.02.2023 17:33 4,8 C 4,4 C 89 % 1028,8 hPa 0,0 l/m 9,3 km/h (2 Bft) W-SW 243 0 min 0,0 UV-I 0 W/m 3,1 C 2,4 C 19,3 km/h (3 Bft)
02.02.2023 17:36 4,8 C 4,4 C 89 % 1028,8 hPa 0,0 l/m 9,1 km/h (2 Bft) W 267 0 min 0,0 UV-I 0 W/m 3,1 C 2,5 C 17,7 km/h (3 Bft)
02.02.2023 17:39 4,8 C 4,4 C 89 % 1028,9 hPa 0,0 l/m 10,2 km/h (2 Bft) S-SW 205 0 min 0,0 UV-I 0 W/m 3,1 C 1,7 C 17,7 km/h (3 Bft)
02.02.2023 17:42 4,8 C 4,4 C 89 % 1028,8 hPa 0,0 l/m 10,8 km/h (2 Bft) S-SW 213 0 min 0,0 UV-I 0 W/m 3,1 C 1,3 C 17,7 km/h (3 Bft)
02.02.2023 17:45 4,8 C 4,4 C 89 % 1028,8 hPa 0,0 l/m 9,3 km/h (2 Bft) S-SW 203 0 min 0,0 UV-I 0 W/m 3,1 C 2,4 C 17,7 km/h (3 Bft)
02.02.2023 17:48 4,7 C 4,4 C 89 % 1028,8 hPa 0,0 l/m 12,9 km/h (3 Bft) S-SW 206 0 min 0,0 UV-I 0 W/m 3,0 C -0,1 C 17,7 km/h (3 Bft)
02.02.2023 17:51 4,7 C 4,4 C 89 % 1028,8 hPa 0,0 l/m 12,4 km/h (3 Bft) S-SW 198 0 min 0,0 UV-I 0 W/m 3,0 C 0,2 C 17,7 km/h (3 Bft)
02.02.2023 17:54 4,7 C 4,4 C 89 % 1028,8 hPa 0,0 l/m 12,5 km/h (3 Bft) SW 224 0 min 0,0 UV-I 0 W/m 3,0 C 0,1 C 19,3 km/h (3 Bft)
02.02.2023 17:57 4,7 C 4,4 C 89 % 1028,9 hPa 0,0 l/m 13,5 km/h (3 Bft) SW 214 0 min 0,0 UV-I 0 W/m 3,0 C -0,5 C 20,9 km/h (4 Bft)
02.02.2023 18:00 4,7 C 4,4 C 89 % 1028,9 hPa 0,0 l/m 12,6 km/h (3 Bft) S-SW 192 0 min 0,0 UV-I 0 W/m 3,0 C 0,0 C 24,1 km/h (4 Bft)
02.02.2023 18:03 4,7 C 4,4 C 89 % 1028,9 hPa 0,0 l/m 14,1 km/h (3 Bft) S-SW 194 0 min 0,0 UV-I 0 W/m 3,0 C -0,8 C 22,5 km/h (4 Bft)
02.02.2023 18:06 4,7 C 4,4 C 89 % 1028,9 hPa 0,0 l/m 11,5 km/h (2 Bft) S-SW 205 0 min 0,0 UV-I 0 W/m 3,0 C 0,7 C 17,7 km/h (3 Bft)
02.02.2023 18:09 4,8 C 4,4 C 89 % 1028,9 hPa 0,0 l/m 12,9 km/h (3 Bft) S-SW 205 0 min 0,0 UV-I 0 W/m 3,1 C -0,0 C 19,3 km/h (3 Bft)
02.02.2023 18:12 4,8 C 4,4 C 89 % 1029,0 hPa 0,0 l/m 12,0 km/h (2 Bft) W-SW 241 0 min 0,0 UV-I 0 W/m 3,1 C 0,5 C 20,9 km/h (4 Bft)
02.02.2023 18:15 4,8 C 4,4 C 89 % 1029,1 hPa 0,0 l/m 13,7 km/h (3 Bft) S-SW 212 0 min 0,0 UV-I 0 W/m 3,1 C -0,5 C 20,9 km/h (4 Bft)
02.02.2023 18:18 4,7 C 4,4 C 89 % 1029,0 hPa 0,0 l/m 11,4 km/h (2 Bft) S-SW 198 0 min 0,0 UV-I 0 W/m 3,0 C 0,8 C 17,7 km/h (3 Bft)
02.02.2023 18:21 4,7 C 4,4 C 89 % 1029,1 hPa 0,0 l/m 10,6 km/h (2 Bft) S-SW 209 0 min 0,0 UV-I 0 W/m 3,0 C 1,3 C 17,7 km/h (3 Bft)
02.02.2023 18:24 4,7 C 4,4 C 90 % 1029,1 hPa 0,0 l/m 13,2 km/h (3 Bft) SW 232 0 min 0,0 UV-I 0 W/m 3,2 C -0,3 C 19,3 km/h (3 Bft)
02.02.2023 18:27 4,7 C 4,4 C 90 % 1029,1 hPa 0,0 l/m 12,4 km/h (3 Bft) SW 219 0 min 0,0 UV-I 0 W/m 3,2 C 0,2 C 19,3 km/h (3 Bft)
02.02.2023 18:30 4,7 C 4,4 C 90 % 1029,2 hPa 0,0 l/m 10,2 km/h (2 Bft) SW 228 0 min 0,0 UV-I 0 W/m 3,2 C 1,6 C 19,3 km/h (3 Bft)
02.02.2023 18:33 4,7 C 4,4 C 90 % 1029,2 hPa 0,0 l/m 9,7 km/h (2 Bft) W-SW 248 0 min 0,0 UV-I 0 W/m 3,2 C 2,0 C 17,7 km/h (3 Bft)
02.02.2023 18:36 4,7 C 4,4 C 90 % 1029,3 hPa 0,0 l/m 10,6 km/h (2 Bft) SW 214 0 min 0,0 UV-I 0 W/m 3,2 C 1,3 C 14,5 km/h (3 Bft)
02.02.2023 18:39 4,7 C 4,4 C 90 % 1029,3 hPa 0,0 l/m 7,5 km/h (2 Bft) S-SW 196 0 min 0,0 UV-I 0 W/m 3,2 C 3,7 C 16,1 km/h (3 Bft)
02.02.2023 18:42 4,7 C 4,4 C 90 % 1029,4 hPa 0,0 l/m 10,1 km/h (2 Bft) SW 222 0 min 0,0 UV-I 0 W/m 3,2 C 1,7 C 16,1 km/h (3 Bft)
02.02.2023 18:45 4,7 C 3,9 C 90 % 1029,4 hPa 0,0 l/m 7,9 km/h (2 Bft) W-SW 246 0 min 0,0 UV-I 0 W/m 3,2 C 3,4 C 17,7 km/h (3 Bft)
02.02.2023 18:48 4,7 C 3,9 C 90 % 1029,4 hPa 0,0 l/m 7,7 km/h (2 Bft) SW 227 0 min 0,0 UV-I 0 W/m 3,2 C 3,5 C 20,9 km/h (4 Bft)
02.02.2023 18:51 4,7 C 3,9 C 90 % 1029,4 hPa 0,0 l/m 7,4 km/h (2 Bft) S-SW 198 0 min 0,0 UV-I 0 W/m 3,2 C 3,8 C 16,1 km/h (3 Bft)
02.02.2023 18:54 4,7 C 4,4 C 90 % 1029,4 hPa 0,0 l/m 10,7 km/h (2 Bft) S 187 0 min 0,0 UV-I 0 W/m 3,2 C 1,3 C 20,9 km/h (4 Bft)
02.02.2023 18:57 4,7 C 4,4 C 90 % 1029,4 hPa 0,0 l/m 11,2 km/h (2 Bft) SW 219 0 min 0,0 UV-I 0 W/m 3,2 C 0,9 C 17,7 km/h (3 Bft)
02.02.2023 19:00 4,7 C 3,9 C 90 % 1029,4 hPa 0,0 l/m 7,8 km/h (2 Bft) W 269 0 min 0,0 UV-I 0 W/m 3,2 C 3,5 C 14,5 km/h (3 Bft)
02.02.2023 19:03 4,7 C 3,9 C 90 % 1029,4 hPa 0,0 l/m 11,5 km/h (2 Bft) S-SW 209 0 min 0,0 UV-I 0 W/m 3,2 C 0,7 C 20,9 km/h (4 Bft)
02.02.2023 19:06 4,8 C 3,9 C 90 % 1029,4 hPa 0,0 l/m 9,5 km/h (2 Bft) W-SW 242 0 min 0,0 UV-I 0 W/m 3,3 C 2,2 C 19,3 km/h (3 Bft)
02.02.2023 19:09 4,7 C 3,9 C 90 % 1029,5 hPa 0,0 l/m 7,9 km/h (2 Bft) W 270 0 min 0,0 UV-I 0 W/m 3,2 C 3,4 C 14,5 km/h (3 Bft)
02.02.2023 19:12 4,7 C 3,9 C 90 % 1029,5 hPa 0,0 l/m 10,3 km/h (2 Bft) SW 228 0 min 0,0 UV-I 0 W/m 3,2 C 1,5 C 19,3 km/h (3 Bft)
02.02.2023 19:15 4,8 C 3,9 C 91 % 1029,4 hPa 0,0 l/m 10,4 km/h (2 Bft) S-SW 208 0 min 0,0 UV-I 0 W/m 3,5 C 1,6 C 17,7 km/h (3 Bft)
02.02.2023 19:18 4,7 C 3,9 C 90 % 1029,4 hPa 0,0 l/m 13,4 km/h (3 Bft) S-SW 193 0 min 0,0 UV-I 0 W/m 3,2 C -0,4 C 22,5 km/h (4 Bft)
02.02.2023 19:21 4,7 C 3,9 C 90 % 1029,4 hPa 0,0 l/m 11,7 km/h (2 Bft) SW 230 0 min 0,0 UV-I 0 W/m 3,2 C 0,6 C 16,1 km/h (3 Bft)
02.02.2023 19:24 4,7 C 3,9 C 91 % 1029,3 hPa 0,0 l/m 8,3 km/h (2 Bft) SW 227 0 min 0,0 UV-I 0 W/m 3,4 C 3,0 C 16,1 km/h (3 Bft)
02.02.2023 19:27 4,7 C 3,9 C 91 % 1029,4 hPa 0,0 l/m 8,8 km/h (2 Bft) SW 215 0 min 0,0 UV-I 0 W/m 3,4 C 2,6 C 16,1 km/h (3 Bft)
02.02.2023 19:30 4,7 C 3,9 C 91 % 1029,3 hPa 0,0 l/m 7,9 km/h (2 Bft) W-SW 242 0 min 0,0 UV-I 0 W/m 3,4 C 3,4 C 16,1 km/h (3 Bft)
02.02.2023 19:33 4,7 C 3,9 C 91 % 1029,4 hPa 0,0 l/m 9,8 km/h (2 Bft) W-SW 245 0 min 0,0 UV-I 0 W/m 3,4 C 1,9 C 16,1 km/h (3 Bft)
02.02.2023 19:36 4,7 C 3,9 C 91 % 1029,4 hPa 0,0 l/m 9,4 km/h (2 Bft) SW 228 0 min 0,0 UV-I 0 W/m 3,4 C 2,2 C 17,7 km/h (3 Bft)
02.02.2023 19:39 4,7 C 3,9 C 91 % 1029,4 hPa 0,0 l/m 9,6 km/h (2 Bft) S-SW 209 0 min 0,0 UV-I 0 W/m 3,4 C 2,0 C 17,7 km/h (3 Bft)
02.02.2023 19:42 4,8 C 3,9 C 91 % 1029,5 hPa 0,0 l/m 9,2 km/h (2 Bft) S-SW 192 0 min 0,0 UV-I 0 W/m 3,5 C 2,4 C 16,1 km/h (3 Bft)
02.02.2023 19:45 4,8 C 3,9 C 91 % 1029,5 hPa 0,0 l/m 8,4 km/h (2 Bft) S-SW 195 0 min 0,0 UV-I 0 W/m 3,5 C 3,1 C 16,1 km/h (3 Bft)
02.02.2023 19:48 4,8 C 3,9 C 91 % 1029,5 hPa 0,0 l/m 11,0 km/h (2 Bft) S-SW 209 0 min 0,0 UV-I 0 W/m 3,5 C 1,2 C 17,7 km/h (3 Bft)
02.02.2023 19:51 4,8 C 4,4 C 91 % 1029,6 hPa 0,0 l/m 13,7 km/h (3 Bft) SW 216 0 min 0,0 UV-I 0 W/m 3,5 C -0,5 C 19,3 km/h (3 Bft)
02.02.2023 19:54 4,8 C 4,4 C 91 % 1029,6 hPa 0,0 l/m 11,9 km/h (2 Bft) SW 215 0 min 0,0 UV-I 0 W/m 3,5 C 0,6 C 17,7 km/h (3 Bft)
02.02.2023 19:57 4,9 C 4,4 C 91 % 1029,5 hPa 0,0 l/m 12,0 km/h (2 Bft) S-SW 205 0 min 0,0 UV-I 0 W/m 3,6 C 0,6 C 17,7 km/h (3 Bft)
02.02.2023 20:00 4,9 C 4,4 C 91 % 1029,5 hPa 0,0 l/m 10,6 km/h (2 Bft) W-SW 244 0 min 0,0 UV-I 0 W/m 3,6 C 1,5 C 17,7 km/h (3 Bft)
02.02.2023 20:03 4,9 C 4,4 C 91 % 1029,4 hPa 0,0 l/m 12,8 km/h (3 Bft) S-SW 204 0 min 0,0 UV-I 0 W/m 3,6 C 0,2 C 22,5 km/h (4 Bft)
02.02.2023 20:06 4,9 C 4,4 C 91 % 1029,4 hPa 0,0 l/m 8,8 km/h (2 Bft) SW 232 0 min 0,0 UV-I 0 W/m 3,6 C 2,9 C 14,5 km/h (3 Bft)
02.02.2023 20:09 4,9 C 4,4 C 91 % 1029,4 hPa 0,0 l/m 10,3 km/h (2 Bft) SW 232 0 min 0,0 UV-I 0 W/m 3,6 C 1,8 C 16,1 km/h (3 Bft)
02.02.2023 20:12 4,9 C 4,4 C 92 % 1029,3 hPa 0,0 l/m 11,0 km/h (2 Bft) W-SW 242 0 min 0,0 UV-I 0 W/m 3,7 C 1,3 C 19,3 km/h (3 Bft)
02.02.2023 20:15 5,0 C 4,4 C 92 % 1029,4 hPa 0,0 l/m 10,3 km/h (2 Bft) W 259 0 min 0,0 UV-I 0 W/m 3,8 C 1,9 C 24,1 km/h (4 Bft)
02.02.2023 20:18 5,1 C 4,4 C 92 % 1029,4 hPa 0,0 l/m 11,4 km/h (2 Bft) S-SW 194 0 min 0,0 UV-I 0 W/m 3,9 C 1,2 C 22,5 km/h (4 Bft)
02.02.2023 20:21 5,0 C 4,4 C 92 % 1029,4 hPa 0,0 l/m 10,8 km/h (2 Bft) W-SW 250 0 min 0,0 UV-I 0 W/m 3,8 C 1,5 C 22,5 km/h (4 Bft)
02.02.2023 20:24 5,0 C 4,4 C 92 % 1029,3 hPa 0,0 l/m 6,7 km/h (2 Bft) W-SW 241 0 min 0,0 UV-I 0 W/m 3,8 C 4,8 C 19,3 km/h (3 Bft)
02.02.2023 20:27 5,1 C 4,4 C 92 % 1029,4 hPa 0,0 l/m 9,6 km/h (2 Bft) SW 219 0 min 0,0 UV-I 0 W/m 3,9 C 2,5 C 19,3 km/h (3 Bft)
02.02.2023 20:30 5,1 C 4,4 C 92 % 1029,4 hPa 0,0 l/m 9,9 km/h (2 Bft) W-SW 242 0 min 0,0 UV-I 0 W/m 3,9 C 2,3 C 17,7 km/h (3 Bft)
02.02.2023 20:33 5,1 C 4,4 C 92 % 1029,5 hPa 0,0 l/m 7,3 km/h (2 Bft) W 265 0 min 0,0 UV-I 0 W/m 3,9 C 4,3 C 14,5 km/h (3 Bft)
02.02.2023 20:36 5,1 C 4,4 C 92 % 1029,4 hPa 0,0 l/m 8,2 km/h (2 Bft) W-SW 258 0 min 0,0 UV-I 0 W/m 3,9 C 3,5 C 16,1 km/h (3 Bft)
02.02.2023 20:39 5,1 C 4,4 C 92 % 1029,4 hPa 0,0 l/m 10,0 km/h (2 Bft) SW 229 0 min 0,0 UV-I 0 W/m 3,9 C 2,2 C 16,1 km/h (3 Bft)
02.02.2023 20:42 5,1 C 4,4 C 92 % 1029,5 hPa 0,0 l/m 8,1 km/h (2 Bft) SW 231 0 min 0,0 UV-I 0 W/m 3,9 C 3,6 C 16,1 km/h (3 Bft)
02.02.2023 20:45 5,1 C 4,4 C 92 % 1029,5 hPa 0,0 l/m 14,1 km/h (3 Bft) S-SW 192 0 min 0,0 UV-I 0 W/m 3,9 C -0,3 C 29,0 km/h (5 Bft)
02.02.2023 20:48 5,2 C 4,4 C 92 % 1029,4 hPa 0,0 l/m 12,4 km/h (3 Bft) S-SW 204 0 min 0,0 UV-I 0 W/m 4,0 C 0,7 C 24,1 km/h (4 Bft)
02.02.2023 20:51 5,2 C 4,4 C 92 % 1029,5 hPa 0,0 l/m 11,1 km/h (2 Bft) W-NW 284 0 min 0,0 UV-I 0 W/m 4,0 C 1,6 C 20,9 km/h (4 Bft)
02.02.2023 20:54 5,2 C 4,4 C 92 % 1029,5 hPa 0,0 l/m 8,2 km/h (2 Bft) W-SW 244 0 min 0,0 UV-I 0 W/m 4,0 C 3,6 C 16,1 km/h (3 Bft)
02.02.2023 20:57 5,2 C 4,4 C 92 % 1029,5 hPa 0,0 l/m 7,4 km/h (2 Bft) W-SW 251 0 min 0,0 UV-I 0 W/m 4,0 C 4,3 C 16,1 km/h (3 Bft)
02.02.2023 21:00 5,2 C 4,4 C 92 % 1029,5 hPa 0,0 l/m 11,8 km/h (2 Bft) W-SW 240 0 min 0,0 UV-I 0 W/m 4,0 C 1,1 C 19,3 km/h (3 Bft)
02.02.2023 21:03 5,2 C 4,4 C 92 % 1029,5 hPa 0,0 l/m 8,8 km/h (2 Bft) W-SW 239 0 min 0,0 UV-I 0 W/m 4,0 C 3,2 C 17,7 km/h (3 Bft)
02.02.2023 21:06 5,2 C 4,4 C 92 % 1029,5 hPa 0,0 l/m 13,0 km/h (3 Bft) S-SW 205 0 min 0,0 UV-I 0 W/m 4,0 C 0,4 C 24,1 km/h (4 Bft)
02.02.2023 21:09 5,3 C 4,4 C 92 % 1029,5 hPa 0,0 l/m 12,7 km/h (3 Bft) SW 232 0 min 0,0 UV-I 0 W/m 4,1 C 0,7 C 22,5 km/h (4 Bft)
02.02.2023 21:12 5,3 C 4,4 C 92 % 1029,5 hPa 0,0 l/m 7,0 km/h (2 Bft) S-SW 213 0 min 0,0 UV-I 0 W/m 4,1 C 4,8 C 12,9 km/h (3 Bft)
02.02.2023 21:15 5,3 C 4,4 C 92 % 1029,5 hPa 0,0 l/m 8,7 km/h (2 Bft) W-SW 244 0 min 0,0 UV-I 0 W/m 4,1 C 3,4 C 20,9 km/h (4 Bft)
02.02.2023 21:18 5,3 C 4,4 C 91 % 1029,6 hPa 0,0 l/m 8,7 km/h (2 Bft) SW 228 0 min 0,0 UV-I 0 W/m 4,0 C 3,4 C 17,7 km/h (3 Bft)
02.02.2023 21:21 5,3 C 4,4 C 91 % 1029,6 hPa 0,0 l/m 8,4 km/h (2 Bft) S-SW 209 0 min 0,0 UV-I 0 W/m 4,0 C 3,6 C 20,9 km/h (4 Bft)
02.02.2023 21:24 5,3 C 4,4 C 91 % 1029,5 hPa 0,0 l/m 6,7 km/h (2 Bft) SW 232 0 min 0,0 UV-I 0 W/m 4,0 C 5,1 C 16,1 km/h (3 Bft)
02.02.2023 21:27 5,3 C 4,4 C 91 % 1029,4 hPa 0,0 l/m 5,7 km/h (1 Bft) SW 219 0 min 0,0 UV-I 0 W/m 4,0 C 5,3 C 11,3 km/h (2 Bft)
02.02.2023 21:30 5,3 C 5,0 C 91 % 1029,5 hPa 0,0 l/m 12,0 km/h (2 Bft) SW 236 0 min 0,0 UV-I 0 W/m 4,0 C 1,1 C 17,7 km/h (3 Bft)
02.02.2023 21:33 5,3 C 4,4 C 91 % 1029,4 hPa 0,0 l/m 10,1 km/h (2 Bft) S-SW 204 0 min 0,0 UV-I 0 W/m 4,0 C 2,3 C 16,1 km/h (3 Bft)
02.02.2023 21:36 5,3 C 4,4 C 91 % 1029,4 hPa 0,0 l/m 8,8 km/h (2 Bft) SW 235 0 min 0,0 UV-I 0 W/m 4,0 C 3,3 C 14,5 km/h (3 Bft)
02.02.2023 21:39 5,3 C 4,4 C 91 % 1029,3 hPa 0,0 l/m 7,1 km/h (2 Bft) S-SW 194 0 min 0,0 UV-I 0 W/m 4,0 C 4,7 C 14,5 km/h (3 Bft)
02.02.2023 21:42 5,3 C 4,4 C 91 % 1029,4 hPa 0,0 l/m 9,9 km/h (2 Bft) S-SW 203 0 min 0,0 UV-I 0 W/m 4,0 C 2,5 C 17,7 km/h (3 Bft)
02.02.2023 21:45 5,3 C 4,4 C 91 % 1029,4 hPa 0,0 l/m 8,4 km/h (2 Bft) SW 216 0 min 0,0 UV-I 0 W/m 4,0 C 3,6 C 16,1 km/h (3 Bft)
02.02.2023 21:48 5,3 C 4,4 C 91 % 1029,3 hPa 0,0 l/m 6,4 km/h (2 Bft) W-SW 242 0 min 0,0 UV-I 0 W/m 4,0 C 5,3 C 14,5 km/h (3 Bft)
02.02.2023 21:51 5,3 C 4,4 C 92 % 1029,3 hPa 0,0 l/m 8,2 km/h (2 Bft) SW 235 0 min 0,0 UV-I 0 W/m 4,1 C 3,8 C 16,1 km/h (3 Bft)
02.02.2023 21:54 5,3 C 4,4 C 92 % 1029,4 hPa 0,0 l/m 10,5 km/h (2 Bft) W-SW 242 0 min 0,0 UV-I 0 W/m 4,1 C 2,1 C 22,5 km/h (4 Bft)
02.02.2023 21:57 5,3 C 4,4 C 92 % 1029,3 hPa 0,0 l/m 9,2 km/h (2 Bft) SW 217 0 min 0,0 UV-I 0 W/m 4,1 C 3,0 C 17,7 km/h (3 Bft)
02.02.2023 22:00 5,3 C 4,4 C 92 % 1029,4 hPa 0,0 l/m 9,8 km/h (2 Bft) W-SW 240 0 min 0,0 UV-I 0 W/m 4,1 C 2,5 C 19,3 km/h (3 Bft)
02.02.2023 22:03 5,3 C 4,4 C 92 % 1029,4 hPa 0,0 l/m 10,3 km/h (2 Bft) SW 234 0 min 0,0 UV-I 0 W/m 4,1 C 2,2 C 17,7 km/h (3 Bft)
02.02.2023 22:06 5,3 C 4,4 C 92 % 1029,5 hPa 0,0 l/m 8,7 km/h (2 Bft) S-SW 212 0 min 0,0 UV-I 0 W/m 4,1 C 3,4 C 16,1 km/h (3 Bft)
02.02.2023 22:09 5,3 C 4,4 C 92 % 1029,5 hPa 0,0 l/m 7,0 km/h (2 Bft) SW 220 0 min 0,0 UV-I 0 W/m 4,1 C 4,8 C 16,1 km/h (3 Bft)
02.02.2023 22:12 5,3 C 4,4 C 92 % 1029,5 hPa 0,0 l/m 10,0 km/h (2 Bft) SW 234 0 min 0,0 UV-I 0 W/m 4,1 C 2,4 C 16,1 km/h (3 Bft)
02.02.2023 22:15 5,3 C 4,4 C 92 % 1029,5 hPa 0,0 l/m 6,9 km/h (2 Bft) W-SW 244 0 min 0,0 UV-I 0 W/m 4,1 C 4,9 C 16,1 km/h (3 Bft)
02.02.2023 22:18 5,4 C 4,4 C 92 % 1029,5 hPa 0,0 l/m 8,2 km/h (2 Bft) SW 234 0 min 0,0 UV-I 0 W/m 4,2 C 3,9 C 16,1 km/h (3 Bft)
02.02.2023 22:21 5,3 C 4,4 C 92 % 1029,7 hPa 0,0 l/m 9,1 km/h (2 Bft) W-SW 248 0 min 0,0 UV-I 0 W/m 4,1 C 3,1 C 20,9 km/h (4 Bft)
02.02.2023 22:24 5,3 C 4,4 C 92 % 1029,6 hPa 0,0 l/m 8,2 km/h (2 Bft) W-SW 244 0 min 0,0 UV-I 0 W/m 4,1 C 3,8 C 12,9 km/h (3 Bft)
02.02.2023 22:27 5,3 C 4,4 C 92 % 1029,6 hPa 0,0 l/m 7,8 km/h (2 Bft) SW 227 0 min 0,0 UV-I 0 W/m 4,1 C 4,1 C 14,5 km/h (3 Bft)
02.02.2023 22:30 5,3 C 4,4 C 92 % 1029,5 hPa 0,0 l/m 9,1 km/h (2 Bft) S-SW 197 0 min 0,0 UV-I 0 W/m 4,1 C 3,1 C 17,7 km/h (3 Bft)
02.02.2023 22:33 5,3 C 4,4 C 92 % 1029,5 hPa 0,0 l/m 10,8 km/h (2 Bft) SW 230 0 min 0,0 UV-I 0 W/m 4,1 C 1,9 C 19,3 km/h (3 Bft)
02.02.2023 22:36 5,4 C 4,4 C 92 % 1029,6 hPa 0,0 l/m 11,2 km/h (2 Bft) SW 229 0 min 0,0 UV-I 0 W/m 4,2 C 1,7 C 24,1 km/h (4 Bft)
02.02.2023 22:39 5,4 C 4,4 C 92 % 1029,7 hPa 0,0 l/m 9,9 km/h (2 Bft) SW 217 0 min 0,0 UV-I 0 W/m 4,2 C 2,6 C 16,1 km/h (3 Bft)
02.02.2023 22:42 5,4 C 4,4 C 92 % 1029,5 hPa 0,0 l/m 9,4 km/h (2 Bft) W-SW 250 0 min 0,0 UV-I 0 W/m 4,2 C 2,9 C 19,3 km/h (3 Bft)
02.02.2023 22:45 5,4 C 4,4 C 92 % 1029,5 hPa 0,0 l/m 9,1 km/h (2 Bft) S-SW 205 0 min 0,0 UV-I 0 W/m 4,2 C 3,2 C 17,7 km/h (3 Bft)
02.02.2023 22:48 5,4 C 4,4 C 92 % 1029,5 hPa 0,0 l/m 11,2 km/h (2 Bft) W-SW 238 0 min 0,0 UV-I 0 W/m 4,2 C 1,7 C 22,5 km/h (4 Bft)
02.02.2023 22:51 5,3 C 4,4 C 92 % 1029,6 hPa 0,0 l/m 14,1 km/h (3 Bft) SW 215 0 min 0,0 UV-I 0 W/m 4,1 C -0,1 C 27,4 km/h (4 Bft)
02.02.2023 22:54 5,4 C 4,4 C 92 % 1029,7 hPa 0,0 l/m 8,5 km/h (2 Bft) W-SW 247 0 min 0,0 UV-I 0 W/m 4,2 C 3,6 C 17,7 km/h (3 Bft)
02.02.2023 22:57 5,4 C 4,4 C 92 % 1029,6 hPa 0,0 l/m 8,4 km/h (2 Bft) S-SW 213 0 min 0,0 UV-I 0 W/m 4,2 C 3,7 C 24,1 km/h (4 Bft)
02.02.2023 23:00 5,3 C 4,4 C 92 % 1029,8 hPa 0,0 l/m 8,5 km/h (2 Bft) W 259 0 min 0,0 UV-I 0 W/m 4,1 C 3,5 C 19,3 km/h (3 Bft)
02.02.2023 23:03 5,4 C 4,4 C 92 % 1029,8 hPa 0,0 l/m 11,1 km/h (2 Bft) SW 227 0 min 0,0 UV-I 0 W/m 4,2 C 1,8 C 25,7 km/h (4 Bft)
02.02.2023 23:06 5,4 C 4,4 C 92 % 1029,7 hPa 0,0 l/m 10,5 km/h (2 Bft) W 269 0 min 0,0 UV-I 0 W/m 4,2 C 2,2 C 24,1 km/h (4 Bft)
02.02.2023 23:09 5,3 C 4,4 C 92 % 1029,7 hPa 0,0 l/m 11,8 km/h (2 Bft) SW 216 0 min 0,0 UV-I 0 W/m 4,1 C 1,2 C 22,5 km/h (4 Bft)
02.02.2023 23:12 5,3 C 4,4 C 92 % 1029,9 hPa 0,0 l/m 13,3 km/h (3 Bft) SW 232 0 min 0,0 UV-I 0 W/m 4,1 C 0,3 C 25,7 km/h (4 Bft)
02.02.2023 23:15 5,4 C 4,4 C 92 % 1029,8 hPa 0,0 l/m 10,6 km/h (2 Bft) S 186 0 min 0,0 UV-I 0 W/m 4,2 C 2,1 C 25,7 km/h (4 Bft)
02.02.2023 23:18 5,3 C 4,4 C 92 % 1029,8 hPa 0,0 l/m 12,9 km/h (3 Bft) SW 229 0 min 0,0 UV-I 0 W/m 4,1 C 0,6 C 27,4 km/h (4 Bft)
02.02.2023 23:21 5,3 C 4,4 C 92 % 1029,8 hPa 0,0 l/m 11,1 km/h (2 Bft) S-SW 204 0 min 0,0 UV-I 0 W/m 4,1 C 1,7 C 19,3 km/h (3 Bft)
02.02.2023 23:24 5,3 C 4,4 C 92 % 1029,9 hPa 0,0 l/m 9,8 km/h (2 Bft) SW 234 0 min 0,0 UV-I 0 W/m 4,1 C 2,5 C 20,9 km/h (4 Bft)
02.02.2023 23:27 5,3 C 4,4 C 92 % 1029,7 hPa 0,0 l/m 11,8 km/h (2 Bft) W 260 0 min 0,0 UV-I 0 W/m 4,1 C 1,2 C 22,5 km/h (4 Bft)
02.02.2023 23:30 5,3 C 4,4 C 92 % 1029,9 hPa 0,0 l/m 8,1 km/h (2 Bft) SW 233 0 min 0,0 UV-I 0 W/m 4,1 C 3,8 C 17,7 km/h (3 Bft)
02.02.2023 23:33 5,3 C 4,4 C 92 % 1029,9 hPa 0,0 l/m 10,5 km/h (2 Bft) SW 229 0 min 0,0 UV-I 0 W/m 4,1 C 2,1 C 22,5 km/h (4 Bft)
02.02.2023 23:36 5,3 C 4,4 C 92 % 1029,7 hPa 0,0 l/m 10,3 km/h (2 Bft) S-SW 197 0 min 0,0 UV-I 0 W/m 4,1 C 2,2 C 19,3 km/h (3 Bft)
02.02.2023 23:39 5,3 C 4,4 C 92 % 1029,7 hPa 0,0 l/m 14,4 km/h (3 Bft) W-SW 245 0 min 0,0 UV-I 0 W/m 4,1 C -0,3 C 32,2 km/h (5 Bft)
02.02.2023 23:42 5,3 C 4,4 C 92 % 1029,8 hPa 0,0 l/m 10,3 km/h (2 Bft) W-SW 238 0 min 0,0 UV-I 0 W/m 4,1 C 2,2 C 19,3 km/h (3 Bft)
02.02.2023 23:45 5,3 C 4,4 C 92 % 1029,8 hPa 0,0 l/m 10,8 km/h (2 Bft) W-SW 237 0 min 0,0 UV-I 0 W/m 4,1 C 1,9 C 24,1 km/h (4 Bft)
02.02.2023 23:48 5,3 C 4,4 C 91 % 1029,8 hPa 0,0 l/m 10,5 km/h (2 Bft) S-SW 204 0 min 0,0 UV-I 0 W/m 4,0 C 2,1 C 24,1 km/h (4 Bft)
02.02.2023 23:51 5,3 C 4,4 C 91 % 1029,7 hPa 0,0 l/m 13,1 km/h (3 Bft) SW 215 0 min 0,0 UV-I 0 W/m 4,0 C 0,5 C 22,5 km/h (4 Bft)
02.02.2023 23:54 5,3 C 4,4 C 91 % 1029,7 hPa 0,0 l/m 11,9 km/h (2 Bft) S-SW 202 0 min 0,0 UV-I 0 W/m 4,0 C 1,2 C 22,5 km/h (4 Bft)
02.02.2023 23:57 5,3 C 4,4 C 91 % 1029,7 hPa 0,0 l/m 8,5 km/h (2 Bft) S-SW 195 0 min 0,0 UV-I 0 W/m 4,0 C 3,5 C 16,1 km/h (3 Bft)
02.02.2023 23:58 5,3 C 4,4 C 91 % 1029,7 hPa 0,0 l/m 9,7 km/h (2 Bft) SW 225 0 min 0,0 UV-I 0 W/m 4,0 C 2,6 C 19,3 km/h (3 Bft)
02.02.2023 23:59 5,3 C 4,4 C 91 % 1029,7 hPa 0,0 l/m 12,9 km/h (3 Bft) SW 225 0 min 0,0 UV-I 0 W/m 4,0 C 0,6 C 24,1 km/h (4 Bft)
_ Min-Zeit 06:42 00:00 15:18 00:01 - 21:27 - - - - - 07:09 07:00 12:39
Minimum _ 3,8 C 3,3 C 89 % 1024,4 hPa - 5,7 km/h (1 Bft) - - - - - 2,5 C -6,7 C 9,7 km/h (2 Bft)
_ Max-Zeit 14:33 14:09 00:00 23:12 00:37 07:00 - - 00:00 14:09 14:09 22:18 21:48 06:45
Maximum _ 5,4 C 5,6 C 92 % 1029,9 hPa 0,2 l/m 25,7 km/h
W (4 Bft)
- - 0 min 0,8 UV-I 173 W/m 4,2 C 5,3 C 41,8 km/h
W (6 Bft)
Durchschnitt _ 4,5 C 4,0 C 91 % 1027,1 hPa #1,4 l/m 12,6 km/h (3 Bft) W-SW - #0 min. 0,4 UV-I 52 W/m 3,2 C 0,1 C 22,2 km/h (4 Bft)